<?xml version="1.0" encoding="UTF-8" standalone="no" ?>
<gpx xmlns="http://www.topografix.com/GPX/1/1" xmlns:xsi="http://www.w3.org/2001/XMLSchema-instance" xsi:schemaLocation="http://www.topografix.com/GPX/1/1 http://www.topografix.com/GPX/1/1/gpx.xsd" version="1.1" creator="VisuGPX - https://www.visugpx.com">
  <metadata>
    <name>pic du Gourguet</name>
    <desc><![CDATA[Belle sortie, longue et délicate à la fin pour ski-randonneurs expérimentés, le 9 février 2022, qui partant de Barèges/Tounaboup, permet de rejoindre le cirque d'Aygues-Cluses puis, en remontant un talweg régulier, le long du gave de Port Bielh, d'arriver sous un mur, à la cote 2410, où nous laissons les skis pour continuer avec crampons et piolet, la sous-couche étant en glace recouverte soit de tôle, soit d'une pellicule de neige en poudre. Passé le mur, le cheminement se fait naturellement en rejoignant la ligne de crête qui court du col de Barèges au pic du Gourguet]]></desc>
  </metadata>
  <trk>
    <name><![CDATA[220209 pic Gourguet]]></name>
    <trkseg>
      <trkpt lat="42.9036" lon="0.10293">
        <ele>1460.38</ele>
        <time>2022-02-09T08:05:38Z</time>
      </trkpt>
      <trkpt lat="42.90375" lon="0.10297">
        <ele>1457.5</ele>
        <time>2022-02-09T08:05:53Z</time>
      </trkpt>
      <trkpt lat="42.90377" lon="0.10295">
        <ele>1457.5</ele>
        <time>2022-02-09T08:06:12Z</time>
      </trkpt>
      <trkpt lat="42.90377" lon="0.10294">
        <ele>1457.5</ele>
        <time>2022-02-09T08:06:38Z</time>
      </trkpt>
      <trkpt lat="42.90374" lon="0.10295">
        <ele>1454.61</ele>
        <time>2022-02-09T08:07:00Z</time>
      </trkpt>
      <trkpt lat="42.90373" lon="0.10296">
        <ele>1459.9</ele>
        <time>2022-02-09T08:07:01Z</time>
      </trkpt>
      <trkpt lat="42.90369" lon="0.10298">
        <ele>1457.02</ele>
        <time>2022-02-09T08:07:08Z</time>
      </trkpt>
      <trkpt lat="42.90362" lon="0.10297">
        <ele>1458.46</ele>
        <time>2022-02-09T08:07:24Z</time>
      </trkpt>
      <trkpt lat="42.90354" lon="0.10298">
        <ele>1457.5</ele>
        <time>2022-02-09T08:07:44Z</time>
      </trkpt>
      <trkpt lat="42.90352" lon="0.10299">
        <ele>1452.69</ele>
        <time>2022-02-09T08:07:52Z</time>
      </trkpt>
      <trkpt lat="42.90352" lon="0.10299">
        <ele>1455.57</ele>
        <time>2022-02-09T08:07:53Z</time>
      </trkpt>
      <trkpt lat="42.90352" lon="0.10299">
        <ele>1462.78</ele>
        <time>2022-02-09T08:07:54Z</time>
      </trkpt>
      <trkpt lat="42.90352" lon="0.10299">
        <ele>1457.5</ele>
        <time>2022-02-09T08:07:55Z</time>
      </trkpt>
      <trkpt lat="42.90351" lon="0.10299">
        <ele>1457.02</ele>
        <time>2022-02-09T08:08:20Z</time>
      </trkpt>
      <trkpt lat="42.90346" lon="0.10301">
        <ele>1457.02</ele>
        <time>2022-02-09T08:08:40Z</time>
      </trkpt>
      <trkpt lat="42.90346" lon="0.10305">
        <ele>1457.02</ele>
        <time>2022-02-09T08:08:57Z</time>
      </trkpt>
      <trkpt lat="42.90346" lon="0.10305">
        <ele>1457.02</ele>
        <time>2022-02-09T08:09:14Z</time>
      </trkpt>
      <trkpt lat="42.9034" lon="0.1031">
        <ele>1457.02</ele>
        <time>2022-02-09T08:09:20Z</time>
      </trkpt>
      <trkpt lat="42.90329" lon="0.10321">
        <ele>1458.46</ele>
        <time>2022-02-09T08:09:34Z</time>
      </trkpt>
      <trkpt lat="42.9032" lon="0.10327">
        <ele>1460.38</ele>
        <time>2022-02-09T08:09:46Z</time>
      </trkpt>
      <trkpt lat="42.90312" lon="0.10328">
        <ele>1460.38</ele>
        <time>2022-02-09T08:09:58Z</time>
      </trkpt>
      <trkpt lat="42.9031" lon="0.10328">
        <ele>1460.38</ele>
        <time>2022-02-09T08:10:00Z</time>
      </trkpt>
      <trkpt lat="42.90299" lon="0.10333">
        <ele>1461.34</ele>
        <time>2022-02-09T08:10:12Z</time>
      </trkpt>
      <trkpt lat="42.90287" lon="0.1034">
        <ele>1462.3</ele>
        <time>2022-02-09T08:10:25Z</time>
      </trkpt>
      <trkpt lat="42.90278" lon="0.10344">
        <ele>1463.26</ele>
        <time>2022-02-09T08:10:36Z</time>
      </trkpt>
      <trkpt lat="42.90267" lon="0.10349">
        <ele>1464.23</ele>
        <time>2022-02-09T08:10:47Z</time>
      </trkpt>
      <trkpt lat="42.90261" lon="0.10352">
        <ele>1464.23</ele>
        <time>2022-02-09T08:10:53Z</time>
      </trkpt>
      <trkpt lat="42.90245" lon="0.10351">
        <ele>1464.71</ele>
        <time>2022-02-09T08:11:07Z</time>
      </trkpt>
      <trkpt lat="42.90233" lon="0.10355">
        <ele>1465.19</ele>
        <time>2022-02-09T08:11:18Z</time>
      </trkpt>
      <trkpt lat="42.90222" lon="0.10359">
        <ele>1466.15</ele>
        <time>2022-02-09T08:11:28Z</time>
      </trkpt>
      <trkpt lat="42.90209" lon="0.10362">
        <ele>1467.59</ele>
        <time>2022-02-09T08:11:40Z</time>
      </trkpt>
      <trkpt lat="42.90205" lon="0.10362">
        <ele>1467.59</ele>
        <time>2022-02-09T08:11:44Z</time>
      </trkpt>
      <trkpt lat="42.90192" lon="0.10367">
        <ele>1469.03</ele>
        <time>2022-02-09T08:11:57Z</time>
      </trkpt>
      <trkpt lat="42.9018" lon="0.1037">
        <ele>1469.99</ele>
        <time>2022-02-09T08:12:08Z</time>
      </trkpt>
      <trkpt lat="42.90169" lon="0.10373">
        <ele>1470.47</ele>
        <time>2022-02-09T08:12:19Z</time>
      </trkpt>
      <trkpt lat="42.90155" lon="0.10376">
        <ele>1472.4</ele>
        <time>2022-02-09T08:12:33Z</time>
      </trkpt>
      <trkpt lat="42.90146" lon="0.10379">
        <ele>1472.88</ele>
        <time>2022-02-09T08:12:43Z</time>
      </trkpt>
      <trkpt lat="42.90137" lon="0.10382">
        <ele>1473.84</ele>
        <time>2022-02-09T08:12:52Z</time>
      </trkpt>
      <trkpt lat="42.90126" lon="0.10385">
        <ele>1474.8</ele>
        <time>2022-02-09T08:13:03Z</time>
      </trkpt>
      <trkpt lat="42.90123" lon="0.10386">
        <ele>1474.8</ele>
        <time>2022-02-09T08:13:06Z</time>
      </trkpt>
      <trkpt lat="42.9012" lon="0.10389">
        <ele>1475.28</ele>
        <time>2022-02-09T08:13:09Z</time>
      </trkpt>
      <trkpt lat="42.90117" lon="0.10388">
        <ele>1475.28</ele>
        <time>2022-02-09T08:13:11Z</time>
      </trkpt>
      <trkpt lat="42.90107" lon="0.10387">
        <ele>1476.24</ele>
        <time>2022-02-09T08:13:21Z</time>
      </trkpt>
      <trkpt lat="42.90094" lon="0.1039">
        <ele>1477.68</ele>
        <time>2022-02-09T08:13:33Z</time>
      </trkpt>
      <trkpt lat="42.90082" lon="0.10394">
        <ele>1479.13</ele>
        <time>2022-02-09T08:13:45Z</time>
      </trkpt>
      <trkpt lat="42.9008" lon="0.10392">
        <ele>1479.13</ele>
        <time>2022-02-09T08:13:47Z</time>
      </trkpt>
      <trkpt lat="42.9007" lon="0.10395">
        <ele>1480.09</ele>
        <time>2022-02-09T08:13:57Z</time>
      </trkpt>
      <trkpt lat="42.90058" lon="0.10398">
        <ele>1480.57</ele>
        <time>2022-02-09T08:14:10Z</time>
      </trkpt>
      <trkpt lat="42.90045" lon="0.10397">
        <ele>1482.97</ele>
        <time>2022-02-09T08:14:23Z</time>
      </trkpt>
      <trkpt lat="42.90043" lon="0.10398">
        <ele>1482.97</ele>
        <time>2022-02-09T08:14:25Z</time>
      </trkpt>
      <trkpt lat="42.90033" lon="0.104">
        <ele>1483.45</ele>
        <time>2022-02-09T08:14:36Z</time>
      </trkpt>
      <trkpt lat="42.90023" lon="0.10404">
        <ele>1485.37</ele>
        <time>2022-02-09T08:14:47Z</time>
      </trkpt>
      <trkpt lat="42.90014" lon="0.10404">
        <ele>1486.82</ele>
        <time>2022-02-09T08:14:57Z</time>
      </trkpt>
      <trkpt lat="42.90003" lon="0.10409">
        <ele>1487.3</ele>
        <time>2022-02-09T08:15:08Z</time>
      </trkpt>
      <trkpt lat="42.89993" lon="0.10412">
        <ele>1487.78</ele>
        <time>2022-02-09T08:15:18Z</time>
      </trkpt>
      <trkpt lat="42.89984" lon="0.10415">
        <ele>1487.78</ele>
        <time>2022-02-09T08:15:28Z</time>
      </trkpt>
      <trkpt lat="42.89969" lon="0.10419">
        <ele>1487.78</ele>
        <time>2022-02-09T08:15:41Z</time>
      </trkpt>
      <trkpt lat="42.89956" lon="0.1042">
        <ele>1488.26</ele>
        <time>2022-02-09T08:15:52Z</time>
      </trkpt>
      <trkpt lat="42.89955" lon="0.1042">
        <ele>1488.26</ele>
        <time>2022-02-09T08:15:53Z</time>
      </trkpt>
      <trkpt lat="42.89946" lon="0.10416">
        <ele>1488.26</ele>
        <time>2022-02-09T08:16:01Z</time>
      </trkpt>
      <trkpt lat="42.89931" lon="0.10422">
        <ele>1488.74</ele>
        <time>2022-02-09T08:16:15Z</time>
      </trkpt>
      <trkpt lat="42.89918" lon="0.10426">
        <ele>1489.7</ele>
        <time>2022-02-09T08:16:27Z</time>
      </trkpt>
      <trkpt lat="42.89914" lon="0.10427">
        <ele>1489.7</ele>
        <time>2022-02-09T08:16:30Z</time>
      </trkpt>
      <trkpt lat="42.89902" lon="0.10428">
        <ele>1491.14</ele>
        <time>2022-02-09T08:16:42Z</time>
      </trkpt>
      <trkpt lat="42.89889" lon="0.10431">
        <ele>1492.58</ele>
        <time>2022-02-09T08:16:55Z</time>
      </trkpt>
      <trkpt lat="42.89879" lon="0.10432">
        <ele>1493.55</ele>
        <time>2022-02-09T08:17:06Z</time>
      </trkpt>
      <trkpt lat="42.89868" lon="0.10434">
        <ele>1496.43</ele>
        <time>2022-02-09T08:17:19Z</time>
      </trkpt>
      <trkpt lat="42.89857" lon="0.10436">
        <ele>1498.35</ele>
        <time>2022-02-09T08:17:32Z</time>
      </trkpt>
      <trkpt lat="42.8985" lon="0.10438">
        <ele>1500.27</ele>
        <time>2022-02-09T08:17:41Z</time>
      </trkpt>
      <trkpt lat="42.89847" lon="0.10436">
        <ele>1500.76</ele>
        <time>2022-02-09T08:17:45Z</time>
      </trkpt>
      <trkpt lat="42.89837" lon="0.10438">
        <ele>1501.72</ele>
        <time>2022-02-09T08:17:56Z</time>
      </trkpt>
      <trkpt lat="42.89826" lon="0.10449">
        <ele>1502.2</ele>
        <time>2022-02-09T08:18:09Z</time>
      </trkpt>
      <trkpt lat="42.89819" lon="0.10451">
        <ele>1502.68</ele>
        <time>2022-02-09T08:18:21Z</time>
      </trkpt>
      <trkpt lat="42.8981" lon="0.10457">
        <ele>1503.16</ele>
        <time>2022-02-09T08:18:34Z</time>
      </trkpt>
      <trkpt lat="42.898" lon="0.10473">
        <ele>1504.12</ele>
        <time>2022-02-09T08:18:47Z</time>
      </trkpt>
      <trkpt lat="42.8979" lon="0.1048">
        <ele>1505.08</ele>
        <time>2022-02-09T08:18:59Z</time>
      </trkpt>
      <trkpt lat="42.89779" lon="0.10489">
        <ele>1506.52</ele>
        <time>2022-02-09T08:19:10Z</time>
      </trkpt>
      <trkpt lat="42.89771" lon="0.10494">
        <ele>1507</ele>
        <time>2022-02-09T08:19:18Z</time>
      </trkpt>
      <trkpt lat="42.89759" lon="0.10492">
        <ele>1508.45</ele>
        <time>2022-02-09T08:19:30Z</time>
      </trkpt>
      <trkpt lat="42.89753" lon="0.10488">
        <ele>1510.37</ele>
        <time>2022-02-09T08:19:40Z</time>
      </trkpt>
      <trkpt lat="42.89759" lon="0.10473">
        <ele>1513.25</ele>
        <time>2022-02-09T08:19:54Z</time>
      </trkpt>
      <trkpt lat="42.89765" lon="0.10461">
        <ele>1514.69</ele>
        <time>2022-02-09T08:20:08Z</time>
      </trkpt>
      <trkpt lat="42.89762" lon="0.10456">
        <ele>1515.18</ele>
        <time>2022-02-09T08:20:13Z</time>
      </trkpt>
      <trkpt lat="42.89751" lon="0.10452">
        <ele>1516.14</ele>
        <time>2022-02-09T08:20:23Z</time>
      </trkpt>
      <trkpt lat="42.89734" lon="0.1045">
        <ele>1517.1</ele>
        <time>2022-02-09T08:20:38Z</time>
      </trkpt>
      <trkpt lat="42.8972" lon="0.10453">
        <ele>1518.54</ele>
        <time>2022-02-09T08:20:51Z</time>
      </trkpt>
      <trkpt lat="42.89709" lon="0.10455">
        <ele>1519.5</ele>
        <time>2022-02-09T08:21:01Z</time>
      </trkpt>
      <trkpt lat="42.89699" lon="0.10459">
        <ele>1520.94</ele>
        <time>2022-02-09T08:21:13Z</time>
      </trkpt>
      <trkpt lat="42.89688" lon="0.10465">
        <ele>1521.9</ele>
        <time>2022-02-09T08:21:25Z</time>
      </trkpt>
      <trkpt lat="42.8968" lon="0.10469">
        <ele>1522.87</ele>
        <time>2022-02-09T08:21:34Z</time>
      </trkpt>
      <trkpt lat="42.89679" lon="0.10469">
        <ele>1522.87</ele>
        <time>2022-02-09T08:21:35Z</time>
      </trkpt>
      <trkpt lat="42.8967" lon="0.10472">
        <ele>1523.35</ele>
        <time>2022-02-09T08:21:44Z</time>
      </trkpt>
      <trkpt lat="42.89659" lon="0.10475">
        <ele>1524.31</ele>
        <time>2022-02-09T08:21:56Z</time>
      </trkpt>
      <trkpt lat="42.89647" lon="0.10478">
        <ele>1525.75</ele>
        <time>2022-02-09T08:22:09Z</time>
      </trkpt>
      <trkpt lat="42.89637" lon="0.10478">
        <ele>1526.23</ele>
        <time>2022-02-09T08:22:19Z</time>
      </trkpt>
      <trkpt lat="42.89636" lon="0.10477">
        <ele>1526.23</ele>
        <time>2022-02-09T08:22:20Z</time>
      </trkpt>
      <trkpt lat="42.89626" lon="0.10473">
        <ele>1528.15</ele>
        <time>2022-02-09T08:22:33Z</time>
      </trkpt>
      <trkpt lat="42.89619" lon="0.10468">
        <ele>1528.63</ele>
        <time>2022-02-09T08:22:41Z</time>
      </trkpt>
      <trkpt lat="42.89607" lon="0.10466">
        <ele>1529.59</ele>
        <time>2022-02-09T08:22:53Z</time>
      </trkpt>
      <trkpt lat="42.89598" lon="0.10465">
        <ele>1530.56</ele>
        <time>2022-02-09T08:23:04Z</time>
      </trkpt>
      <trkpt lat="42.89591" lon="0.10463">
        <ele>1531.52</ele>
        <time>2022-02-09T08:23:12Z</time>
      </trkpt>
      <trkpt lat="42.89578" lon="0.10456">
        <ele>1532.96</ele>
        <time>2022-02-09T08:23:26Z</time>
      </trkpt>
      <trkpt lat="42.89565" lon="0.10449">
        <ele>1533.92</ele>
        <time>2022-02-09T08:23:39Z</time>
      </trkpt>
      <trkpt lat="42.89553" lon="0.10446">
        <ele>1534.88</ele>
        <time>2022-02-09T08:23:51Z</time>
      </trkpt>
      <trkpt lat="42.89549" lon="0.10457">
        <ele>1535.36</ele>
        <time>2022-02-09T08:23:59Z</time>
      </trkpt>
      <trkpt lat="42.89543" lon="0.10484">
        <ele>1535.84</ele>
        <time>2022-02-09T08:24:13Z</time>
      </trkpt>
      <trkpt lat="42.89541" lon="0.10493">
        <ele>1535.84</ele>
        <time>2022-02-09T08:24:19Z</time>
      </trkpt>
      <trkpt lat="42.89537" lon="0.10514">
        <ele>1536.8</ele>
        <time>2022-02-09T08:24:32Z</time>
      </trkpt>
      <trkpt lat="42.89535" lon="0.10518">
        <ele>1536.8</ele>
        <time>2022-02-09T08:24:35Z</time>
      </trkpt>
      <trkpt lat="42.89534" lon="0.10533">
        <ele>1537.77</ele>
        <time>2022-02-09T08:24:46Z</time>
      </trkpt>
      <trkpt lat="42.89527" lon="0.10549">
        <ele>1538.73</ele>
        <time>2022-02-09T08:24:59Z</time>
      </trkpt>
      <trkpt lat="42.89522" lon="0.10564">
        <ele>1539.69</ele>
        <time>2022-02-09T08:25:11Z</time>
      </trkpt>
      <trkpt lat="42.89519" lon="0.10575">
        <ele>1540.65</ele>
        <time>2022-02-09T08:25:22Z</time>
      </trkpt>
      <trkpt lat="42.89516" lon="0.1058">
        <ele>1541.61</ele>
        <time>2022-02-09T08:25:27Z</time>
      </trkpt>
      <trkpt lat="42.89508" lon="0.10588">
        <ele>1543.05</ele>
        <time>2022-02-09T08:25:38Z</time>
      </trkpt>
      <trkpt lat="42.89502" lon="0.10592">
        <ele>1544.5</ele>
        <time>2022-02-09T08:25:50Z</time>
      </trkpt>
      <trkpt lat="42.89494" lon="0.10598">
        <ele>1546.42</ele>
        <time>2022-02-09T08:26:02Z</time>
      </trkpt>
      <trkpt lat="42.8949" lon="0.10599">
        <ele>1549.3</ele>
        <time>2022-02-09T08:26:14Z</time>
      </trkpt>
      <trkpt lat="42.8948" lon="0.10606">
        <ele>1549.78</ele>
        <time>2022-02-09T08:26:25Z</time>
      </trkpt>
      <trkpt lat="42.89475" lon="0.1061">
        <ele>1549.78</ele>
        <time>2022-02-09T08:26:32Z</time>
      </trkpt>
      <trkpt lat="42.89468" lon="0.10606">
        <ele>1552.67</ele>
        <time>2022-02-09T08:26:46Z</time>
      </trkpt>
      <trkpt lat="42.89457" lon="0.10604">
        <ele>1554.59</ele>
        <time>2022-02-09T08:27:01Z</time>
      </trkpt>
      <trkpt lat="42.89447" lon="0.10605">
        <ele>1556.99</ele>
        <time>2022-02-09T08:27:15Z</time>
      </trkpt>
      <trkpt lat="42.89439" lon="0.10612">
        <ele>1558.92</ele>
        <time>2022-02-09T08:27:27Z</time>
      </trkpt>
      <trkpt lat="42.89434" lon="0.10621">
        <ele>1560.84</ele>
        <time>2022-02-09T08:27:39Z</time>
      </trkpt>
      <trkpt lat="42.89432" lon="0.10628">
        <ele>1562.28</ele>
        <time>2022-02-09T08:27:50Z</time>
      </trkpt>
      <trkpt lat="42.89428" lon="0.10638">
        <ele>1565.64</ele>
        <time>2022-02-09T08:28:05Z</time>
      </trkpt>
      <trkpt lat="42.89423" lon="0.10645">
        <ele>1567.57</ele>
        <time>2022-02-09T08:28:16Z</time>
      </trkpt>
      <trkpt lat="42.89415" lon="0.10646">
        <ele>1569.01</ele>
        <time>2022-02-09T08:28:27Z</time>
      </trkpt>
      <trkpt lat="42.89406" lon="0.10645">
        <ele>1569.97</ele>
        <time>2022-02-09T08:28:39Z</time>
      </trkpt>
      <trkpt lat="42.89395" lon="0.10639">
        <ele>1572.85</ele>
        <time>2022-02-09T08:28:51Z</time>
      </trkpt>
      <trkpt lat="42.89385" lon="0.10639">
        <ele>1573.82</ele>
        <time>2022-02-09T08:29:06Z</time>
      </trkpt>
      <trkpt lat="42.89375" lon="0.1064">
        <ele>1574.78</ele>
        <time>2022-02-09T08:29:19Z</time>
      </trkpt>
      <trkpt lat="42.89368" lon="0.10642">
        <ele>1576.7</ele>
        <time>2022-02-09T08:29:34Z</time>
      </trkpt>
      <trkpt lat="42.8936" lon="0.10644">
        <ele>1578.14</ele>
        <time>2022-02-09T08:29:49Z</time>
      </trkpt>
      <trkpt lat="42.8935" lon="0.10647">
        <ele>1581.03</ele>
        <time>2022-02-09T08:30:05Z</time>
      </trkpt>
      <trkpt lat="42.89345" lon="0.10649">
        <ele>1582.95</ele>
        <time>2022-02-09T08:30:15Z</time>
      </trkpt>
      <trkpt lat="42.89336" lon="0.10656">
        <ele>1584.87</ele>
        <time>2022-02-09T08:30:28Z</time>
      </trkpt>
      <trkpt lat="42.89329" lon="0.10658">
        <ele>1587.75</ele>
        <time>2022-02-09T08:30:44Z</time>
      </trkpt>
      <trkpt lat="42.89325" lon="0.10662">
        <ele>1589.68</ele>
        <time>2022-02-09T08:30:58Z</time>
      </trkpt>
      <trkpt lat="42.89319" lon="0.10668">
        <ele>1591.12</ele>
        <time>2022-02-09T08:31:08Z</time>
      </trkpt>
      <trkpt lat="42.8931" lon="0.10669">
        <ele>1593.52</ele>
        <time>2022-02-09T08:31:23Z</time>
      </trkpt>
      <trkpt lat="42.89302" lon="0.10677">
        <ele>1595.45</ele>
        <time>2022-02-09T08:31:36Z</time>
      </trkpt>
      <trkpt lat="42.89295" lon="0.1068">
        <ele>1597.85</ele>
        <time>2022-02-09T08:31:47Z</time>
      </trkpt>
      <trkpt lat="42.89289" lon="0.10682">
        <ele>1598.81</ele>
        <time>2022-02-09T08:32:00Z</time>
      </trkpt>
      <trkpt lat="42.89282" lon="0.10685">
        <ele>1600.73</ele>
        <time>2022-02-09T08:32:13Z</time>
      </trkpt>
      <trkpt lat="42.89283" lon="0.10692">
        <ele>1603.14</ele>
        <time>2022-02-09T08:32:26Z</time>
      </trkpt>
      <trkpt lat="42.89291" lon="0.10701">
        <ele>1605.54</ele>
        <time>2022-02-09T08:32:41Z</time>
      </trkpt>
      <trkpt lat="42.89295" lon="0.10713">
        <ele>1607.94</ele>
        <time>2022-02-09T08:32:56Z</time>
      </trkpt>
      <trkpt lat="42.89285" lon="0.10711">
        <ele>1609.86</ele>
        <time>2022-02-09T08:33:10Z</time>
      </trkpt>
      <trkpt lat="42.8928" lon="0.10716">
        <ele>1612.27</ele>
        <time>2022-02-09T08:33:22Z</time>
      </trkpt>
      <trkpt lat="42.89274" lon="0.10719">
        <ele>1613.23</ele>
        <time>2022-02-09T08:33:34Z</time>
      </trkpt>
      <trkpt lat="42.89268" lon="0.10723">
        <ele>1615.15</ele>
        <time>2022-02-09T08:33:48Z</time>
      </trkpt>
      <trkpt lat="42.8926" lon="0.10723">
        <ele>1616.11</ele>
        <time>2022-02-09T08:34:00Z</time>
      </trkpt>
      <trkpt lat="42.89258" lon="0.10721">
        <ele>1618.04</ele>
        <time>2022-02-09T08:34:13Z</time>
      </trkpt>
      <trkpt lat="42.89253" lon="0.10719">
        <ele>1619.48</ele>
        <time>2022-02-09T08:34:26Z</time>
      </trkpt>
      <trkpt lat="42.89245" lon="0.1072">
        <ele>1621.4</ele>
        <time>2022-02-09T08:34:41Z</time>
      </trkpt>
      <trkpt lat="42.89235" lon="0.10722">
        <ele>1622.36</ele>
        <time>2022-02-09T08:34:54Z</time>
      </trkpt>
      <trkpt lat="42.89233" lon="0.10725">
        <ele>1624.28</ele>
        <time>2022-02-09T08:35:08Z</time>
      </trkpt>
      <trkpt lat="42.89226" lon="0.10727">
        <ele>1626.21</ele>
        <time>2022-02-09T08:35:23Z</time>
      </trkpt>
      <trkpt lat="42.89212" lon="0.10725">
        <ele>1627.65</ele>
        <time>2022-02-09T08:35:39Z</time>
      </trkpt>
      <trkpt lat="42.89212" lon="0.10724">
        <ele>1628.61</ele>
        <time>2022-02-09T08:35:45Z</time>
      </trkpt>
      <trkpt lat="42.89202" lon="0.1072">
        <ele>1629.57</ele>
        <time>2022-02-09T08:35:56Z</time>
      </trkpt>
      <trkpt lat="42.8919" lon="0.10718">
        <ele>1631.01</ele>
        <time>2022-02-09T08:36:09Z</time>
      </trkpt>
      <trkpt lat="42.89181" lon="0.10716">
        <ele>1631.98</ele>
        <time>2022-02-09T08:36:21Z</time>
      </trkpt>
      <trkpt lat="42.89174" lon="0.10717">
        <ele>1633.9</ele>
        <time>2022-02-09T08:36:31Z</time>
      </trkpt>
      <trkpt lat="42.89169" lon="0.10715">
        <ele>1634.38</ele>
        <time>2022-02-09T08:36:41Z</time>
      </trkpt>
      <trkpt lat="42.89157" lon="0.10715">
        <ele>1634.86</ele>
        <time>2022-02-09T08:36:54Z</time>
      </trkpt>
      <trkpt lat="42.89144" lon="0.10719">
        <ele>1636.3</ele>
        <time>2022-02-09T08:37:07Z</time>
      </trkpt>
      <trkpt lat="42.89136" lon="0.10722">
        <ele>1637.74</ele>
        <time>2022-02-09T08:37:20Z</time>
      </trkpt>
      <trkpt lat="42.89128" lon="0.10725">
        <ele>1638.7</ele>
        <time>2022-02-09T08:37:31Z</time>
      </trkpt>
      <trkpt lat="42.89119" lon="0.10728">
        <ele>1640.15</ele>
        <time>2022-02-09T08:37:42Z</time>
      </trkpt>
      <trkpt lat="42.89108" lon="0.10729">
        <ele>1640.15</ele>
        <time>2022-02-09T08:37:55Z</time>
      </trkpt>
      <trkpt lat="42.89093" lon="0.10728">
        <ele>1642.07</ele>
        <time>2022-02-09T08:38:09Z</time>
      </trkpt>
      <trkpt lat="42.8909" lon="0.10726">
        <ele>1642.55</ele>
        <time>2022-02-09T08:38:13Z</time>
      </trkpt>
      <trkpt lat="42.89077" lon="0.10723">
        <ele>1644.47</ele>
        <time>2022-02-09T08:38:30Z</time>
      </trkpt>
      <trkpt lat="42.89068" lon="0.10731">
        <ele>1645.43</ele>
        <time>2022-02-09T08:38:44Z</time>
      </trkpt>
      <trkpt lat="42.89059" lon="0.10741">
        <ele>1647.36</ele>
        <time>2022-02-09T08:38:58Z</time>
      </trkpt>
      <trkpt lat="42.89057" lon="0.10744">
        <ele>1647.84</ele>
        <time>2022-02-09T08:39:02Z</time>
      </trkpt>
      <trkpt lat="42.89052" lon="0.10747">
        <ele>1648.32</ele>
        <time>2022-02-09T08:39:08Z</time>
      </trkpt>
      <trkpt lat="42.89047" lon="0.10749">
        <ele>1648.32</ele>
        <time>2022-02-09T08:39:14Z</time>
      </trkpt>
      <trkpt lat="42.89042" lon="0.1075">
        <ele>1649.28</ele>
        <time>2022-02-09T08:39:20Z</time>
      </trkpt>
      <trkpt lat="42.89031" lon="0.10751">
        <ele>1650.72</ele>
        <time>2022-02-09T08:39:34Z</time>
      </trkpt>
      <trkpt lat="42.89018" lon="0.10753">
        <ele>1651.68</ele>
        <time>2022-02-09T08:39:46Z</time>
      </trkpt>
      <trkpt lat="42.89006" lon="0.10754">
        <ele>1652.64</ele>
        <time>2022-02-09T08:39:58Z</time>
      </trkpt>
      <trkpt lat="42.88995" lon="0.10752">
        <ele>1654.09</ele>
        <time>2022-02-09T08:40:10Z</time>
      </trkpt>
      <trkpt lat="42.88982" lon="0.1075">
        <ele>1655.05</ele>
        <time>2022-02-09T08:40:24Z</time>
      </trkpt>
      <trkpt lat="42.88972" lon="0.10749">
        <ele>1655.53</ele>
        <time>2022-02-09T08:40:36Z</time>
      </trkpt>
      <trkpt lat="42.88961" lon="0.1075">
        <ele>1656.97</ele>
        <time>2022-02-09T08:40:49Z</time>
      </trkpt>
      <trkpt lat="42.88952" lon="0.10751">
        <ele>1657.93</ele>
        <time>2022-02-09T08:41:01Z</time>
      </trkpt>
      <trkpt lat="42.88938" lon="0.10758">
        <ele>1659.37</ele>
        <time>2022-02-09T08:41:15Z</time>
      </trkpt>
      <trkpt lat="42.88932" lon="0.10762">
        <ele>1659.85</ele>
        <time>2022-02-09T08:41:25Z</time>
      </trkpt>
      <trkpt lat="42.88925" lon="0.10767">
        <ele>1660.33</ele>
        <time>2022-02-09T08:41:35Z</time>
      </trkpt>
      <trkpt lat="42.88918" lon="0.10773">
        <ele>1661.3</ele>
        <time>2022-02-09T08:41:46Z</time>
      </trkpt>
      <trkpt lat="42.8891" lon="0.10781">
        <ele>1661.78</ele>
        <time>2022-02-09T08:41:57Z</time>
      </trkpt>
      <trkpt lat="42.88905" lon="0.10785">
        <ele>1662.74</ele>
        <time>2022-02-09T08:42:07Z</time>
      </trkpt>
      <trkpt lat="42.88897" lon="0.10794">
        <ele>1663.7</ele>
        <time>2022-02-09T08:42:18Z</time>
      </trkpt>
      <trkpt lat="42.88885" lon="0.10799">
        <ele>1664.18</ele>
        <time>2022-02-09T08:42:30Z</time>
      </trkpt>
      <trkpt lat="42.88874" lon="0.10802">
        <ele>1665.14</ele>
        <time>2022-02-09T08:42:42Z</time>
      </trkpt>
      <trkpt lat="42.88864" lon="0.10804">
        <ele>1665.62</ele>
        <time>2022-02-09T08:42:54Z</time>
      </trkpt>
      <trkpt lat="42.8886" lon="0.10806">
        <ele>1666.1</ele>
        <time>2022-02-09T08:43:06Z</time>
      </trkpt>
      <trkpt lat="42.88847" lon="0.10811">
        <ele>1667.54</ele>
        <time>2022-02-09T08:43:17Z</time>
      </trkpt>
      <trkpt lat="42.88839" lon="0.10815">
        <ele>1668.02</ele>
        <time>2022-02-09T08:43:28Z</time>
      </trkpt>
      <trkpt lat="42.8883" lon="0.10819">
        <ele>1669.47</ele>
        <time>2022-02-09T08:43:40Z</time>
      </trkpt>
      <trkpt lat="42.88818" lon="0.10825">
        <ele>1670.91</ele>
        <time>2022-02-09T08:43:51Z</time>
      </trkpt>
      <trkpt lat="42.88804" lon="0.10831">
        <ele>1671.87</ele>
        <time>2022-02-09T08:44:04Z</time>
      </trkpt>
      <trkpt lat="42.88797" lon="0.10834">
        <ele>1673.79</ele>
        <time>2022-02-09T08:44:17Z</time>
      </trkpt>
      <trkpt lat="42.88789" lon="0.10835">
        <ele>1674.75</ele>
        <time>2022-02-09T08:44:29Z</time>
      </trkpt>
      <trkpt lat="42.88778" lon="0.10839">
        <ele>1675.72</ele>
        <time>2022-02-09T08:44:40Z</time>
      </trkpt>
      <trkpt lat="42.8877" lon="0.1084">
        <ele>1676.68</ele>
        <time>2022-02-09T08:44:52Z</time>
      </trkpt>
      <trkpt lat="42.8876" lon="0.10841">
        <ele>1678.6</ele>
        <time>2022-02-09T08:45:05Z</time>
      </trkpt>
      <trkpt lat="42.88753" lon="0.10842">
        <ele>1679.56</ele>
        <time>2022-02-09T08:45:17Z</time>
      </trkpt>
      <trkpt lat="42.88745" lon="0.1084">
        <ele>1680.52</ele>
        <time>2022-02-09T08:45:28Z</time>
      </trkpt>
      <trkpt lat="42.88739" lon="0.1084">
        <ele>1681.48</ele>
        <time>2022-02-09T08:45:39Z</time>
      </trkpt>
      <trkpt lat="42.88726" lon="0.10844">
        <ele>1683.41</ele>
        <time>2022-02-09T08:45:54Z</time>
      </trkpt>
      <trkpt lat="42.88724" lon="0.10842">
        <ele>1683.89</ele>
        <time>2022-02-09T08:46:06Z</time>
      </trkpt>
      <trkpt lat="42.88719" lon="0.10843">
        <ele>1682.93</ele>
        <time>2022-02-09T08:46:20Z</time>
      </trkpt>
      <trkpt lat="42.88714" lon="0.10845">
        <ele>1684.37</ele>
        <time>2022-02-09T08:46:33Z</time>
      </trkpt>
      <trkpt lat="42.88712" lon="0.10848">
        <ele>1685.33</ele>
        <time>2022-02-09T08:46:44Z</time>
      </trkpt>
      <trkpt lat="42.88711" lon="0.10853">
        <ele>1685.81</ele>
        <time>2022-02-09T08:46:56Z</time>
      </trkpt>
      <trkpt lat="42.88711" lon="0.10856">
        <ele>1685.33</ele>
        <time>2022-02-09T08:47:11Z</time>
      </trkpt>
      <trkpt lat="42.88701" lon="0.10856">
        <ele>1686.77</ele>
        <time>2022-02-09T08:47:21Z</time>
      </trkpt>
      <trkpt lat="42.88697" lon="0.10858">
        <ele>1687.73</ele>
        <time>2022-02-09T08:47:29Z</time>
      </trkpt>
      <trkpt lat="42.88692" lon="0.10859">
        <ele>1689.17</ele>
        <time>2022-02-09T08:47:39Z</time>
      </trkpt>
      <trkpt lat="42.88684" lon="0.10861">
        <ele>1691.1</ele>
        <time>2022-02-09T08:47:52Z</time>
      </trkpt>
      <trkpt lat="42.88677" lon="0.10867">
        <ele>1693.02</ele>
        <time>2022-02-09T08:48:05Z</time>
      </trkpt>
      <trkpt lat="42.88669" lon="0.10869">
        <ele>1695.42</ele>
        <time>2022-02-09T08:48:17Z</time>
      </trkpt>
      <trkpt lat="42.88663" lon="0.1087">
        <ele>1696.38</ele>
        <time>2022-02-09T08:48:28Z</time>
      </trkpt>
      <trkpt lat="42.88656" lon="0.10871">
        <ele>1698.79</ele>
        <time>2022-02-09T08:48:41Z</time>
      </trkpt>
      <trkpt lat="42.88649" lon="0.10871">
        <ele>1700.23</ele>
        <time>2022-02-09T08:48:52Z</time>
      </trkpt>
      <trkpt lat="42.8864" lon="0.10869">
        <ele>1701.67</ele>
        <time>2022-02-09T08:49:06Z</time>
      </trkpt>
      <trkpt lat="42.88629" lon="0.10875">
        <ele>1702.63</ele>
        <time>2022-02-09T08:49:20Z</time>
      </trkpt>
      <trkpt lat="42.88622" lon="0.10878">
        <ele>1703.59</ele>
        <time>2022-02-09T08:49:29Z</time>
      </trkpt>
      <trkpt lat="42.88613" lon="0.10883">
        <ele>1705.04</ele>
        <time>2022-02-09T08:49:41Z</time>
      </trkpt>
      <trkpt lat="42.88604" lon="0.10891">
        <ele>1706</ele>
        <time>2022-02-09T08:49:55Z</time>
      </trkpt>
      <trkpt lat="42.88595" lon="0.10895">
        <ele>1707.92</ele>
        <time>2022-02-09T08:50:09Z</time>
      </trkpt>
      <trkpt lat="42.88591" lon="0.10901">
        <ele>1708.88</ele>
        <time>2022-02-09T08:50:19Z</time>
      </trkpt>
      <trkpt lat="42.88585" lon="0.10904">
        <ele>1710.32</ele>
        <time>2022-02-09T08:50:31Z</time>
      </trkpt>
      <trkpt lat="42.88579" lon="0.10915">
        <ele>1711.76</ele>
        <time>2022-02-09T08:50:43Z</time>
      </trkpt>
      <trkpt lat="42.8857" lon="0.1092">
        <ele>1713.69</ele>
        <time>2022-02-09T08:50:55Z</time>
      </trkpt>
      <trkpt lat="42.8856" lon="0.10925">
        <ele>1714.65</ele>
        <time>2022-02-09T08:51:09Z</time>
      </trkpt>
      <trkpt lat="42.88554" lon="0.10933">
        <ele>1715.13</ele>
        <time>2022-02-09T08:51:19Z</time>
      </trkpt>
      <trkpt lat="42.8855" lon="0.10939">
        <ele>1716.09</ele>
        <time>2022-02-09T08:51:28Z</time>
      </trkpt>
      <trkpt lat="42.88541" lon="0.10946">
        <ele>1717.53</ele>
        <time>2022-02-09T08:51:41Z</time>
      </trkpt>
      <trkpt lat="42.88532" lon="0.10956">
        <ele>1718.01</ele>
        <time>2022-02-09T08:51:52Z</time>
      </trkpt>
      <trkpt lat="42.88525" lon="0.10962">
        <ele>1718.49</ele>
        <time>2022-02-09T08:52:01Z</time>
      </trkpt>
      <trkpt lat="42.88515" lon="0.10968">
        <ele>1719.94</ele>
        <time>2022-02-09T08:52:13Z</time>
      </trkpt>
      <trkpt lat="42.88506" lon="0.10972">
        <ele>1720.42</ele>
        <time>2022-02-09T08:52:23Z</time>
      </trkpt>
      <trkpt lat="42.88496" lon="0.10974">
        <ele>1720.9</ele>
        <time>2022-02-09T08:52:36Z</time>
      </trkpt>
      <trkpt lat="42.88491" lon="0.10983">
        <ele>1721.86</ele>
        <time>2022-02-09T08:52:45Z</time>
      </trkpt>
      <trkpt lat="42.88484" lon="0.10994">
        <ele>1723.3</ele>
        <time>2022-02-09T08:52:57Z</time>
      </trkpt>
      <trkpt lat="42.88478" lon="0.11003">
        <ele>1724.74</ele>
        <time>2022-02-09T08:53:10Z</time>
      </trkpt>
      <trkpt lat="42.88471" lon="0.11015">
        <ele>1725.22</ele>
        <time>2022-02-09T08:53:24Z</time>
      </trkpt>
      <trkpt lat="42.88464" lon="0.11029">
        <ele>1726.67</ele>
        <time>2022-02-09T08:53:37Z</time>
      </trkpt>
      <trkpt lat="42.88456" lon="0.11043">
        <ele>1726.67</ele>
        <time>2022-02-09T08:53:49Z</time>
      </trkpt>
      <trkpt lat="42.88449" lon="0.11059">
        <ele>1727.15</ele>
        <time>2022-02-09T08:54:02Z</time>
      </trkpt>
      <trkpt lat="42.88445" lon="0.11074">
        <ele>1727.63</ele>
        <time>2022-02-09T08:54:14Z</time>
      </trkpt>
      <trkpt lat="42.88443" lon="0.11079">
        <ele>1727.63</ele>
        <time>2022-02-09T08:54:22Z</time>
      </trkpt>
      <trkpt lat="42.88436" lon="0.11088">
        <ele>1727.63</ele>
        <time>2022-02-09T08:54:34Z</time>
      </trkpt>
      <trkpt lat="42.88427" lon="0.11096">
        <ele>1728.59</ele>
        <time>2022-02-09T08:54:44Z</time>
      </trkpt>
      <trkpt lat="42.88421" lon="0.11108">
        <ele>1729.07</ele>
        <time>2022-02-09T08:54:55Z</time>
      </trkpt>
      <trkpt lat="42.88415" lon="0.11118">
        <ele>1729.55</ele>
        <time>2022-02-09T08:55:06Z</time>
      </trkpt>
      <trkpt lat="42.88405" lon="0.1113">
        <ele>1730.03</ele>
        <time>2022-02-09T08:55:15Z</time>
      </trkpt>
      <trkpt lat="42.88398" lon="0.11142">
        <ele>1730.03</ele>
        <time>2022-02-09T08:55:26Z</time>
      </trkpt>
      <trkpt lat="42.88395" lon="0.11145">
        <ele>1730.03</ele>
        <time>2022-02-09T08:55:29Z</time>
      </trkpt>
      <trkpt lat="42.88393" lon="0.11156">
        <ele>1730.99</ele>
        <time>2022-02-09T08:55:39Z</time>
      </trkpt>
      <trkpt lat="42.88383" lon="0.11162">
        <ele>1731.47</ele>
        <time>2022-02-09T08:55:53Z</time>
      </trkpt>
      <trkpt lat="42.88372" lon="0.11165">
        <ele>1732.43</ele>
        <time>2022-02-09T08:56:03Z</time>
      </trkpt>
      <trkpt lat="42.88363" lon="0.1117">
        <ele>1733.39</ele>
        <time>2022-02-09T08:56:13Z</time>
      </trkpt>
      <trkpt lat="42.88357" lon="0.1117">
        <ele>1734.84</ele>
        <time>2022-02-09T08:56:22Z</time>
      </trkpt>
      <trkpt lat="42.88347" lon="0.11175">
        <ele>1735.8</ele>
        <time>2022-02-09T08:56:34Z</time>
      </trkpt>
      <trkpt lat="42.88344" lon="0.11178">
        <ele>1735.8</ele>
        <time>2022-02-09T08:56:37Z</time>
      </trkpt>
      <trkpt lat="42.8833" lon="0.11199">
        <ele>1737.72</ele>
        <time>2022-02-09T08:56:51Z</time>
      </trkpt>
      <trkpt lat="42.8832" lon="0.1121">
        <ele>1739.64</ele>
        <time>2022-02-09T08:57:02Z</time>
      </trkpt>
      <trkpt lat="42.88314" lon="0.11215">
        <ele>1740.12</ele>
        <time>2022-02-09T08:57:09Z</time>
      </trkpt>
      <trkpt lat="42.88311" lon="0.11214">
        <ele>1740.6</ele>
        <time>2022-02-09T08:57:22Z</time>
      </trkpt>
      <trkpt lat="42.88313" lon="0.1121">
        <ele>1740.6</ele>
        <time>2022-02-09T08:57:40Z</time>
      </trkpt>
      <trkpt lat="42.88313" lon="0.11214">
        <ele>1741.08</ele>
        <time>2022-02-09T08:57:57Z</time>
      </trkpt>
      <trkpt lat="42.88311" lon="0.11217">
        <ele>1741.57</ele>
        <time>2022-02-09T08:58:15Z</time>
      </trkpt>
      <trkpt lat="42.88309" lon="0.11222">
        <ele>1741.57</ele>
        <time>2022-02-09T08:58:38Z</time>
      </trkpt>
      <trkpt lat="42.88311" lon="0.11218">
        <ele>1741.57</ele>
        <time>2022-02-09T08:58:57Z</time>
      </trkpt>
      <trkpt lat="42.88307" lon="0.1122">
        <ele>1741.57</ele>
        <time>2022-02-09T08:59:24Z</time>
      </trkpt>
      <trkpt lat="42.88304" lon="0.11225">
        <ele>1741.57</ele>
        <time>2022-02-09T08:59:47Z</time>
      </trkpt>
      <trkpt lat="42.8831" lon="0.11218">
        <ele>1741.57</ele>
        <time>2022-02-09T09:00:05Z</time>
      </trkpt>
      <trkpt lat="42.88315" lon="0.11211">
        <ele>1741.57</ele>
        <time>2022-02-09T09:00:24Z</time>
      </trkpt>
      <trkpt lat="42.88313" lon="0.11225">
        <ele>1742.05</ele>
        <time>2022-02-09T09:00:40Z</time>
      </trkpt>
      <trkpt lat="42.88313" lon="0.11222">
        <ele>1742.05</ele>
        <time>2022-02-09T09:00:56Z</time>
      </trkpt>
      <trkpt lat="42.88315" lon="0.11209">
        <ele>1742.53</ele>
        <time>2022-02-09T09:01:12Z</time>
      </trkpt>
      <trkpt lat="42.88316" lon="0.11209">
        <ele>1742.53</ele>
        <time>2022-02-09T09:01:34Z</time>
      </trkpt>
      <trkpt lat="42.88317" lon="0.11211">
        <ele>1742.53</ele>
        <time>2022-02-09T09:01:49Z</time>
      </trkpt>
      <trkpt lat="42.88315" lon="0.11214">
        <ele>1742.53</ele>
        <time>2022-02-09T09:02:10Z</time>
      </trkpt>
      <trkpt lat="42.88311" lon="0.11217">
        <ele>1742.53</ele>
        <time>2022-02-09T09:02:28Z</time>
      </trkpt>
      <trkpt lat="42.88314" lon="0.1123">
        <ele>1743.01</ele>
        <time>2022-02-09T09:02:45Z</time>
      </trkpt>
      <trkpt lat="42.88311" lon="0.11244">
        <ele>1744.93</ele>
        <time>2022-02-09T09:02:57Z</time>
      </trkpt>
      <trkpt lat="42.8831" lon="0.1126">
        <ele>1745.41</ele>
        <time>2022-02-09T09:03:11Z</time>
      </trkpt>
      <trkpt lat="42.8831" lon="0.11274">
        <ele>1745.89</ele>
        <time>2022-02-09T09:03:24Z</time>
      </trkpt>
      <trkpt lat="42.88311" lon="0.11286">
        <ele>1746.85</ele>
        <time>2022-02-09T09:03:36Z</time>
      </trkpt>
      <trkpt lat="42.88314" lon="0.11302">
        <ele>1749.74</ele>
        <time>2022-02-09T09:03:51Z</time>
      </trkpt>
      <trkpt lat="42.88312" lon="0.11314">
        <ele>1751.66</ele>
        <time>2022-02-09T09:04:04Z</time>
      </trkpt>
      <trkpt lat="42.88309" lon="0.11331">
        <ele>1754.06</ele>
        <time>2022-02-09T09:04:21Z</time>
      </trkpt>
      <trkpt lat="42.88303" lon="0.11342">
        <ele>1755.5</ele>
        <time>2022-02-09T09:04:34Z</time>
      </trkpt>
      <trkpt lat="42.88293" lon="0.11345">
        <ele>1756.47</ele>
        <time>2022-02-09T09:04:45Z</time>
      </trkpt>
      <trkpt lat="42.88287" lon="0.11358">
        <ele>1757.91</ele>
        <time>2022-02-09T09:04:58Z</time>
      </trkpt>
      <trkpt lat="42.88281" lon="0.11371">
        <ele>1757.91</ele>
        <time>2022-02-09T09:05:09Z</time>
      </trkpt>
      <trkpt lat="42.88279" lon="0.11384">
        <ele>1758.39</ele>
        <time>2022-02-09T09:05:21Z</time>
      </trkpt>
      <trkpt lat="42.88279" lon="0.11398">
        <ele>1760.31</ele>
        <time>2022-02-09T09:05:35Z</time>
      </trkpt>
      <trkpt lat="42.8828" lon="0.11409">
        <ele>1761.75</ele>
        <time>2022-02-09T09:05:48Z</time>
      </trkpt>
      <trkpt lat="42.88279" lon="0.1142">
        <ele>1764.16</ele>
        <time>2022-02-09T09:06:00Z</time>
      </trkpt>
      <trkpt lat="42.88275" lon="0.11429">
        <ele>1766.56</ele>
        <time>2022-02-09T09:06:13Z</time>
      </trkpt>
      <trkpt lat="42.88273" lon="0.11441">
        <ele>1768.48</ele>
        <time>2022-02-09T09:06:28Z</time>
      </trkpt>
      <trkpt lat="42.88272" lon="0.11451">
        <ele>1769.92</ele>
        <time>2022-02-09T09:06:40Z</time>
      </trkpt>
      <trkpt lat="42.88268" lon="0.11465">
        <ele>1772.33</ele>
        <time>2022-02-09T09:06:55Z</time>
      </trkpt>
      <trkpt lat="42.88265" lon="0.11477">
        <ele>1773.29</ele>
        <time>2022-02-09T09:07:08Z</time>
      </trkpt>
      <trkpt lat="42.88263" lon="0.11489">
        <ele>1775.69</ele>
        <time>2022-02-09T09:07:22Z</time>
      </trkpt>
      <trkpt lat="42.8826" lon="0.11503">
        <ele>1777.61</ele>
        <time>2022-02-09T09:07:35Z</time>
      </trkpt>
      <trkpt lat="42.88262" lon="0.11512">
        <ele>1779.54</ele>
        <time>2022-02-09T09:07:48Z</time>
      </trkpt>
      <trkpt lat="42.88267" lon="0.11521">
        <ele>1781.94</ele>
        <time>2022-02-09T09:08:01Z</time>
      </trkpt>
      <trkpt lat="42.88262" lon="0.11533">
        <ele>1783.86</ele>
        <time>2022-02-09T09:08:16Z</time>
      </trkpt>
      <trkpt lat="42.8826" lon="0.11549">
        <ele>1784.82</ele>
        <time>2022-02-09T09:08:28Z</time>
      </trkpt>
      <trkpt lat="42.8826" lon="0.11566">
        <ele>1785.79</ele>
        <time>2022-02-09T09:08:43Z</time>
      </trkpt>
      <trkpt lat="42.8826" lon="0.11569">
        <ele>1785.79</ele>
        <time>2022-02-09T09:08:46Z</time>
      </trkpt>
      <trkpt lat="42.88259" lon="0.11575">
        <ele>1785.79</ele>
        <time>2022-02-09T09:08:50Z</time>
      </trkpt>
      <trkpt lat="42.8826" lon="0.11578">
        <ele>1784.34</ele>
        <time>2022-02-09T09:08:52Z</time>
      </trkpt>
      <trkpt lat="42.88262" lon="0.11591">
        <ele>1785.31</ele>
        <time>2022-02-09T09:09:02Z</time>
      </trkpt>
      <trkpt lat="42.88262" lon="0.11605">
        <ele>1788.19</ele>
        <time>2022-02-09T09:09:17Z</time>
      </trkpt>
      <trkpt lat="42.88257" lon="0.11616">
        <ele>1789.15</ele>
        <time>2022-02-09T09:09:29Z</time>
      </trkpt>
      <trkpt lat="42.88256" lon="0.11631">
        <ele>1791.07</ele>
        <time>2022-02-09T09:09:45Z</time>
      </trkpt>
      <trkpt lat="42.88254" lon="0.11644">
        <ele>1792.52</ele>
        <time>2022-02-09T09:09:58Z</time>
      </trkpt>
      <trkpt lat="42.88252" lon="0.11653">
        <ele>1794.92</ele>
        <time>2022-02-09T09:10:10Z</time>
      </trkpt>
      <trkpt lat="42.88251" lon="0.11667">
        <ele>1795.88</ele>
        <time>2022-02-09T09:10:24Z</time>
      </trkpt>
      <trkpt lat="42.88248" lon="0.1168">
        <ele>1797.32</ele>
        <time>2022-02-09T09:10:37Z</time>
      </trkpt>
      <trkpt lat="42.88245" lon="0.11693">
        <ele>1798.76</ele>
        <time>2022-02-09T09:10:50Z</time>
      </trkpt>
      <trkpt lat="42.88243" lon="0.11705">
        <ele>1800.21</ele>
        <time>2022-02-09T09:11:03Z</time>
      </trkpt>
      <trkpt lat="42.88244" lon="0.11717">
        <ele>1802.13</ele>
        <time>2022-02-09T09:11:16Z</time>
      </trkpt>
      <trkpt lat="42.8824" lon="0.11728">
        <ele>1804.05</ele>
        <time>2022-02-09T09:11:28Z</time>
      </trkpt>
      <trkpt lat="42.88236" lon="0.11738">
        <ele>1805.97</ele>
        <time>2022-02-09T09:11:42Z</time>
      </trkpt>
      <trkpt lat="42.88234" lon="0.11748">
        <ele>1807.42</ele>
        <time>2022-02-09T09:11:52Z</time>
      </trkpt>
      <trkpt lat="42.88229" lon="0.11749">
        <ele>1808.86</ele>
        <time>2022-02-09T09:12:04Z</time>
      </trkpt>
      <trkpt lat="42.88231" lon="0.11755">
        <ele>1810.3</ele>
        <time>2022-02-09T09:12:17Z</time>
      </trkpt>
      <trkpt lat="42.88231" lon="0.1176">
        <ele>1811.26</ele>
        <time>2022-02-09T09:12:28Z</time>
      </trkpt>
      <trkpt lat="42.8823" lon="0.11765">
        <ele>1812.22</ele>
        <time>2022-02-09T09:12:38Z</time>
      </trkpt>
      <trkpt lat="42.88234" lon="0.11762">
        <ele>1812.7</ele>
        <time>2022-02-09T09:12:53Z</time>
      </trkpt>
      <trkpt lat="42.88233" lon="0.11762">
        <ele>1813.18</ele>
        <time>2022-02-09T09:13:08Z</time>
      </trkpt>
      <trkpt lat="42.88232" lon="0.11763">
        <ele>1813.18</ele>
        <time>2022-02-09T09:13:23Z</time>
      </trkpt>
      <trkpt lat="42.8823" lon="0.11764">
        <ele>1813.18</ele>
        <time>2022-02-09T09:13:37Z</time>
      </trkpt>
      <trkpt lat="42.88229" lon="0.11766">
        <ele>1813.66</ele>
        <time>2022-02-09T09:13:54Z</time>
      </trkpt>
      <trkpt lat="42.8823" lon="0.11764">
        <ele>1814.15</ele>
        <time>2022-02-09T09:14:09Z</time>
      </trkpt>
      <trkpt lat="42.88231" lon="0.11766">
        <ele>1814.15</ele>
        <time>2022-02-09T09:14:24Z</time>
      </trkpt>
      <trkpt lat="42.88231" lon="0.11766">
        <ele>1814.63</ele>
        <time>2022-02-09T09:14:40Z</time>
      </trkpt>
      <trkpt lat="42.88229" lon="0.11765">
        <ele>1815.59</ele>
        <time>2022-02-09T09:14:59Z</time>
      </trkpt>
      <trkpt lat="42.88231" lon="0.11768">
        <ele>1816.07</ele>
        <time>2022-02-09T09:15:18Z</time>
      </trkpt>
      <trkpt lat="42.8823" lon="0.11769">
        <ele>1816.55</ele>
        <time>2022-02-09T09:15:32Z</time>
      </trkpt>
      <trkpt lat="42.88227" lon="0.11777">
        <ele>1818.95</ele>
        <time>2022-02-09T09:15:46Z</time>
      </trkpt>
      <trkpt lat="42.88225" lon="0.11789">
        <ele>1821.84</ele>
        <time>2022-02-09T09:16:01Z</time>
      </trkpt>
      <trkpt lat="42.88223" lon="0.11795">
        <ele>1824.24</ele>
        <time>2022-02-09T09:16:16Z</time>
      </trkpt>
      <trkpt lat="42.88223" lon="0.11808">
        <ele>1826.64</ele>
        <time>2022-02-09T09:16:34Z</time>
      </trkpt>
      <trkpt lat="42.88222" lon="0.1182">
        <ele>1829.05</ele>
        <time>2022-02-09T09:16:50Z</time>
      </trkpt>
      <trkpt lat="42.88221" lon="0.11831">
        <ele>1831.93</ele>
        <time>2022-02-09T09:17:07Z</time>
      </trkpt>
      <trkpt lat="42.88222" lon="0.1184">
        <ele>1834.33</ele>
        <time>2022-02-09T09:17:20Z</time>
      </trkpt>
      <trkpt lat="42.88223" lon="0.11845">
        <ele>1834.81</ele>
        <time>2022-02-09T09:17:32Z</time>
      </trkpt>
      <trkpt lat="42.88222" lon="0.11849">
        <ele>1836.26</ele>
        <time>2022-02-09T09:17:46Z</time>
      </trkpt>
      <trkpt lat="42.8822" lon="0.11851">
        <ele>1836.26</ele>
        <time>2022-02-09T09:18:08Z</time>
      </trkpt>
      <trkpt lat="42.8822" lon="0.11864">
        <ele>1838.66</ele>
        <time>2022-02-09T09:18:24Z</time>
      </trkpt>
      <trkpt lat="42.88221" lon="0.11878">
        <ele>1841.06</ele>
        <time>2022-02-09T09:18:38Z</time>
      </trkpt>
      <trkpt lat="42.8822" lon="0.1189">
        <ele>1842.98</ele>
        <time>2022-02-09T09:18:52Z</time>
      </trkpt>
      <trkpt lat="42.88219" lon="0.11902">
        <ele>1845.87</ele>
        <time>2022-02-09T09:19:05Z</time>
      </trkpt>
      <trkpt lat="42.88218" lon="0.11913">
        <ele>1847.31</ele>
        <time>2022-02-09T09:19:18Z</time>
      </trkpt>
      <trkpt lat="42.8822" lon="0.11927">
        <ele>1850.19</ele>
        <time>2022-02-09T09:19:34Z</time>
      </trkpt>
      <trkpt lat="42.88224" lon="0.11937">
        <ele>1852.12</ele>
        <time>2022-02-09T09:19:48Z</time>
      </trkpt>
      <trkpt lat="42.8823" lon="0.11948">
        <ele>1855</ele>
        <time>2022-02-09T09:20:05Z</time>
      </trkpt>
      <trkpt lat="42.88236" lon="0.11957">
        <ele>1856.44</ele>
        <time>2022-02-09T09:20:17Z</time>
      </trkpt>
      <trkpt lat="42.8824" lon="0.11972">
        <ele>1856.92</ele>
        <time>2022-02-09T09:20:31Z</time>
      </trkpt>
      <trkpt lat="42.88242" lon="0.11988">
        <ele>1857.89</ele>
        <time>2022-02-09T09:20:46Z</time>
      </trkpt>
      <trkpt lat="42.88245" lon="0.12001">
        <ele>1859.33</ele>
        <time>2022-02-09T09:21:00Z</time>
      </trkpt>
      <trkpt lat="42.88249" lon="0.12015">
        <ele>1861.73</ele>
        <time>2022-02-09T09:21:14Z</time>
      </trkpt>
      <trkpt lat="42.8825" lon="0.12025">
        <ele>1863.65</ele>
        <time>2022-02-09T09:21:26Z</time>
      </trkpt>
      <trkpt lat="42.88242" lon="0.12037">
        <ele>1866.06</ele>
        <time>2022-02-09T09:21:42Z</time>
      </trkpt>
      <trkpt lat="42.88235" lon="0.1205">
        <ele>1867.98</ele>
        <time>2022-02-09T09:21:57Z</time>
      </trkpt>
      <trkpt lat="42.88235" lon="0.12064">
        <ele>1869.9</ele>
        <time>2022-02-09T09:22:11Z</time>
      </trkpt>
      <trkpt lat="42.88237" lon="0.12077">
        <ele>1871.34</ele>
        <time>2022-02-09T09:22:25Z</time>
      </trkpt>
      <trkpt lat="42.88237" lon="0.12086">
        <ele>1873.75</ele>
        <time>2022-02-09T09:22:39Z</time>
      </trkpt>
      <trkpt lat="42.88229" lon="0.12084">
        <ele>1875.67</ele>
        <time>2022-02-09T09:22:53Z</time>
      </trkpt>
      <trkpt lat="42.88227" lon="0.12093">
        <ele>1877.11</ele>
        <time>2022-02-09T09:23:05Z</time>
      </trkpt>
      <trkpt lat="42.88229" lon="0.12105">
        <ele>1879.03</ele>
        <time>2022-02-09T09:23:23Z</time>
      </trkpt>
      <trkpt lat="42.88235" lon="0.12111">
        <ele>1880.96</ele>
        <time>2022-02-09T09:23:38Z</time>
      </trkpt>
      <trkpt lat="42.88239" lon="0.12119">
        <ele>1882.88</ele>
        <time>2022-02-09T09:23:50Z</time>
      </trkpt>
      <trkpt lat="42.88241" lon="0.12132">
        <ele>1884.32</ele>
        <time>2022-02-09T09:24:05Z</time>
      </trkpt>
      <trkpt lat="42.88241" lon="0.12146">
        <ele>1885.28</ele>
        <time>2022-02-09T09:24:18Z</time>
      </trkpt>
      <trkpt lat="42.88242" lon="0.12161">
        <ele>1886.24</ele>
        <time>2022-02-09T09:24:29Z</time>
      </trkpt>
      <trkpt lat="42.88242" lon="0.12174">
        <ele>1887.21</ele>
        <time>2022-02-09T09:24:39Z</time>
      </trkpt>
      <trkpt lat="42.88235" lon="0.12189">
        <ele>1888.65</ele>
        <time>2022-02-09T09:24:52Z</time>
      </trkpt>
      <trkpt lat="42.88228" lon="0.12197">
        <ele>1889.13</ele>
        <time>2022-02-09T09:25:04Z</time>
      </trkpt>
      <trkpt lat="42.88222" lon="0.12205">
        <ele>1891.05</ele>
        <time>2022-02-09T09:25:17Z</time>
      </trkpt>
      <trkpt lat="42.88216" lon="0.12212">
        <ele>1892.01</ele>
        <time>2022-02-09T09:25:31Z</time>
      </trkpt>
      <trkpt lat="42.88209" lon="0.1222">
        <ele>1893.93</ele>
        <time>2022-02-09T09:25:44Z</time>
      </trkpt>
      <trkpt lat="42.88201" lon="0.12229">
        <ele>1894.42</ele>
        <time>2022-02-09T09:25:56Z</time>
      </trkpt>
      <trkpt lat="42.88192" lon="0.12238">
        <ele>1894.9</ele>
        <time>2022-02-09T09:26:08Z</time>
      </trkpt>
      <trkpt lat="42.88184" lon="0.12246">
        <ele>1895.38</ele>
        <time>2022-02-09T09:26:20Z</time>
      </trkpt>
      <trkpt lat="42.8818" lon="0.12252">
        <ele>1895.86</ele>
        <time>2022-02-09T09:26:28Z</time>
      </trkpt>
      <trkpt lat="42.88175" lon="0.12264">
        <ele>1896.34</ele>
        <time>2022-02-09T09:26:39Z</time>
      </trkpt>
      <trkpt lat="42.8817" lon="0.12275">
        <ele>1896.34</ele>
        <time>2022-02-09T09:26:51Z</time>
      </trkpt>
      <trkpt lat="42.88173" lon="0.12285">
        <ele>1896.34</ele>
        <time>2022-02-09T09:27:02Z</time>
      </trkpt>
      <trkpt lat="42.88169" lon="0.12295">
        <ele>1896.82</ele>
        <time>2022-02-09T09:27:15Z</time>
      </trkpt>
      <trkpt lat="42.88166" lon="0.12307">
        <ele>1896.82</ele>
        <time>2022-02-09T09:27:28Z</time>
      </trkpt>
      <trkpt lat="42.8816" lon="0.12317">
        <ele>1897.78</ele>
        <time>2022-02-09T09:27:43Z</time>
      </trkpt>
      <trkpt lat="42.88157" lon="0.12327">
        <ele>1899.22</ele>
        <time>2022-02-09T09:27:54Z</time>
      </trkpt>
      <trkpt lat="42.88153" lon="0.12335">
        <ele>1899.7</ele>
        <time>2022-02-09T09:28:09Z</time>
      </trkpt>
      <trkpt lat="42.8815" lon="0.12345">
        <ele>1900.18</ele>
        <time>2022-02-09T09:28:21Z</time>
      </trkpt>
      <trkpt lat="42.88149" lon="0.12355">
        <ele>1900.66</ele>
        <time>2022-02-09T09:28:33Z</time>
      </trkpt>
      <trkpt lat="42.8815" lon="0.12372">
        <ele>1901.63</ele>
        <time>2022-02-09T09:28:48Z</time>
      </trkpt>
      <trkpt lat="42.88147" lon="0.1238">
        <ele>1902.11</ele>
        <time>2022-02-09T09:29:01Z</time>
      </trkpt>
      <trkpt lat="42.88146" lon="0.12389">
        <ele>1902.59</ele>
        <time>2022-02-09T09:29:14Z</time>
      </trkpt>
      <trkpt lat="42.88145" lon="0.12394">
        <ele>1902.59</ele>
        <time>2022-02-09T09:29:27Z</time>
      </trkpt>
      <trkpt lat="42.88144" lon="0.12404">
        <ele>1903.07</ele>
        <time>2022-02-09T09:29:41Z</time>
      </trkpt>
      <trkpt lat="42.88144" lon="0.12414">
        <ele>1904.03</ele>
        <time>2022-02-09T09:29:55Z</time>
      </trkpt>
      <trkpt lat="42.88143" lon="0.12424">
        <ele>1904.99</ele>
        <time>2022-02-09T09:30:09Z</time>
      </trkpt>
      <trkpt lat="42.88141" lon="0.12433">
        <ele>1905.95</ele>
        <time>2022-02-09T09:30:22Z</time>
      </trkpt>
      <trkpt lat="42.88137" lon="0.12443">
        <ele>1905.95</ele>
        <time>2022-02-09T09:30:34Z</time>
      </trkpt>
      <trkpt lat="42.88138" lon="0.12455">
        <ele>1905.95</ele>
        <time>2022-02-09T09:30:48Z</time>
      </trkpt>
      <trkpt lat="42.88134" lon="0.12464">
        <ele>1906.91</ele>
        <time>2022-02-09T09:31:01Z</time>
      </trkpt>
      <trkpt lat="42.88132" lon="0.12474">
        <ele>1907.87</ele>
        <time>2022-02-09T09:31:15Z</time>
      </trkpt>
      <trkpt lat="42.88131" lon="0.12489">
        <ele>1908.35</ele>
        <time>2022-02-09T09:31:29Z</time>
      </trkpt>
      <trkpt lat="42.88131" lon="0.12494">
        <ele>1908.35</ele>
        <time>2022-02-09T09:31:33Z</time>
      </trkpt>
      <trkpt lat="42.88135" lon="0.12513">
        <ele>1908.35</ele>
        <time>2022-02-09T09:31:48Z</time>
      </trkpt>
      <trkpt lat="42.88136" lon="0.12527">
        <ele>1910.28</ele>
        <time>2022-02-09T09:32:02Z</time>
      </trkpt>
      <trkpt lat="42.88138" lon="0.12538">
        <ele>1910.28</ele>
        <time>2022-02-09T09:32:13Z</time>
      </trkpt>
      <trkpt lat="42.88141" lon="0.12554">
        <ele>1911.72</ele>
        <time>2022-02-09T09:32:26Z</time>
      </trkpt>
      <trkpt lat="42.88141" lon="0.12569">
        <ele>1912.2</ele>
        <time>2022-02-09T09:32:42Z</time>
      </trkpt>
      <trkpt lat="42.88143" lon="0.12587">
        <ele>1912.2</ele>
        <time>2022-02-09T09:32:57Z</time>
      </trkpt>
      <trkpt lat="42.88143" lon="0.12602">
        <ele>1912.68</ele>
        <time>2022-02-09T09:33:10Z</time>
      </trkpt>
      <trkpt lat="42.88144" lon="0.12615">
        <ele>1913.16</ele>
        <time>2022-02-09T09:33:22Z</time>
      </trkpt>
      <trkpt lat="42.88147" lon="0.12628">
        <ele>1914.12</ele>
        <time>2022-02-09T09:33:34Z</time>
      </trkpt>
      <trkpt lat="42.88149" lon="0.12639">
        <ele>1915.08</ele>
        <time>2022-02-09T09:33:46Z</time>
      </trkpt>
      <trkpt lat="42.88148" lon="0.12652">
        <ele>1915.56</ele>
        <time>2022-02-09T09:34:00Z</time>
      </trkpt>
      <trkpt lat="42.88149" lon="0.12668">
        <ele>1916.53</ele>
        <time>2022-02-09T09:34:15Z</time>
      </trkpt>
      <trkpt lat="42.88149" lon="0.12683">
        <ele>1917.01</ele>
        <time>2022-02-09T09:34:28Z</time>
      </trkpt>
      <trkpt lat="42.88151" lon="0.12697">
        <ele>1917.49</ele>
        <time>2022-02-09T09:34:40Z</time>
      </trkpt>
      <trkpt lat="42.88153" lon="0.1271">
        <ele>1917.49</ele>
        <time>2022-02-09T09:34:51Z</time>
      </trkpt>
      <trkpt lat="42.88154" lon="0.12722">
        <ele>1918.93</ele>
        <time>2022-02-09T09:35:04Z</time>
      </trkpt>
      <trkpt lat="42.88156" lon="0.12727">
        <ele>1918.93</ele>
        <time>2022-02-09T09:35:20Z</time>
      </trkpt>
      <trkpt lat="42.88157" lon="0.1273">
        <ele>1918.93</ele>
        <time>2022-02-09T09:35:42Z</time>
      </trkpt>
      <trkpt lat="42.88158" lon="0.12738">
        <ele>1917.49</ele>
        <time>2022-02-09T09:35:54Z</time>
      </trkpt>
      <trkpt lat="42.8816" lon="0.12748">
        <ele>1917.49</ele>
        <time>2022-02-09T09:36:04Z</time>
      </trkpt>
      <trkpt lat="42.88159" lon="0.12763">
        <ele>1917.49</ele>
        <time>2022-02-09T09:36:18Z</time>
      </trkpt>
      <trkpt lat="42.8816" lon="0.12778">
        <ele>1917.49</ele>
        <time>2022-02-09T09:36:31Z</time>
      </trkpt>
      <trkpt lat="42.88159" lon="0.12791">
        <ele>1917.49</ele>
        <time>2022-02-09T09:36:44Z</time>
      </trkpt>
      <trkpt lat="42.88161" lon="0.12803">
        <ele>1917.01</ele>
        <time>2022-02-09T09:36:57Z</time>
      </trkpt>
      <trkpt lat="42.88165" lon="0.12818">
        <ele>1916.04</ele>
        <time>2022-02-09T09:37:10Z</time>
      </trkpt>
      <trkpt lat="42.88167" lon="0.12829">
        <ele>1916.04</ele>
        <time>2022-02-09T09:37:23Z</time>
      </trkpt>
      <trkpt lat="42.88166" lon="0.12843">
        <ele>1916.04</ele>
        <time>2022-02-09T09:37:37Z</time>
      </trkpt>
      <trkpt lat="42.88166" lon="0.12861">
        <ele>1916.04</ele>
        <time>2022-02-09T09:37:51Z</time>
      </trkpt>
      <trkpt lat="42.88169" lon="0.12877">
        <ele>1917.97</ele>
        <time>2022-02-09T09:38:04Z</time>
      </trkpt>
      <trkpt lat="42.88171" lon="0.12889">
        <ele>1918.45</ele>
        <time>2022-02-09T09:38:13Z</time>
      </trkpt>
      <trkpt lat="42.88172" lon="0.12906">
        <ele>1919.41</ele>
        <time>2022-02-09T09:38:25Z</time>
      </trkpt>
      <trkpt lat="42.88169" lon="0.12918">
        <ele>1920.37</ele>
        <time>2022-02-09T09:38:36Z</time>
      </trkpt>
      <trkpt lat="42.88164" lon="0.12934">
        <ele>1921.33</ele>
        <time>2022-02-09T09:38:47Z</time>
      </trkpt>
      <trkpt lat="42.88162" lon="0.1294">
        <ele>1921.81</ele>
        <time>2022-02-09T09:38:53Z</time>
      </trkpt>
      <trkpt lat="42.88159" lon="0.12946">
        <ele>1921.81</ele>
        <time>2022-02-09T09:39:05Z</time>
      </trkpt>
      <trkpt lat="42.88158" lon="0.12944">
        <ele>1922.29</ele>
        <time>2022-02-09T09:39:21Z</time>
      </trkpt>
      <trkpt lat="42.8816" lon="0.12946">
        <ele>1922.29</ele>
        <time>2022-02-09T09:39:38Z</time>
      </trkpt>
      <trkpt lat="42.88159" lon="0.12958">
        <ele>1922.29</ele>
        <time>2022-02-09T09:39:48Z</time>
      </trkpt>
      <trkpt lat="42.88157" lon="0.12973">
        <ele>1922.77</ele>
        <time>2022-02-09T09:39:58Z</time>
      </trkpt>
      <trkpt lat="42.88154" lon="0.12993">
        <ele>1922.77</ele>
        <time>2022-02-09T09:40:10Z</time>
      </trkpt>
      <trkpt lat="42.88153" lon="0.13009">
        <ele>1922.77</ele>
        <time>2022-02-09T09:40:21Z</time>
      </trkpt>
      <trkpt lat="42.88153" lon="0.13016">
        <ele>1921.33</ele>
        <time>2022-02-09T09:40:25Z</time>
      </trkpt>
      <trkpt lat="42.88154" lon="0.13028">
        <ele>1921.33</ele>
        <time>2022-02-09T09:40:32Z</time>
      </trkpt>
      <trkpt lat="42.88155" lon="0.13032">
        <ele>1921.33</ele>
        <time>2022-02-09T09:40:34Z</time>
      </trkpt>
      <trkpt lat="42.88157" lon="0.13052">
        <ele>1921.33</ele>
        <time>2022-02-09T09:40:47Z</time>
      </trkpt>
      <trkpt lat="42.88158" lon="0.13066">
        <ele>1922.77</ele>
        <time>2022-02-09T09:40:56Z</time>
      </trkpt>
      <trkpt lat="42.88158" lon="0.13071">
        <ele>1922.77</ele>
        <time>2022-02-09T09:40:59Z</time>
      </trkpt>
      <trkpt lat="42.88157" lon="0.13091">
        <ele>1922.77</ele>
        <time>2022-02-09T09:41:12Z</time>
      </trkpt>
      <trkpt lat="42.88155" lon="0.13108">
        <ele>1923.25</ele>
        <time>2022-02-09T09:41:23Z</time>
      </trkpt>
      <trkpt lat="42.88146" lon="0.13122">
        <ele>1924.22</ele>
        <time>2022-02-09T09:41:36Z</time>
      </trkpt>
      <trkpt lat="42.88142" lon="0.13125">
        <ele>1924.22</ele>
        <time>2022-02-09T09:41:40Z</time>
      </trkpt>
      <trkpt lat="42.88132" lon="0.13138">
        <ele>1925.18</ele>
        <time>2022-02-09T09:41:52Z</time>
      </trkpt>
      <trkpt lat="42.88129" lon="0.13151">
        <ele>1925.66</ele>
        <time>2022-02-09T09:42:02Z</time>
      </trkpt>
      <trkpt lat="42.88127" lon="0.13166">
        <ele>1926.62</ele>
        <time>2022-02-09T09:42:14Z</time>
      </trkpt>
      <trkpt lat="42.88126" lon="0.13182">
        <ele>1927.1</ele>
        <time>2022-02-09T09:42:26Z</time>
      </trkpt>
      <trkpt lat="42.88125" lon="0.13196">
        <ele>1928.06</ele>
        <time>2022-02-09T09:42:36Z</time>
      </trkpt>
      <trkpt lat="42.88124" lon="0.13206">
        <ele>1929.02</ele>
        <time>2022-02-09T09:42:46Z</time>
      </trkpt>
      <trkpt lat="42.88127" lon="0.13223">
        <ele>1929.98</ele>
        <time>2022-02-09T09:42:59Z</time>
      </trkpt>
      <trkpt lat="42.88126" lon="0.13238">
        <ele>1931.91</ele>
        <time>2022-02-09T09:43:11Z</time>
      </trkpt>
      <trkpt lat="42.88125" lon="0.13251">
        <ele>1933.35</ele>
        <time>2022-02-09T09:43:23Z</time>
      </trkpt>
      <trkpt lat="42.88121" lon="0.13262">
        <ele>1934.31</ele>
        <time>2022-02-09T09:43:34Z</time>
      </trkpt>
      <trkpt lat="42.88117" lon="0.13273">
        <ele>1934.79</ele>
        <time>2022-02-09T09:43:43Z</time>
      </trkpt>
      <trkpt lat="42.88115" lon="0.13289">
        <ele>1934.79</ele>
        <time>2022-02-09T09:43:54Z</time>
      </trkpt>
      <trkpt lat="42.88114" lon="0.13301">
        <ele>1935.75</ele>
        <time>2022-02-09T09:44:05Z</time>
      </trkpt>
      <trkpt lat="42.8811" lon="0.13315">
        <ele>1936.71</ele>
        <time>2022-02-09T09:44:18Z</time>
      </trkpt>
      <trkpt lat="42.88109" lon="0.13329">
        <ele>1936.71</ele>
        <time>2022-02-09T09:44:28Z</time>
      </trkpt>
      <trkpt lat="42.8811" lon="0.13348">
        <ele>1937.67</ele>
        <time>2022-02-09T09:44:42Z</time>
      </trkpt>
      <trkpt lat="42.8811" lon="0.13354">
        <ele>1937.67</ele>
        <time>2022-02-09T09:44:46Z</time>
      </trkpt>
      <trkpt lat="42.88108" lon="0.1337">
        <ele>1937.67</ele>
        <time>2022-02-09T09:44:55Z</time>
      </trkpt>
      <trkpt lat="42.88107" lon="0.13378">
        <ele>1938.16</ele>
        <time>2022-02-09T09:45:01Z</time>
      </trkpt>
      <trkpt lat="42.88107" lon="0.13389">
        <ele>1938.64</ele>
        <time>2022-02-09T09:45:09Z</time>
      </trkpt>
      <trkpt lat="42.88106" lon="0.13404">
        <ele>1939.6</ele>
        <time>2022-02-09T09:45:19Z</time>
      </trkpt>
      <trkpt lat="42.88106" lon="0.13416">
        <ele>1940.56</ele>
        <time>2022-02-09T09:45:27Z</time>
      </trkpt>
      <trkpt lat="42.88106" lon="0.13433">
        <ele>1941.52</ele>
        <time>2022-02-09T09:45:39Z</time>
      </trkpt>
      <trkpt lat="42.88106" lon="0.13439">
        <ele>1941.52</ele>
        <time>2022-02-09T09:45:43Z</time>
      </trkpt>
      <trkpt lat="42.88106" lon="0.13455">
        <ele>1942.96</ele>
        <time>2022-02-09T09:45:54Z</time>
      </trkpt>
      <trkpt lat="42.88107" lon="0.13469">
        <ele>1943.92</ele>
        <time>2022-02-09T09:46:05Z</time>
      </trkpt>
      <trkpt lat="42.88107" lon="0.13482">
        <ele>1945.36</ele>
        <time>2022-02-09T09:46:17Z</time>
      </trkpt>
      <trkpt lat="42.88107" lon="0.13495">
        <ele>1945.85</ele>
        <time>2022-02-09T09:46:27Z</time>
      </trkpt>
      <trkpt lat="42.88108" lon="0.13511">
        <ele>1946.81</ele>
        <time>2022-02-09T09:46:38Z</time>
      </trkpt>
      <trkpt lat="42.88106" lon="0.13523">
        <ele>1947.29</ele>
        <time>2022-02-09T09:46:50Z</time>
      </trkpt>
      <trkpt lat="42.88104" lon="0.13522">
        <ele>1947.77</ele>
        <time>2022-02-09T09:47:04Z</time>
      </trkpt>
      <trkpt lat="42.88104" lon="0.13522">
        <ele>1948.25</ele>
        <time>2022-02-09T09:47:18Z</time>
      </trkpt>
      <trkpt lat="42.88104" lon="0.13523">
        <ele>1948.25</ele>
        <time>2022-02-09T09:47:34Z</time>
      </trkpt>
      <trkpt lat="42.88104" lon="0.13521">
        <ele>1948.25</ele>
        <time>2022-02-09T09:47:56Z</time>
      </trkpt>
      <trkpt lat="42.88108" lon="0.13524">
        <ele>1947.29</ele>
        <time>2022-02-09T09:48:13Z</time>
      </trkpt>
      <trkpt lat="42.88108" lon="0.13523">
        <ele>1947.29</ele>
        <time>2022-02-09T09:48:26Z</time>
      </trkpt>
      <trkpt lat="42.88108" lon="0.13524">
        <ele>1947.29</ele>
        <time>2022-02-09T09:48:43Z</time>
      </trkpt>
      <trkpt lat="42.88108" lon="0.13526">
        <ele>1945.85</ele>
        <time>2022-02-09T09:49:04Z</time>
      </trkpt>
      <trkpt lat="42.881" lon="0.13524">
        <ele>1947.29</ele>
        <time>2022-02-09T09:49:21Z</time>
      </trkpt>
      <trkpt lat="42.881" lon="0.13525">
        <ele>1946.81</ele>
        <time>2022-02-09T09:49:41Z</time>
      </trkpt>
      <trkpt lat="42.88109" lon="0.13529">
        <ele>1947.29</ele>
        <time>2022-02-09T09:50:01Z</time>
      </trkpt>
      <trkpt lat="42.88107" lon="0.13527">
        <ele>1947.29</ele>
        <time>2022-02-09T09:50:14Z</time>
      </trkpt>
      <trkpt lat="42.88096" lon="0.13518">
        <ele>1947.29</ele>
        <time>2022-02-09T09:50:34Z</time>
      </trkpt>
      <trkpt lat="42.88101" lon="0.1352">
        <ele>1947.29</ele>
        <time>2022-02-09T09:50:56Z</time>
      </trkpt>
      <trkpt lat="42.88106" lon="0.13527">
        <ele>1947.29</ele>
        <time>2022-02-09T09:51:19Z</time>
      </trkpt>
      <trkpt lat="42.88107" lon="0.13525">
        <ele>1947.77</ele>
        <time>2022-02-09T09:51:46Z</time>
      </trkpt>
      <trkpt lat="42.88112" lon="0.13527">
        <ele>1947.77</ele>
        <time>2022-02-09T09:52:14Z</time>
      </trkpt>
      <trkpt lat="42.88109" lon="0.13527">
        <ele>1947.29</ele>
        <time>2022-02-09T09:52:36Z</time>
      </trkpt>
      <trkpt lat="42.88105" lon="0.1353">
        <ele>1948.73</ele>
        <time>2022-02-09T09:52:57Z</time>
      </trkpt>
      <trkpt lat="42.88097" lon="0.13547">
        <ele>1949.69</ele>
        <time>2022-02-09T09:53:13Z</time>
      </trkpt>
      <trkpt lat="42.88095" lon="0.13551">
        <ele>1949.69</ele>
        <time>2022-02-09T09:53:16Z</time>
      </trkpt>
      <trkpt lat="42.88095" lon="0.13571">
        <ele>1950.17</ele>
        <time>2022-02-09T09:53:32Z</time>
      </trkpt>
      <trkpt lat="42.88087" lon="0.13591">
        <ele>1951.61</ele>
        <time>2022-02-09T09:53:49Z</time>
      </trkpt>
      <trkpt lat="42.88081" lon="0.13605">
        <ele>1954.02</ele>
        <time>2022-02-09T09:54:06Z</time>
      </trkpt>
      <trkpt lat="42.88077" lon="0.13611">
        <ele>1955.46</ele>
        <time>2022-02-09T09:54:20Z</time>
      </trkpt>
      <trkpt lat="42.8808" lon="0.13617">
        <ele>1955.46</ele>
        <time>2022-02-09T09:54:37Z</time>
      </trkpt>
      <trkpt lat="42.88081" lon="0.13619">
        <ele>1956.9</ele>
        <time>2022-02-09T09:54:41Z</time>
      </trkpt>
      <trkpt lat="42.88075" lon="0.13631">
        <ele>1959.78</ele>
        <time>2022-02-09T09:54:58Z</time>
      </trkpt>
      <trkpt lat="42.88083" lon="0.1364">
        <ele>1962.19</ele>
        <time>2022-02-09T09:55:15Z</time>
      </trkpt>
      <trkpt lat="42.88074" lon="0.13651">
        <ele>1964.11</ele>
        <time>2022-02-09T09:55:32Z</time>
      </trkpt>
      <trkpt lat="42.8807" lon="0.1366">
        <ele>1966.51</ele>
        <time>2022-02-09T09:55:46Z</time>
      </trkpt>
      <trkpt lat="42.88069" lon="0.13669">
        <ele>1967.96</ele>
        <time>2022-02-09T09:56:01Z</time>
      </trkpt>
      <trkpt lat="42.88066" lon="0.1368">
        <ele>1969.88</ele>
        <time>2022-02-09T09:56:16Z</time>
      </trkpt>
      <trkpt lat="42.88063" lon="0.13687">
        <ele>1972.28</ele>
        <time>2022-02-09T09:56:33Z</time>
      </trkpt>
      <trkpt lat="42.88067" lon="0.13697">
        <ele>1973.24</ele>
        <time>2022-02-09T09:56:49Z</time>
      </trkpt>
      <trkpt lat="42.88071" lon="0.13709">
        <ele>1976.61</ele>
        <time>2022-02-09T09:57:03Z</time>
      </trkpt>
      <trkpt lat="42.88072" lon="0.13719">
        <ele>1979.01</ele>
        <time>2022-02-09T09:57:19Z</time>
      </trkpt>
      <trkpt lat="42.88073" lon="0.13733">
        <ele>1980.93</ele>
        <time>2022-02-09T09:57:37Z</time>
      </trkpt>
      <trkpt lat="42.8807" lon="0.13741">
        <ele>1982.38</ele>
        <time>2022-02-09T09:57:54Z</time>
      </trkpt>
      <trkpt lat="42.88071" lon="0.13752">
        <ele>1984.78</ele>
        <time>2022-02-09T09:58:10Z</time>
      </trkpt>
      <trkpt lat="42.88075" lon="0.13762">
        <ele>1987.66</ele>
        <time>2022-02-09T09:58:29Z</time>
      </trkpt>
      <trkpt lat="42.88078" lon="0.13767">
        <ele>1987.66</ele>
        <time>2022-02-09T09:58:48Z</time>
      </trkpt>
      <trkpt lat="42.88078" lon="0.13768">
        <ele>1988.62</ele>
        <time>2022-02-09T09:58:50Z</time>
      </trkpt>
      <trkpt lat="42.88084" lon="0.13774">
        <ele>1991.03</ele>
        <time>2022-02-09T09:59:09Z</time>
      </trkpt>
      <trkpt lat="42.88084" lon="0.13774">
        <ele>1991.03</ele>
        <time>2022-02-09T09:59:10Z</time>
      </trkpt>
      <trkpt lat="42.88081" lon="0.13777">
        <ele>1992.47</ele>
        <time>2022-02-09T09:59:29Z</time>
      </trkpt>
      <trkpt lat="42.88084" lon="0.1379">
        <ele>1995.83</ele>
        <time>2022-02-09T09:59:46Z</time>
      </trkpt>
      <trkpt lat="42.88085" lon="0.13799">
        <ele>1997.28</ele>
        <time>2022-02-09T10:00:02Z</time>
      </trkpt>
      <trkpt lat="42.88087" lon="0.13811">
        <ele>1999.68</ele>
        <time>2022-02-09T10:00:18Z</time>
      </trkpt>
      <trkpt lat="42.88083" lon="0.13824">
        <ele>2002.08</ele>
        <time>2022-02-09T10:00:35Z</time>
      </trkpt>
      <trkpt lat="42.88079" lon="0.13827">
        <ele>2002.56</ele>
        <time>2022-02-09T10:00:52Z</time>
      </trkpt>
      <trkpt lat="42.88077" lon="0.13826">
        <ele>2004.01</ele>
        <time>2022-02-09T10:01:05Z</time>
      </trkpt>
      <trkpt lat="42.88063" lon="0.13826">
        <ele>2006.41</ele>
        <time>2022-02-09T10:01:23Z</time>
      </trkpt>
      <trkpt lat="42.88054" lon="0.13835">
        <ele>2007.85</ele>
        <time>2022-02-09T10:01:38Z</time>
      </trkpt>
      <trkpt lat="42.88057" lon="0.13839">
        <ele>2010.73</ele>
        <time>2022-02-09T10:01:54Z</time>
      </trkpt>
      <trkpt lat="42.88045" lon="0.13842">
        <ele>2013.14</ele>
        <time>2022-02-09T10:02:13Z</time>
      </trkpt>
      <trkpt lat="42.88043" lon="0.13852">
        <ele>2015.06</ele>
        <time>2022-02-09T10:02:30Z</time>
      </trkpt>
      <trkpt lat="42.88035" lon="0.1385">
        <ele>2016.98</ele>
        <time>2022-02-09T10:02:45Z</time>
      </trkpt>
      <trkpt lat="42.88028" lon="0.13851">
        <ele>2019.87</ele>
        <time>2022-02-09T10:03:04Z</time>
      </trkpt>
      <trkpt lat="42.88023" lon="0.13864">
        <ele>2022.27</ele>
        <time>2022-02-09T10:03:21Z</time>
      </trkpt>
      <trkpt lat="42.88023" lon="0.13864">
        <ele>2022.27</ele>
        <time>2022-02-09T10:03:22Z</time>
      </trkpt>
      <trkpt lat="42.88014" lon="0.13871">
        <ele>2023.71</ele>
        <time>2022-02-09T10:03:39Z</time>
      </trkpt>
      <trkpt lat="42.88012" lon="0.13878">
        <ele>2025.15</ele>
        <time>2022-02-09T10:03:50Z</time>
      </trkpt>
      <trkpt lat="42.8801" lon="0.13885">
        <ele>2026.6</ele>
        <time>2022-02-09T10:04:07Z</time>
      </trkpt>
      <trkpt lat="42.88011" lon="0.13887">
        <ele>2029.48</ele>
        <time>2022-02-09T10:04:11Z</time>
      </trkpt>
      <trkpt lat="42.88013" lon="0.139">
        <ele>2030.92</ele>
        <time>2022-02-09T10:04:28Z</time>
      </trkpt>
      <trkpt lat="42.88014" lon="0.13913">
        <ele>2031.88</ele>
        <time>2022-02-09T10:04:43Z</time>
      </trkpt>
      <trkpt lat="42.88013" lon="0.13925">
        <ele>2034.77</ele>
        <time>2022-02-09T10:04:58Z</time>
      </trkpt>
      <trkpt lat="42.88018" lon="0.13939">
        <ele>2036.21</ele>
        <time>2022-02-09T10:05:15Z</time>
      </trkpt>
      <trkpt lat="42.88017" lon="0.13951">
        <ele>2039.09</ele>
        <time>2022-02-09T10:05:31Z</time>
      </trkpt>
      <trkpt lat="42.88021" lon="0.13963">
        <ele>2041.02</ele>
        <time>2022-02-09T10:05:48Z</time>
      </trkpt>
      <trkpt lat="42.88022" lon="0.13975">
        <ele>2043.42</ele>
        <time>2022-02-09T10:06:05Z</time>
      </trkpt>
      <trkpt lat="42.88029" lon="0.13985">
        <ele>2046.3</ele>
        <time>2022-02-09T10:06:21Z</time>
      </trkpt>
      <trkpt lat="42.88025" lon="0.14">
        <ele>2047.26</ele>
        <time>2022-02-09T10:06:38Z</time>
      </trkpt>
      <trkpt lat="42.88023" lon="0.14005">
        <ele>2048.71</ele>
        <time>2022-02-09T10:06:43Z</time>
      </trkpt>
      <trkpt lat="42.88019" lon="0.14024">
        <ele>2051.11</ele>
        <time>2022-02-09T10:07:02Z</time>
      </trkpt>
      <trkpt lat="42.88013" lon="0.14038">
        <ele>2051.59</ele>
        <time>2022-02-09T10:07:19Z</time>
      </trkpt>
      <trkpt lat="42.8801" lon="0.14042">
        <ele>2054.96</ele>
        <time>2022-02-09T10:07:30Z</time>
      </trkpt>
      <trkpt lat="42.88009" lon="0.14043">
        <ele>2054.96</ele>
        <time>2022-02-09T10:07:47Z</time>
      </trkpt>
      <trkpt lat="42.88008" lon="0.14044">
        <ele>2055.92</ele>
        <time>2022-02-09T10:07:52Z</time>
      </trkpt>
      <trkpt lat="42.88008" lon="0.14045">
        <ele>2055.92</ele>
        <time>2022-02-09T10:08:06Z</time>
      </trkpt>
      <trkpt lat="42.88008" lon="0.14045">
        <ele>2055.92</ele>
        <time>2022-02-09T10:08:24Z</time>
      </trkpt>
      <trkpt lat="42.88006" lon="0.14048">
        <ele>2055.92</ele>
        <time>2022-02-09T10:08:48Z</time>
      </trkpt>
      <trkpt lat="42.88001" lon="0.14062">
        <ele>2057.36</ele>
        <time>2022-02-09T10:09:03Z</time>
      </trkpt>
      <trkpt lat="42.87995" lon="0.1408">
        <ele>2058.32</ele>
        <time>2022-02-09T10:09:18Z</time>
      </trkpt>
      <trkpt lat="42.8799" lon="0.14095">
        <ele>2058.32</ele>
        <time>2022-02-09T10:09:31Z</time>
      </trkpt>
      <trkpt lat="42.87989" lon="0.14097">
        <ele>2058.32</ele>
        <time>2022-02-09T10:09:33Z</time>
      </trkpt>
      <trkpt lat="42.87984" lon="0.14112">
        <ele>2060.72</ele>
        <time>2022-02-09T10:09:45Z</time>
      </trkpt>
      <trkpt lat="42.8798" lon="0.14122">
        <ele>2062.17</ele>
        <time>2022-02-09T10:09:56Z</time>
      </trkpt>
      <trkpt lat="42.87979" lon="0.14136">
        <ele>2062.65</ele>
        <time>2022-02-09T10:10:09Z</time>
      </trkpt>
      <trkpt lat="42.87977" lon="0.14145">
        <ele>2066.01</ele>
        <time>2022-02-09T10:10:17Z</time>
      </trkpt>
      <trkpt lat="42.87981" lon="0.14157">
        <ele>2066.49</ele>
        <time>2022-02-09T10:10:30Z</time>
      </trkpt>
      <trkpt lat="42.87983" lon="0.1417">
        <ele>2068.89</ele>
        <time>2022-02-09T10:10:45Z</time>
      </trkpt>
      <trkpt lat="42.87984" lon="0.14178">
        <ele>2070.82</ele>
        <time>2022-02-09T10:10:57Z</time>
      </trkpt>
      <trkpt lat="42.87986" lon="0.14188">
        <ele>2072.74</ele>
        <time>2022-02-09T10:11:11Z</time>
      </trkpt>
      <trkpt lat="42.87985" lon="0.14197">
        <ele>2074.66</ele>
        <time>2022-02-09T10:11:26Z</time>
      </trkpt>
      <trkpt lat="42.87981" lon="0.14197">
        <ele>2078.03</ele>
        <time>2022-02-09T10:11:36Z</time>
      </trkpt>
      <trkpt lat="42.87972" lon="0.14196">
        <ele>2078.03</ele>
        <time>2022-02-09T10:11:49Z</time>
      </trkpt>
      <trkpt lat="42.87967" lon="0.14208">
        <ele>2079.47</ele>
        <time>2022-02-09T10:12:04Z</time>
      </trkpt>
      <trkpt lat="42.87964" lon="0.14219">
        <ele>2082.35</ele>
        <time>2022-02-09T10:12:17Z</time>
      </trkpt>
      <trkpt lat="42.87962" lon="0.14231">
        <ele>2082.35</ele>
        <time>2022-02-09T10:12:29Z</time>
      </trkpt>
      <trkpt lat="42.87964" lon="0.14245">
        <ele>2084.76</ele>
        <time>2022-02-09T10:12:42Z</time>
      </trkpt>
      <trkpt lat="42.8796" lon="0.14257">
        <ele>2086.2</ele>
        <time>2022-02-09T10:12:54Z</time>
      </trkpt>
      <trkpt lat="42.87959" lon="0.14264">
        <ele>2086.68</ele>
        <time>2022-02-09T10:13:01Z</time>
      </trkpt>
      <trkpt lat="42.87956" lon="0.14276">
        <ele>2087.16</ele>
        <time>2022-02-09T10:13:14Z</time>
      </trkpt>
      <trkpt lat="42.87951" lon="0.14286">
        <ele>2090.04</ele>
        <time>2022-02-09T10:13:24Z</time>
      </trkpt>
      <trkpt lat="42.87948" lon="0.14291">
        <ele>2090.04</ele>
        <time>2022-02-09T10:13:30Z</time>
      </trkpt>
      <trkpt lat="42.87939" lon="0.14286">
        <ele>2090.52</ele>
        <time>2022-02-09T10:13:45Z</time>
      </trkpt>
      <trkpt lat="42.87938" lon="0.14297">
        <ele>2090.52</ele>
        <time>2022-02-09T10:13:58Z</time>
      </trkpt>
      <trkpt lat="42.87936" lon="0.14318">
        <ele>2090.52</ele>
        <time>2022-02-09T10:14:15Z</time>
      </trkpt>
      <trkpt lat="42.87935" lon="0.14334">
        <ele>2091.97</ele>
        <time>2022-02-09T10:14:28Z</time>
      </trkpt>
      <trkpt lat="42.87932" lon="0.14342">
        <ele>2090.52</ele>
        <time>2022-02-09T10:14:39Z</time>
      </trkpt>
      <trkpt lat="42.87929" lon="0.14358">
        <ele>2090.52</ele>
        <time>2022-02-09T10:14:54Z</time>
      </trkpt>
      <trkpt lat="42.87928" lon="0.14361">
        <ele>2089.08</ele>
        <time>2022-02-09T10:15:01Z</time>
      </trkpt>
      <trkpt lat="42.87923" lon="0.14366">
        <ele>2088.6</ele>
        <time>2022-02-09T10:15:12Z</time>
      </trkpt>
      <trkpt lat="42.87922" lon="0.14372">
        <ele>2089.56</ele>
        <time>2022-02-09T10:15:34Z</time>
      </trkpt>
      <trkpt lat="42.8791" lon="0.14386">
        <ele>2091</ele>
        <time>2022-02-09T10:15:50Z</time>
      </trkpt>
      <trkpt lat="42.87905" lon="0.14394">
        <ele>2089.56</ele>
        <time>2022-02-09T10:15:57Z</time>
      </trkpt>
      <trkpt lat="42.87898" lon="0.14402">
        <ele>2090.04</ele>
        <time>2022-02-09T10:16:07Z</time>
      </trkpt>
      <trkpt lat="42.87895" lon="0.1441">
        <ele>2091.97</ele>
        <time>2022-02-09T10:16:14Z</time>
      </trkpt>
      <trkpt lat="42.87893" lon="0.14423">
        <ele>2092.45</ele>
        <time>2022-02-09T10:16:25Z</time>
      </trkpt>
      <trkpt lat="42.8789" lon="0.14437">
        <ele>2093.89</ele>
        <time>2022-02-09T10:16:38Z</time>
      </trkpt>
      <trkpt lat="42.87886" lon="0.14447">
        <ele>2096.29</ele>
        <time>2022-02-09T10:16:52Z</time>
      </trkpt>
      <trkpt lat="42.87878" lon="0.14459">
        <ele>2097.73</ele>
        <time>2022-02-09T10:17:07Z</time>
      </trkpt>
      <trkpt lat="42.87874" lon="0.14469">
        <ele>2097.25</ele>
        <time>2022-02-09T10:17:19Z</time>
      </trkpt>
      <trkpt lat="42.8787" lon="0.14477">
        <ele>2096.29</ele>
        <time>2022-02-09T10:17:32Z</time>
      </trkpt>
      <trkpt lat="42.87869" lon="0.14492">
        <ele>2095.81</ele>
        <time>2022-02-09T10:17:47Z</time>
      </trkpt>
      <trkpt lat="42.87863" lon="0.14504">
        <ele>2095.81</ele>
        <time>2022-02-09T10:18:01Z</time>
      </trkpt>
      <trkpt lat="42.87858" lon="0.14513">
        <ele>2095.33</ele>
        <time>2022-02-09T10:18:15Z</time>
      </trkpt>
      <trkpt lat="42.87855" lon="0.14512">
        <ele>2094.37</ele>
        <time>2022-02-09T10:18:31Z</time>
      </trkpt>
      <trkpt lat="42.87851" lon="0.14517">
        <ele>2092.93</ele>
        <time>2022-02-09T10:18:45Z</time>
      </trkpt>
      <trkpt lat="42.87847" lon="0.14526">
        <ele>2092.45</ele>
        <time>2022-02-09T10:18:56Z</time>
      </trkpt>
      <trkpt lat="42.87842" lon="0.14537">
        <ele>2091</ele>
        <time>2022-02-09T10:19:08Z</time>
      </trkpt>
      <trkpt lat="42.87842" lon="0.14541">
        <ele>2090.04</ele>
        <time>2022-02-09T10:19:24Z</time>
      </trkpt>
      <trkpt lat="42.87836" lon="0.14544">
        <ele>2089.08</ele>
        <time>2022-02-09T10:19:42Z</time>
      </trkpt>
      <trkpt lat="42.87831" lon="0.14548">
        <ele>2087.16</ele>
        <time>2022-02-09T10:19:57Z</time>
      </trkpt>
      <trkpt lat="42.87827" lon="0.14552">
        <ele>2086.2</ele>
        <time>2022-02-09T10:20:07Z</time>
      </trkpt>
      <trkpt lat="42.87822" lon="0.14555">
        <ele>2086.68</ele>
        <time>2022-02-09T10:20:25Z</time>
      </trkpt>
      <trkpt lat="42.87817" lon="0.14559">
        <ele>2085.72</ele>
        <time>2022-02-09T10:20:39Z</time>
      </trkpt>
      <trkpt lat="42.87812" lon="0.14565">
        <ele>2085.72</ele>
        <time>2022-02-09T10:20:57Z</time>
      </trkpt>
      <trkpt lat="42.87806" lon="0.14575">
        <ele>2084.76</ele>
        <time>2022-02-09T10:21:12Z</time>
      </trkpt>
      <trkpt lat="42.87794" lon="0.14582">
        <ele>2084.28</ele>
        <time>2022-02-09T10:21:26Z</time>
      </trkpt>
      <trkpt lat="42.8779" lon="0.14584">
        <ele>2084.28</ele>
        <time>2022-02-09T10:21:30Z</time>
      </trkpt>
      <trkpt lat="42.87783" lon="0.14589">
        <ele>2085.24</ele>
        <time>2022-02-09T10:21:40Z</time>
      </trkpt>
      <trkpt lat="42.87776" lon="0.14593">
        <ele>2086.68</ele>
        <time>2022-02-09T10:21:58Z</time>
      </trkpt>
      <trkpt lat="42.87767" lon="0.14599">
        <ele>2087.64</ele>
        <time>2022-02-09T10:22:12Z</time>
      </trkpt>
      <trkpt lat="42.87755" lon="0.14604">
        <ele>2088.6</ele>
        <time>2022-02-09T10:22:26Z</time>
      </trkpt>
      <trkpt lat="42.87744" lon="0.14609">
        <ele>2089.08</ele>
        <time>2022-02-09T10:22:39Z</time>
      </trkpt>
      <trkpt lat="42.87736" lon="0.14617">
        <ele>2089.56</ele>
        <time>2022-02-09T10:22:50Z</time>
      </trkpt>
      <trkpt lat="42.87729" lon="0.14626">
        <ele>2090.04</ele>
        <time>2022-02-09T10:23:02Z</time>
      </trkpt>
      <trkpt lat="42.87727" lon="0.14629">
        <ele>2091.49</ele>
        <time>2022-02-09T10:23:07Z</time>
      </trkpt>
      <trkpt lat="42.87722" lon="0.14636">
        <ele>2091.97</ele>
        <time>2022-02-09T10:23:19Z</time>
      </trkpt>
      <trkpt lat="42.87715" lon="0.14645">
        <ele>2093.89</ele>
        <time>2022-02-09T10:23:32Z</time>
      </trkpt>
      <trkpt lat="42.87707" lon="0.14651">
        <ele>2094.85</ele>
        <time>2022-02-09T10:23:44Z</time>
      </trkpt>
      <trkpt lat="42.87701" lon="0.14659">
        <ele>2096.29</ele>
        <time>2022-02-09T10:23:56Z</time>
      </trkpt>
      <trkpt lat="42.87692" lon="0.14667">
        <ele>2094.85</ele>
        <time>2022-02-09T10:24:09Z</time>
      </trkpt>
      <trkpt lat="42.87688" lon="0.14675">
        <ele>2097.73</ele>
        <time>2022-02-09T10:24:21Z</time>
      </trkpt>
      <trkpt lat="42.87684" lon="0.14684">
        <ele>2099.18</ele>
        <time>2022-02-09T10:24:33Z</time>
      </trkpt>
      <trkpt lat="42.87678" lon="0.14693">
        <ele>2099.18</ele>
        <time>2022-02-09T10:24:46Z</time>
      </trkpt>
      <trkpt lat="42.87673" lon="0.14701">
        <ele>2098.7</ele>
        <time>2022-02-09T10:24:57Z</time>
      </trkpt>
      <trkpt lat="42.87668" lon="0.1471">
        <ele>2102.06</ele>
        <time>2022-02-09T10:25:09Z</time>
      </trkpt>
      <trkpt lat="42.87665" lon="0.14718">
        <ele>2103.02</ele>
        <time>2022-02-09T10:25:19Z</time>
      </trkpt>
      <trkpt lat="42.87659" lon="0.14728">
        <ele>2103.98</ele>
        <time>2022-02-09T10:25:31Z</time>
      </trkpt>
      <trkpt lat="42.87655" lon="0.14736">
        <ele>2104.46</ele>
        <time>2022-02-09T10:25:43Z</time>
      </trkpt>
      <trkpt lat="42.8765" lon="0.14742">
        <ele>2104.46</ele>
        <time>2022-02-09T10:25:54Z</time>
      </trkpt>
      <trkpt lat="42.87648" lon="0.14746">
        <ele>2105.91</ele>
        <time>2022-02-09T10:26:00Z</time>
      </trkpt>
      <trkpt lat="42.87644" lon="0.14752">
        <ele>2108.31</ele>
        <time>2022-02-09T10:26:13Z</time>
      </trkpt>
      <trkpt lat="42.87638" lon="0.14759">
        <ele>2107.35</ele>
        <time>2022-02-09T10:26:24Z</time>
      </trkpt>
      <trkpt lat="42.87636" lon="0.14761">
        <ele>2110.71</ele>
        <time>2022-02-09T10:26:27Z</time>
      </trkpt>
      <trkpt lat="42.8763" lon="0.14767">
        <ele>2111.19</ele>
        <time>2022-02-09T10:26:39Z</time>
      </trkpt>
      <trkpt lat="42.87625" lon="0.14775">
        <ele>2112.15</ele>
        <time>2022-02-09T10:26:51Z</time>
      </trkpt>
      <trkpt lat="42.87617" lon="0.14785">
        <ele>2113.6</ele>
        <time>2022-02-09T10:27:06Z</time>
      </trkpt>
      <trkpt lat="42.87612" lon="0.14793">
        <ele>2114.08</ele>
        <time>2022-02-09T10:27:16Z</time>
      </trkpt>
      <trkpt lat="42.87606" lon="0.14802">
        <ele>2113.6</ele>
        <time>2022-02-09T10:27:27Z</time>
      </trkpt>
      <trkpt lat="42.87601" lon="0.14812">
        <ele>2116</ele>
        <time>2022-02-09T10:27:38Z</time>
      </trkpt>
      <trkpt lat="42.87594" lon="0.14822">
        <ele>2116.96</ele>
        <time>2022-02-09T10:27:50Z</time>
      </trkpt>
      <trkpt lat="42.87589" lon="0.14831">
        <ele>2116.48</ele>
        <time>2022-02-09T10:28:01Z</time>
      </trkpt>
      <trkpt lat="42.8758" lon="0.14844">
        <ele>2118.88</ele>
        <time>2022-02-09T10:28:15Z</time>
      </trkpt>
      <trkpt lat="42.87575" lon="0.14853">
        <ele>2119.84</ele>
        <time>2022-02-09T10:28:26Z</time>
      </trkpt>
      <trkpt lat="42.87569" lon="0.14864">
        <ele>2120.81</ele>
        <time>2022-02-09T10:28:41Z</time>
      </trkpt>
      <trkpt lat="42.87564" lon="0.14875">
        <ele>2122.73</ele>
        <time>2022-02-09T10:28:54Z</time>
      </trkpt>
      <trkpt lat="42.87559" lon="0.14885">
        <ele>2124.17</ele>
        <time>2022-02-09T10:29:06Z</time>
      </trkpt>
      <trkpt lat="42.87557" lon="0.14894">
        <ele>2125.61</ele>
        <time>2022-02-09T10:29:18Z</time>
      </trkpt>
      <trkpt lat="42.87551" lon="0.14903">
        <ele>2126.57</ele>
        <time>2022-02-09T10:29:29Z</time>
      </trkpt>
      <trkpt lat="42.87546" lon="0.14915">
        <ele>2128.5</ele>
        <time>2022-02-09T10:29:42Z</time>
      </trkpt>
      <trkpt lat="42.87546" lon="0.14916">
        <ele>2128.5</ele>
        <time>2022-02-09T10:29:43Z</time>
      </trkpt>
      <trkpt lat="42.87543" lon="0.14926">
        <ele>2128.98</ele>
        <time>2022-02-09T10:29:55Z</time>
      </trkpt>
      <trkpt lat="42.87538" lon="0.14938">
        <ele>2130.42</ele>
        <time>2022-02-09T10:30:08Z</time>
      </trkpt>
      <trkpt lat="42.87535" lon="0.14949">
        <ele>2130.9</ele>
        <time>2022-02-09T10:30:20Z</time>
      </trkpt>
      <trkpt lat="42.87533" lon="0.14953">
        <ele>2128.98</ele>
        <time>2022-02-09T10:30:39Z</time>
      </trkpt>
      <trkpt lat="42.87537" lon="0.14961">
        <ele>2132.34</ele>
        <time>2022-02-09T10:30:48Z</time>
      </trkpt>
      <trkpt lat="42.87542" lon="0.1497">
        <ele>2131.86</ele>
        <time>2022-02-09T10:31:00Z</time>
      </trkpt>
      <trkpt lat="42.87548" lon="0.14977">
        <ele>2134.26</ele>
        <time>2022-02-09T10:31:11Z</time>
      </trkpt>
      <trkpt lat="42.87555" lon="0.1499">
        <ele>2136.19</ele>
        <time>2022-02-09T10:31:25Z</time>
      </trkpt>
      <trkpt lat="42.87563" lon="0.14998">
        <ele>2136.67</ele>
        <time>2022-02-09T10:31:37Z</time>
      </trkpt>
      <trkpt lat="42.87563" lon="0.15001">
        <ele>2137.15</ele>
        <time>2022-02-09T10:31:49Z</time>
      </trkpt>
      <trkpt lat="42.87561" lon="0.15001">
        <ele>2138.11</ele>
        <time>2022-02-09T10:32:05Z</time>
      </trkpt>
      <trkpt lat="42.87567" lon="0.15004">
        <ele>2138.11</ele>
        <time>2022-02-09T10:32:22Z</time>
      </trkpt>
      <trkpt lat="42.87568" lon="0.14999">
        <ele>2136.67</ele>
        <time>2022-02-09T10:32:33Z</time>
      </trkpt>
      <trkpt lat="42.87565" lon="0.15">
        <ele>2136.67</ele>
        <time>2022-02-09T10:32:45Z</time>
      </trkpt>
      <trkpt lat="42.87567" lon="0.14998">
        <ele>2135.71</ele>
        <time>2022-02-09T10:33:01Z</time>
      </trkpt>
      <trkpt lat="42.87571" lon="0.14996">
        <ele>2135.71</ele>
        <time>2022-02-09T10:33:17Z</time>
      </trkpt>
      <trkpt lat="42.87563" lon="0.14998">
        <ele>2137.63</ele>
        <time>2022-02-09T10:33:35Z</time>
      </trkpt>
      <trkpt lat="42.87562" lon="0.14996">
        <ele>2133.78</ele>
        <time>2022-02-09T10:34:01Z</time>
      </trkpt>
      <trkpt lat="42.87562" lon="0.14997">
        <ele>2138.59</ele>
        <time>2022-02-09T10:34:04Z</time>
      </trkpt>
      <trkpt lat="42.87565" lon="0.14998">
        <ele>2135.71</ele>
        <time>2022-02-09T10:34:25Z</time>
      </trkpt>
      <trkpt lat="42.87562" lon="0.14999">
        <ele>2137.63</ele>
        <time>2022-02-09T10:34:47Z</time>
      </trkpt>
      <trkpt lat="42.87563" lon="0.14998">
        <ele>2137.63</ele>
        <time>2022-02-09T10:35:13Z</time>
      </trkpt>
      <trkpt lat="42.87562" lon="0.14998">
        <ele>2137.63</ele>
        <time>2022-02-09T10:35:31Z</time>
      </trkpt>
      <trkpt lat="42.87561" lon="0.15002">
        <ele>2137.63</ele>
        <time>2022-02-09T10:35:52Z</time>
      </trkpt>
      <trkpt lat="42.87563" lon="0.14998">
        <ele>2138.11</ele>
        <time>2022-02-09T10:36:12Z</time>
      </trkpt>
      <trkpt lat="42.87561" lon="0.15">
        <ele>2138.11</ele>
        <time>2022-02-09T10:36:31Z</time>
      </trkpt>
      <trkpt lat="42.87555" lon="0.15002">
        <ele>2138.11</ele>
        <time>2022-02-09T10:36:52Z</time>
      </trkpt>
      <trkpt lat="42.87552" lon="0.15003">
        <ele>2138.11</ele>
        <time>2022-02-09T10:37:11Z</time>
      </trkpt>
      <trkpt lat="42.87552" lon="0.15006">
        <ele>2138.59</ele>
        <time>2022-02-09T10:37:31Z</time>
      </trkpt>
      <trkpt lat="42.87552" lon="0.15007">
        <ele>2138.59</ele>
        <time>2022-02-09T10:37:45Z</time>
      </trkpt>
      <trkpt lat="42.87558" lon="0.15004">
        <ele>2138.59</ele>
        <time>2022-02-09T10:38:06Z</time>
      </trkpt>
      <trkpt lat="42.87561" lon="0.15001">
        <ele>2138.59</ele>
        <time>2022-02-09T10:38:26Z</time>
      </trkpt>
      <trkpt lat="42.87553" lon="0.15008">
        <ele>2139.55</ele>
        <time>2022-02-09T10:38:39Z</time>
      </trkpt>
      <trkpt lat="42.8756" lon="0.15001">
        <ele>2140.03</ele>
        <time>2022-02-09T10:38:51Z</time>
      </trkpt>
      <trkpt lat="42.8756" lon="0.14995">
        <ele>2139.55</ele>
        <time>2022-02-09T10:39:04Z</time>
      </trkpt>
      <trkpt lat="42.8756" lon="0.14991">
        <ele>2139.55</ele>
        <time>2022-02-09T10:39:29Z</time>
      </trkpt>
      <trkpt lat="42.8756" lon="0.14994">
        <ele>2140.51</ele>
        <time>2022-02-09T10:39:51Z</time>
      </trkpt>
      <trkpt lat="42.87558" lon="0.14993">
        <ele>2140.03</ele>
        <time>2022-02-09T10:40:14Z</time>
      </trkpt>
      <trkpt lat="42.87559" lon="0.14994">
        <ele>2140.03</ele>
        <time>2022-02-09T10:40:34Z</time>
      </trkpt>
      <trkpt lat="42.87562" lon="0.14999">
        <ele>2140.99</ele>
        <time>2022-02-09T10:40:41Z</time>
      </trkpt>
      <trkpt lat="42.87564" lon="0.15002">
        <ele>2140.99</ele>
        <time>2022-02-09T10:40:57Z</time>
      </trkpt>
      <trkpt lat="42.87561" lon="0.15002">
        <ele>2139.55</ele>
        <time>2022-02-09T10:41:10Z</time>
      </trkpt>
      <trkpt lat="42.87561" lon="0.15002">
        <ele>2145.8</ele>
        <time>2022-02-09T10:41:21Z</time>
      </trkpt>
      <trkpt lat="42.87562" lon="0.15003">
        <ele>2141.47</ele>
        <time>2022-02-09T10:41:22Z</time>
      </trkpt>
      <trkpt lat="42.87562" lon="0.15003">
        <ele>2139.55</ele>
        <time>2022-02-09T10:41:41Z</time>
      </trkpt>
      <trkpt lat="42.87561" lon="0.15005">
        <ele>2139.55</ele>
        <time>2022-02-09T10:42:02Z</time>
      </trkpt>
      <trkpt lat="42.87555" lon="0.15007">
        <ele>2140.99</ele>
        <time>2022-02-09T10:42:13Z</time>
      </trkpt>
      <trkpt lat="42.87546" lon="0.15017">
        <ele>2141.47</ele>
        <time>2022-02-09T10:42:24Z</time>
      </trkpt>
      <trkpt lat="42.8754" lon="0.15037">
        <ele>2141.95</ele>
        <time>2022-02-09T10:42:39Z</time>
      </trkpt>
      <trkpt lat="42.87532" lon="0.15051">
        <ele>2141.95</ele>
        <time>2022-02-09T10:42:52Z</time>
      </trkpt>
      <trkpt lat="42.87523" lon="0.15061">
        <ele>2142.44</ele>
        <time>2022-02-09T10:43:04Z</time>
      </trkpt>
      <trkpt lat="42.87514" lon="0.15071">
        <ele>2141.95</ele>
        <time>2022-02-09T10:43:15Z</time>
      </trkpt>
      <trkpt lat="42.87508" lon="0.15077">
        <ele>2141.95</ele>
        <time>2022-02-09T10:43:25Z</time>
      </trkpt>
      <trkpt lat="42.87498" lon="0.15084">
        <ele>2142.92</ele>
        <time>2022-02-09T10:43:36Z</time>
      </trkpt>
      <trkpt lat="42.87496" lon="0.15085">
        <ele>2141.47</ele>
        <time>2022-02-09T10:43:39Z</time>
      </trkpt>
      <trkpt lat="42.87486" lon="0.15088">
        <ele>2143.4</ele>
        <time>2022-02-09T10:43:51Z</time>
      </trkpt>
      <trkpt lat="42.87475" lon="0.1509">
        <ele>2145.8</ele>
        <time>2022-02-09T10:44:07Z</time>
      </trkpt>
      <trkpt lat="42.87468" lon="0.15091">
        <ele>2146.76</ele>
        <time>2022-02-09T10:44:21Z</time>
      </trkpt>
      <trkpt lat="42.87459" lon="0.15094">
        <ele>2146.76</ele>
        <time>2022-02-09T10:44:34Z</time>
      </trkpt>
      <trkpt lat="42.87453" lon="0.151">
        <ele>2149.16</ele>
        <time>2022-02-09T10:44:48Z</time>
      </trkpt>
      <trkpt lat="42.87447" lon="0.15105">
        <ele>2151.09</ele>
        <time>2022-02-09T10:44:58Z</time>
      </trkpt>
      <trkpt lat="42.87441" lon="0.1511">
        <ele>2151.09</ele>
        <time>2022-02-09T10:45:08Z</time>
      </trkpt>
      <trkpt lat="42.87434" lon="0.15119">
        <ele>2151.57</ele>
        <time>2022-02-09T10:45:19Z</time>
      </trkpt>
      <trkpt lat="42.87428" lon="0.15124">
        <ele>2152.05</ele>
        <time>2022-02-09T10:45:29Z</time>
      </trkpt>
      <trkpt lat="42.8742" lon="0.1513">
        <ele>2153.01</ele>
        <time>2022-02-09T10:45:42Z</time>
      </trkpt>
      <trkpt lat="42.87414" lon="0.15137">
        <ele>2153.01</ele>
        <time>2022-02-09T10:45:52Z</time>
      </trkpt>
      <trkpt lat="42.87406" lon="0.15145">
        <ele>2154.45</ele>
        <time>2022-02-09T10:46:06Z</time>
      </trkpt>
      <trkpt lat="42.87401" lon="0.15152">
        <ele>2154.45</ele>
        <time>2022-02-09T10:46:17Z</time>
      </trkpt>
      <trkpt lat="42.87395" lon="0.1516">
        <ele>2155.89</ele>
        <time>2022-02-09T10:46:28Z</time>
      </trkpt>
      <trkpt lat="42.87389" lon="0.15166">
        <ele>2155.89</ele>
        <time>2022-02-09T10:46:40Z</time>
      </trkpt>
      <trkpt lat="42.87381" lon="0.15178">
        <ele>2156.37</ele>
        <time>2022-02-09T10:46:57Z</time>
      </trkpt>
      <trkpt lat="42.87377" lon="0.15185">
        <ele>2157.34</ele>
        <time>2022-02-09T10:47:09Z</time>
      </trkpt>
      <trkpt lat="42.87371" lon="0.15187">
        <ele>2158.78</ele>
        <time>2022-02-09T10:47:22Z</time>
      </trkpt>
      <trkpt lat="42.87366" lon="0.15191">
        <ele>2157.34</ele>
        <time>2022-02-09T10:47:33Z</time>
      </trkpt>
      <trkpt lat="42.87359" lon="0.15196">
        <ele>2159.26</ele>
        <time>2022-02-09T10:47:45Z</time>
      </trkpt>
      <trkpt lat="42.87351" lon="0.152">
        <ele>2159.74</ele>
        <time>2022-02-09T10:47:57Z</time>
      </trkpt>
      <trkpt lat="42.87344" lon="0.15207">
        <ele>2159.74</ele>
        <time>2022-02-09T10:48:10Z</time>
      </trkpt>
      <trkpt lat="42.87337" lon="0.15213">
        <ele>2160.7</ele>
        <time>2022-02-09T10:48:21Z</time>
      </trkpt>
      <trkpt lat="42.87331" lon="0.15219">
        <ele>2160.7</ele>
        <time>2022-02-09T10:48:33Z</time>
      </trkpt>
      <trkpt lat="42.87325" lon="0.15219">
        <ele>2162.14</ele>
        <time>2022-02-09T10:48:40Z</time>
      </trkpt>
      <trkpt lat="42.87315" lon="0.15217">
        <ele>2162.62</ele>
        <time>2022-02-09T10:48:52Z</time>
      </trkpt>
      <trkpt lat="42.87308" lon="0.15215">
        <ele>2165.99</ele>
        <time>2022-02-09T10:49:02Z</time>
      </trkpt>
      <trkpt lat="42.87304" lon="0.15213">
        <ele>2164.06</ele>
        <time>2022-02-09T10:49:13Z</time>
      </trkpt>
      <trkpt lat="42.87299" lon="0.15215">
        <ele>2167.43</ele>
        <time>2022-02-09T10:49:21Z</time>
      </trkpt>
      <trkpt lat="42.87295" lon="0.15219">
        <ele>2168.87</ele>
        <time>2022-02-09T10:49:34Z</time>
      </trkpt>
      <trkpt lat="42.87295" lon="0.15225">
        <ele>2169.35</ele>
        <time>2022-02-09T10:49:39Z</time>
      </trkpt>
      <trkpt lat="42.87295" lon="0.15229">
        <ele>2167.43</ele>
        <time>2022-02-09T10:49:42Z</time>
      </trkpt>
      <trkpt lat="42.87295" lon="0.15231">
        <ele>2169.83</ele>
        <time>2022-02-09T10:49:44Z</time>
      </trkpt>
      <trkpt lat="42.87295" lon="0.15232">
        <ele>2165.99</ele>
        <time>2022-02-09T10:49:47Z</time>
      </trkpt>
      <trkpt lat="42.87295" lon="0.15234">
        <ele>2170.31</ele>
        <time>2022-02-09T10:49:49Z</time>
      </trkpt>
      <trkpt lat="42.87295" lon="0.15235">
        <ele>2168.87</ele>
        <time>2022-02-09T10:49:51Z</time>
      </trkpt>
      <trkpt lat="42.87294" lon="0.15237">
        <ele>2172.24</ele>
        <time>2022-02-09T10:49:54Z</time>
      </trkpt>
      <trkpt lat="42.87294" lon="0.15238">
        <ele>2169.35</ele>
        <time>2022-02-09T10:49:55Z</time>
      </trkpt>
      <trkpt lat="42.87294" lon="0.15237">
        <ele>2171.76</ele>
        <time>2022-02-09T10:50:02Z</time>
      </trkpt>
      <trkpt lat="42.87289" lon="0.15234">
        <ele>2172.24</ele>
        <time>2022-02-09T10:50:15Z</time>
      </trkpt>
      <trkpt lat="42.87283" lon="0.15234">
        <ele>2173.2</ele>
        <time>2022-02-09T10:50:27Z</time>
      </trkpt>
      <trkpt lat="42.87278" lon="0.15238">
        <ele>2176.56</ele>
        <time>2022-02-09T10:50:40Z</time>
      </trkpt>
      <trkpt lat="42.87277" lon="0.1524">
        <ele>2173.68</ele>
        <time>2022-02-09T10:50:44Z</time>
      </trkpt>
      <trkpt lat="42.87277" lon="0.1524">
        <ele>2177.04</ele>
        <time>2022-02-09T10:50:45Z</time>
      </trkpt>
      <trkpt lat="42.87275" lon="0.15242">
        <ele>2177.04</ele>
        <time>2022-02-09T10:50:51Z</time>
      </trkpt>
      <trkpt lat="42.87274" lon="0.15245">
        <ele>2176.08</ele>
        <time>2022-02-09T10:50:55Z</time>
      </trkpt>
      <trkpt lat="42.87272" lon="0.15248">
        <ele>2177.52</ele>
        <time>2022-02-09T10:50:58Z</time>
      </trkpt>
      <trkpt lat="42.87272" lon="0.15248">
        <ele>2176.08</ele>
        <time>2022-02-09T10:51:00Z</time>
      </trkpt>
      <trkpt lat="42.87271" lon="0.1525">
        <ele>2177.52</ele>
        <time>2022-02-09T10:51:03Z</time>
      </trkpt>
      <trkpt lat="42.87268" lon="0.15254">
        <ele>2177.04</ele>
        <time>2022-02-09T10:51:13Z</time>
      </trkpt>
      <trkpt lat="42.87261" lon="0.15259">
        <ele>2178</ele>
        <time>2022-02-09T10:51:25Z</time>
      </trkpt>
      <trkpt lat="42.87255" lon="0.15265">
        <ele>2179.45</ele>
        <time>2022-02-09T10:51:36Z</time>
      </trkpt>
      <trkpt lat="42.87247" lon="0.1527">
        <ele>2179.45</ele>
        <time>2022-02-09T10:51:52Z</time>
      </trkpt>
      <trkpt lat="42.87239" lon="0.1527">
        <ele>2179.93</ele>
        <time>2022-02-09T10:52:05Z</time>
      </trkpt>
      <trkpt lat="42.8723" lon="0.15275">
        <ele>2181.37</ele>
        <time>2022-02-09T10:52:19Z</time>
      </trkpt>
      <trkpt lat="42.87224" lon="0.1528">
        <ele>2181.37</ele>
        <time>2022-02-09T10:52:30Z</time>
      </trkpt>
      <trkpt lat="42.87222" lon="0.15285">
        <ele>2180.89</ele>
        <time>2022-02-09T10:52:39Z</time>
      </trkpt>
      <trkpt lat="42.87222" lon="0.15286">
        <ele>2184.25</ele>
        <time>2022-02-09T10:52:40Z</time>
      </trkpt>
      <trkpt lat="42.87222" lon="0.15288">
        <ele>2183.77</ele>
        <time>2022-02-09T10:52:44Z</time>
      </trkpt>
      <trkpt lat="42.87227" lon="0.15293">
        <ele>2186.18</ele>
        <time>2022-02-09T10:52:58Z</time>
      </trkpt>
      <trkpt lat="42.87223" lon="0.15293">
        <ele>2185.69</ele>
        <time>2022-02-09T10:53:07Z</time>
      </trkpt>
      <trkpt lat="42.87215" lon="0.15292">
        <ele>2185.69</ele>
        <time>2022-02-09T10:53:19Z</time>
      </trkpt>
      <trkpt lat="42.8721" lon="0.15296">
        <ele>2187.62</ele>
        <time>2022-02-09T10:53:32Z</time>
      </trkpt>
      <trkpt lat="42.87207" lon="0.15298">
        <ele>2189.54</ele>
        <time>2022-02-09T10:53:42Z</time>
      </trkpt>
      <trkpt lat="42.87205" lon="0.15303">
        <ele>2190.02</ele>
        <time>2022-02-09T10:53:54Z</time>
      </trkpt>
      <trkpt lat="42.872" lon="0.15304">
        <ele>2190.98</ele>
        <time>2022-02-09T10:54:12Z</time>
      </trkpt>
      <trkpt lat="42.87199" lon="0.15308">
        <ele>2191.94</ele>
        <time>2022-02-09T10:54:24Z</time>
      </trkpt>
      <trkpt lat="42.87195" lon="0.15307">
        <ele>2191.46</ele>
        <time>2022-02-09T10:54:36Z</time>
      </trkpt>
      <trkpt lat="42.87195" lon="0.1531">
        <ele>2196.27</ele>
        <time>2022-02-09T10:54:42Z</time>
      </trkpt>
      <trkpt lat="42.87194" lon="0.15314">
        <ele>2191.94</ele>
        <time>2022-02-09T10:54:48Z</time>
      </trkpt>
      <trkpt lat="42.87194" lon="0.15315">
        <ele>2196.75</ele>
        <time>2022-02-09T10:54:49Z</time>
      </trkpt>
      <trkpt lat="42.87193" lon="0.15318">
        <ele>2193.39</ele>
        <time>2022-02-09T10:54:53Z</time>
      </trkpt>
      <trkpt lat="42.87193" lon="0.15321">
        <ele>2197.23</ele>
        <time>2022-02-09T10:54:57Z</time>
      </trkpt>
      <trkpt lat="42.87191" lon="0.15321">
        <ele>2196.75</ele>
        <time>2022-02-09T10:55:03Z</time>
      </trkpt>
      <trkpt lat="42.87186" lon="0.15321">
        <ele>2197.23</ele>
        <time>2022-02-09T10:55:15Z</time>
      </trkpt>
      <trkpt lat="42.87185" lon="0.15327">
        <ele>2199.15</ele>
        <time>2022-02-09T10:55:23Z</time>
      </trkpt>
      <trkpt lat="42.87185" lon="0.15328">
        <ele>2195.79</ele>
        <time>2022-02-09T10:55:24Z</time>
      </trkpt>
      <trkpt lat="42.87185" lon="0.15329">
        <ele>2200.11</ele>
        <time>2022-02-09T10:55:25Z</time>
      </trkpt>
      <trkpt lat="42.87185" lon="0.15331">
        <ele>2197.23</ele>
        <time>2022-02-09T10:55:29Z</time>
      </trkpt>
      <trkpt lat="42.87186" lon="0.15331">
        <ele>2200.59</ele>
        <time>2022-02-09T10:55:30Z</time>
      </trkpt>
      <trkpt lat="42.87181" lon="0.15335">
        <ele>2200.11</ele>
        <time>2022-02-09T10:55:43Z</time>
      </trkpt>
      <trkpt lat="42.8718" lon="0.15334">
        <ele>2202.04</ele>
        <time>2022-02-09T10:55:48Z</time>
      </trkpt>
      <trkpt lat="42.87177" lon="0.15337">
        <ele>2202.52</ele>
        <time>2022-02-09T10:55:59Z</time>
      </trkpt>
      <trkpt lat="42.87176" lon="0.15345">
        <ele>2202.52</ele>
        <time>2022-02-09T10:56:11Z</time>
      </trkpt>
      <trkpt lat="42.87176" lon="0.15346">
        <ele>2205.4</ele>
        <time>2022-02-09T10:56:13Z</time>
      </trkpt>
      <trkpt lat="42.87171" lon="0.15349">
        <ele>2203.96</ele>
        <time>2022-02-09T10:56:24Z</time>
      </trkpt>
      <trkpt lat="42.8717" lon="0.15349">
        <ele>2205.4</ele>
        <time>2022-02-09T10:56:26Z</time>
      </trkpt>
      <trkpt lat="42.87167" lon="0.15352">
        <ele>2204.44</ele>
        <time>2022-02-09T10:56:37Z</time>
      </trkpt>
      <trkpt lat="42.87167" lon="0.15354">
        <ele>2207.32</ele>
        <time>2022-02-09T10:56:39Z</time>
      </trkpt>
      <trkpt lat="42.87167" lon="0.15355">
        <ele>2203.96</ele>
        <time>2022-02-09T10:56:40Z</time>
      </trkpt>
      <trkpt lat="42.87167" lon="0.15355">
        <ele>2208.77</ele>
        <time>2022-02-09T10:56:41Z</time>
      </trkpt>
      <trkpt lat="42.87167" lon="0.15363">
        <ele>2207.32</ele>
        <time>2022-02-09T10:56:54Z</time>
      </trkpt>
      <trkpt lat="42.87169" lon="0.15363">
        <ele>2209.25</ele>
        <time>2022-02-09T10:56:58Z</time>
      </trkpt>
      <trkpt lat="42.87169" lon="0.15364">
        <ele>2206.36</ele>
        <time>2022-02-09T10:57:00Z</time>
      </trkpt>
      <trkpt lat="42.87169" lon="0.15364">
        <ele>2208.29</ele>
        <time>2022-02-09T10:57:02Z</time>
      </trkpt>
      <trkpt lat="42.87163" lon="0.15365">
        <ele>2209.25</ele>
        <time>2022-02-09T10:57:18Z</time>
      </trkpt>
      <trkpt lat="42.87161" lon="0.15365">
        <ele>2210.21</ele>
        <time>2022-02-09T10:57:27Z</time>
      </trkpt>
      <trkpt lat="42.87158" lon="0.15365">
        <ele>2209.73</ele>
        <time>2022-02-09T10:57:32Z</time>
      </trkpt>
      <trkpt lat="42.87157" lon="0.15364">
        <ele>2211.17</ele>
        <time>2022-02-09T10:57:35Z</time>
      </trkpt>
      <trkpt lat="42.87156" lon="0.15367">
        <ele>2212.13</ele>
        <time>2022-02-09T10:57:41Z</time>
      </trkpt>
      <trkpt lat="42.87157" lon="0.15376">
        <ele>2211.65</ele>
        <time>2022-02-09T10:57:52Z</time>
      </trkpt>
      <trkpt lat="42.87158" lon="0.15379">
        <ele>2214.53</ele>
        <time>2022-02-09T10:57:56Z</time>
      </trkpt>
      <trkpt lat="42.87158" lon="0.15383">
        <ele>2214.53</ele>
        <time>2022-02-09T10:58:02Z</time>
      </trkpt>
      <trkpt lat="42.87159" lon="0.15385">
        <ele>2214.53</ele>
        <time>2022-02-09T10:58:06Z</time>
      </trkpt>
      <trkpt lat="42.87158" lon="0.15388">
        <ele>2215.5</ele>
        <time>2022-02-09T10:58:17Z</time>
      </trkpt>
      <trkpt lat="42.87152" lon="0.1539">
        <ele>2215.5</ele>
        <time>2022-02-09T10:58:29Z</time>
      </trkpt>
      <trkpt lat="42.87152" lon="0.1539">
        <ele>2218.38</ele>
        <time>2022-02-09T10:58:30Z</time>
      </trkpt>
      <trkpt lat="42.8715" lon="0.1539">
        <ele>2215.5</ele>
        <time>2022-02-09T10:58:34Z</time>
      </trkpt>
      <trkpt lat="42.87146" lon="0.15393">
        <ele>2218.38</ele>
        <time>2022-02-09T10:58:45Z</time>
      </trkpt>
      <trkpt lat="42.87142" lon="0.15394">
        <ele>2217.42</ele>
        <time>2022-02-09T10:58:55Z</time>
      </trkpt>
      <trkpt lat="42.8714" lon="0.154">
        <ele>2222.22</ele>
        <time>2022-02-09T10:59:03Z</time>
      </trkpt>
      <trkpt lat="42.87139" lon="0.15404">
        <ele>2218.38</ele>
        <time>2022-02-09T10:59:07Z</time>
      </trkpt>
      <trkpt lat="42.87138" lon="0.15405">
        <ele>2222.22</ele>
        <time>2022-02-09T10:59:08Z</time>
      </trkpt>
      <trkpt lat="42.87137" lon="0.1541">
        <ele>2218.38</ele>
        <time>2022-02-09T10:59:15Z</time>
      </trkpt>
      <trkpt lat="42.87136" lon="0.15411">
        <ele>2222.71</ele>
        <time>2022-02-09T10:59:16Z</time>
      </trkpt>
      <trkpt lat="42.87135" lon="0.15421">
        <ele>2221.74</ele>
        <time>2022-02-09T10:59:30Z</time>
      </trkpt>
      <trkpt lat="42.87135" lon="0.15424">
        <ele>2223.19</ele>
        <time>2022-02-09T10:59:34Z</time>
      </trkpt>
      <trkpt lat="42.87135" lon="0.1543">
        <ele>2224.15</ele>
        <time>2022-02-09T10:59:45Z</time>
      </trkpt>
      <trkpt lat="42.87131" lon="0.15433">
        <ele>2222.71</ele>
        <time>2022-02-09T10:59:57Z</time>
      </trkpt>
      <trkpt lat="42.8713" lon="0.15434">
        <ele>2226.55</ele>
        <time>2022-02-09T11:00:03Z</time>
      </trkpt>
      <trkpt lat="42.87127" lon="0.15437">
        <ele>2226.55</ele>
        <time>2022-02-09T11:00:16Z</time>
      </trkpt>
      <trkpt lat="42.87121" lon="0.15434">
        <ele>2227.99</ele>
        <time>2022-02-09T11:00:28Z</time>
      </trkpt>
      <trkpt lat="42.87118" lon="0.15441">
        <ele>2227.99</ele>
        <time>2022-02-09T11:00:39Z</time>
      </trkpt>
      <trkpt lat="42.87116" lon="0.15449">
        <ele>2231.84</ele>
        <time>2022-02-09T11:00:50Z</time>
      </trkpt>
      <trkpt lat="42.87114" lon="0.15457">
        <ele>2228.47</ele>
        <time>2022-02-09T11:01:01Z</time>
      </trkpt>
      <trkpt lat="42.87114" lon="0.15458">
        <ele>2232.32</ele>
        <time>2022-02-09T11:01:02Z</time>
      </trkpt>
      <trkpt lat="42.87113" lon="0.15465">
        <ele>2231.84</ele>
        <time>2022-02-09T11:01:16Z</time>
      </trkpt>
      <trkpt lat="42.87112" lon="0.15474">
        <ele>2234.72</ele>
        <time>2022-02-09T11:01:30Z</time>
      </trkpt>
      <trkpt lat="42.87111" lon="0.15478">
        <ele>2235.68</ele>
        <time>2022-02-09T11:01:38Z</time>
      </trkpt>
      <trkpt lat="42.8711" lon="0.15479">
        <ele>2235.2</ele>
        <time>2022-02-09T11:01:43Z</time>
      </trkpt>
      <trkpt lat="42.87108" lon="0.15479">
        <ele>2237.13</ele>
        <time>2022-02-09T11:01:53Z</time>
      </trkpt>
      <trkpt lat="42.87101" lon="0.15477">
        <ele>2237.13</ele>
        <time>2022-02-09T11:02:04Z</time>
      </trkpt>
      <trkpt lat="42.87101" lon="0.15476">
        <ele>2239.05</ele>
        <time>2022-02-09T11:02:06Z</time>
      </trkpt>
      <trkpt lat="42.87098" lon="0.15478">
        <ele>2238.09</ele>
        <time>2022-02-09T11:02:15Z</time>
      </trkpt>
      <trkpt lat="42.87099" lon="0.15489">
        <ele>2240.97</ele>
        <time>2022-02-09T11:02:26Z</time>
      </trkpt>
      <trkpt lat="42.87099" lon="0.15489">
        <ele>2237.61</ele>
        <time>2022-02-09T11:02:27Z</time>
      </trkpt>
      <trkpt lat="42.87099" lon="0.1549">
        <ele>2240.97</ele>
        <time>2022-02-09T11:02:28Z</time>
      </trkpt>
      <trkpt lat="42.87103" lon="0.15497">
        <ele>2240.49</ele>
        <time>2022-02-09T11:02:41Z</time>
      </trkpt>
      <trkpt lat="42.871" lon="0.15494">
        <ele>2241.93</ele>
        <time>2022-02-09T11:02:54Z</time>
      </trkpt>
      <trkpt lat="42.87094" lon="0.15494">
        <ele>2242.89</ele>
        <time>2022-02-09T11:03:03Z</time>
      </trkpt>
      <trkpt lat="42.87089" lon="0.15493">
        <ele>2241.93</ele>
        <time>2022-02-09T11:03:15Z</time>
      </trkpt>
      <trkpt lat="42.87089" lon="0.15499">
        <ele>2245.3</ele>
        <time>2022-02-09T11:03:23Z</time>
      </trkpt>
      <trkpt lat="42.8709" lon="0.15504">
        <ele>2242.41</ele>
        <time>2022-02-09T11:03:28Z</time>
      </trkpt>
      <trkpt lat="42.87089" lon="0.15505">
        <ele>2246.26</ele>
        <time>2022-02-09T11:03:29Z</time>
      </trkpt>
      <trkpt lat="42.87092" lon="0.15509">
        <ele>2243.37</ele>
        <time>2022-02-09T11:03:35Z</time>
      </trkpt>
      <trkpt lat="42.87092" lon="0.1551">
        <ele>2247.22</ele>
        <time>2022-02-09T11:03:36Z</time>
      </trkpt>
      <trkpt lat="42.87093" lon="0.15512">
        <ele>2243.85</ele>
        <time>2022-02-09T11:03:40Z</time>
      </trkpt>
      <trkpt lat="42.87093" lon="0.15513">
        <ele>2247.22</ele>
        <time>2022-02-09T11:03:41Z</time>
      </trkpt>
      <trkpt lat="42.87098" lon="0.15518">
        <ele>2248.66</ele>
        <time>2022-02-09T11:03:53Z</time>
      </trkpt>
      <trkpt lat="42.87099" lon="0.15521">
        <ele>2249.14</ele>
        <time>2022-02-09T11:04:04Z</time>
      </trkpt>
      <trkpt lat="42.87092" lon="0.15523">
        <ele>2248.66</ele>
        <time>2022-02-09T11:04:15Z</time>
      </trkpt>
      <trkpt lat="42.87091" lon="0.15522">
        <ele>2250.1</ele>
        <time>2022-02-09T11:04:17Z</time>
      </trkpt>
      <trkpt lat="42.87087" lon="0.15524">
        <ele>2251.06</ele>
        <time>2022-02-09T11:04:27Z</time>
      </trkpt>
      <trkpt lat="42.87082" lon="0.15526">
        <ele>2252.03</ele>
        <time>2022-02-09T11:04:38Z</time>
      </trkpt>
      <trkpt lat="42.87076" lon="0.15527">
        <ele>2251.54</ele>
        <time>2022-02-09T11:04:51Z</time>
      </trkpt>
      <trkpt lat="42.8707" lon="0.15527">
        <ele>2254.43</ele>
        <time>2022-02-09T11:05:04Z</time>
      </trkpt>
      <trkpt lat="42.87065" lon="0.15525">
        <ele>2254.91</ele>
        <time>2022-02-09T11:05:16Z</time>
      </trkpt>
      <trkpt lat="42.87063" lon="0.15532">
        <ele>2256.35</ele>
        <time>2022-02-09T11:05:28Z</time>
      </trkpt>
      <trkpt lat="42.87064" lon="0.15542">
        <ele>2256.35</ele>
        <time>2022-02-09T11:05:39Z</time>
      </trkpt>
      <trkpt lat="42.87066" lon="0.1555">
        <ele>2256.35</ele>
        <time>2022-02-09T11:05:50Z</time>
      </trkpt>
      <trkpt lat="42.87067" lon="0.15551">
        <ele>2258.27</ele>
        <time>2022-02-09T11:05:53Z</time>
      </trkpt>
      <trkpt lat="42.87068" lon="0.15558">
        <ele>2258.75</ele>
        <time>2022-02-09T11:06:05Z</time>
      </trkpt>
      <trkpt lat="42.87069" lon="0.15565">
        <ele>2258.27</ele>
        <time>2022-02-09T11:06:18Z</time>
      </trkpt>
      <trkpt lat="42.87069" lon="0.15566">
        <ele>2261.16</ele>
        <time>2022-02-09T11:06:20Z</time>
      </trkpt>
      <trkpt lat="42.8707" lon="0.15567">
        <ele>2258.27</ele>
        <time>2022-02-09T11:06:21Z</time>
      </trkpt>
      <trkpt lat="42.8707" lon="0.15567">
        <ele>2261.64</ele>
        <time>2022-02-09T11:06:22Z</time>
      </trkpt>
      <trkpt lat="42.87073" lon="0.15572">
        <ele>2260.68</ele>
        <time>2022-02-09T11:06:34Z</time>
      </trkpt>
      <trkpt lat="42.87077" lon="0.15577">
        <ele>2261.64</ele>
        <time>2022-02-09T11:06:50Z</time>
      </trkpt>
      <trkpt lat="42.87079" lon="0.15582">
        <ele>2265</ele>
        <time>2022-02-09T11:07:00Z</time>
      </trkpt>
      <trkpt lat="42.87082" lon="0.15584">
        <ele>2261.16</ele>
        <time>2022-02-09T11:07:06Z</time>
      </trkpt>
      <trkpt lat="42.87082" lon="0.15584">
        <ele>2265.48</ele>
        <time>2022-02-09T11:07:07Z</time>
      </trkpt>
      <trkpt lat="42.87083" lon="0.15586">
        <ele>2262.12</ele>
        <time>2022-02-09T11:07:11Z</time>
      </trkpt>
      <trkpt lat="42.87084" lon="0.15585">
        <ele>2266.45</ele>
        <time>2022-02-09T11:07:12Z</time>
      </trkpt>
      <trkpt lat="42.87086" lon="0.15588">
        <ele>2262.6</ele>
        <time>2022-02-09T11:07:19Z</time>
      </trkpt>
      <trkpt lat="42.87086" lon="0.15588">
        <ele>2266.93</ele>
        <time>2022-02-09T11:07:20Z</time>
      </trkpt>
      <trkpt lat="42.87089" lon="0.15591">
        <ele>2264.04</ele>
        <time>2022-02-09T11:07:31Z</time>
      </trkpt>
      <trkpt lat="42.87089" lon="0.15591">
        <ele>2267.89</ele>
        <time>2022-02-09T11:07:32Z</time>
      </trkpt>
      <trkpt lat="42.87091" lon="0.15592">
        <ele>2264.52</ele>
        <time>2022-02-09T11:07:36Z</time>
      </trkpt>
      <trkpt lat="42.87091" lon="0.15593">
        <ele>2268.37</ele>
        <time>2022-02-09T11:07:37Z</time>
      </trkpt>
      <trkpt lat="42.87092" lon="0.15594">
        <ele>2266.93</ele>
        <time>2022-02-09T11:07:42Z</time>
      </trkpt>
      <trkpt lat="42.87096" lon="0.15598">
        <ele>2267.89</ele>
        <time>2022-02-09T11:07:58Z</time>
      </trkpt>
      <trkpt lat="42.87096" lon="0.15599">
        <ele>2269.33</ele>
        <time>2022-02-09T11:08:09Z</time>
      </trkpt>
      <trkpt lat="42.87095" lon="0.156">
        <ele>2271.25</ele>
        <time>2022-02-09T11:08:15Z</time>
      </trkpt>
      <trkpt lat="42.87089" lon="0.15602">
        <ele>2271.73</ele>
        <time>2022-02-09T11:08:27Z</time>
      </trkpt>
      <trkpt lat="42.87083" lon="0.15605">
        <ele>2273.17</ele>
        <time>2022-02-09T11:08:38Z</time>
      </trkpt>
      <trkpt lat="42.8708" lon="0.15608">
        <ele>2274.14</ele>
        <time>2022-02-09T11:08:50Z</time>
      </trkpt>
      <trkpt lat="42.87081" lon="0.15608">
        <ele>2272.69</ele>
        <time>2022-02-09T11:08:52Z</time>
      </trkpt>
      <trkpt lat="42.8708" lon="0.1561">
        <ele>2274.62</ele>
        <time>2022-02-09T11:08:55Z</time>
      </trkpt>
      <trkpt lat="42.87074" lon="0.15614">
        <ele>2273.66</ele>
        <time>2022-02-09T11:09:06Z</time>
      </trkpt>
      <trkpt lat="42.87068" lon="0.15615">
        <ele>2277.02</ele>
        <time>2022-02-09T11:09:16Z</time>
      </trkpt>
      <trkpt lat="42.87067" lon="0.15615">
        <ele>2277.02</ele>
        <time>2022-02-09T11:09:17Z</time>
      </trkpt>
      <trkpt lat="42.87067" lon="0.15616">
        <ele>2275.58</ele>
        <time>2022-02-09T11:09:19Z</time>
      </trkpt>
      <trkpt lat="42.87064" lon="0.15618">
        <ele>2277.5</ele>
        <time>2022-02-09T11:09:27Z</time>
      </trkpt>
      <trkpt lat="42.87059" lon="0.15621">
        <ele>2276.06</ele>
        <time>2022-02-09T11:09:40Z</time>
      </trkpt>
      <trkpt lat="42.87059" lon="0.15621">
        <ele>2279.42</ele>
        <time>2022-02-09T11:09:41Z</time>
      </trkpt>
      <trkpt lat="42.87059" lon="0.15622">
        <ele>2279.42</ele>
        <time>2022-02-09T11:09:45Z</time>
      </trkpt>
      <trkpt lat="42.87058" lon="0.15623">
        <ele>2277.98</ele>
        <time>2022-02-09T11:09:47Z</time>
      </trkpt>
      <trkpt lat="42.87056" lon="0.15623">
        <ele>2279.42</ele>
        <time>2022-02-09T11:09:50Z</time>
      </trkpt>
      <trkpt lat="42.87053" lon="0.15625">
        <ele>2280.38</ele>
        <time>2022-02-09T11:10:03Z</time>
      </trkpt>
      <trkpt lat="42.87048" lon="0.15627">
        <ele>2280.87</ele>
        <time>2022-02-09T11:10:16Z</time>
      </trkpt>
      <trkpt lat="42.87048" lon="0.15628">
        <ele>2282.31</ele>
        <time>2022-02-09T11:10:19Z</time>
      </trkpt>
      <trkpt lat="42.87044" lon="0.15628">
        <ele>2283.75</ele>
        <time>2022-02-09T11:10:30Z</time>
      </trkpt>
      <trkpt lat="42.87039" lon="0.1563">
        <ele>2284.71</ele>
        <time>2022-02-09T11:10:44Z</time>
      </trkpt>
      <trkpt lat="42.87038" lon="0.1563">
        <ele>2284.71</ele>
        <time>2022-02-09T11:10:51Z</time>
      </trkpt>
      <trkpt lat="42.87033" lon="0.15632">
        <ele>2286.15</ele>
        <time>2022-02-09T11:11:02Z</time>
      </trkpt>
      <trkpt lat="42.87032" lon="0.15634">
        <ele>2286.63</ele>
        <time>2022-02-09T11:11:20Z</time>
      </trkpt>
      <trkpt lat="42.8703" lon="0.15634">
        <ele>2287.11</ele>
        <time>2022-02-09T11:11:26Z</time>
      </trkpt>
      <trkpt lat="42.87029" lon="0.15634">
        <ele>2287.11</ele>
        <time>2022-02-09T11:11:39Z</time>
      </trkpt>
      <trkpt lat="42.87029" lon="0.15634">
        <ele>2286.15</ele>
        <time>2022-02-09T11:11:41Z</time>
      </trkpt>
      <trkpt lat="42.87032" lon="0.1564">
        <ele>2290</ele>
        <time>2022-02-09T11:11:54Z</time>
      </trkpt>
      <trkpt lat="42.87034" lon="0.15643">
        <ele>2285.67</ele>
        <time>2022-02-09T11:11:58Z</time>
      </trkpt>
      <trkpt lat="42.87035" lon="0.15644">
        <ele>2290</ele>
        <time>2022-02-09T11:11:59Z</time>
      </trkpt>
      <trkpt lat="42.87036" lon="0.15646">
        <ele>2286.63</ele>
        <time>2022-02-09T11:12:04Z</time>
      </trkpt>
      <trkpt lat="42.87037" lon="0.1565">
        <ele>2289.52</ele>
        <time>2022-02-09T11:12:12Z</time>
      </trkpt>
      <trkpt lat="42.87033" lon="0.15644">
        <ele>2289.52</ele>
        <time>2022-02-09T11:12:27Z</time>
      </trkpt>
      <trkpt lat="42.87032" lon="0.15642">
        <ele>2289.52</ele>
        <time>2022-02-09T11:12:40Z</time>
      </trkpt>
      <trkpt lat="42.87032" lon="0.15641">
        <ele>2288.56</ele>
        <time>2022-02-09T11:12:46Z</time>
      </trkpt>
      <trkpt lat="42.87027" lon="0.15641">
        <ele>2290</ele>
        <time>2022-02-09T11:12:57Z</time>
      </trkpt>
      <trkpt lat="42.87026" lon="0.15647">
        <ele>2290</ele>
        <time>2022-02-09T11:13:09Z</time>
      </trkpt>
      <trkpt lat="42.8703" lon="0.15654">
        <ele>2293.36</ele>
        <time>2022-02-09T11:13:19Z</time>
      </trkpt>
      <trkpt lat="42.87031" lon="0.15654">
        <ele>2290.48</ele>
        <time>2022-02-09T11:13:20Z</time>
      </trkpt>
      <trkpt lat="42.87032" lon="0.15656">
        <ele>2293.84</ele>
        <time>2022-02-09T11:13:24Z</time>
      </trkpt>
      <trkpt lat="42.87033" lon="0.15656">
        <ele>2291.92</ele>
        <time>2022-02-09T11:13:27Z</time>
      </trkpt>
      <trkpt lat="42.87028" lon="0.15655">
        <ele>2291.92</ele>
        <time>2022-02-09T11:13:40Z</time>
      </trkpt>
      <trkpt lat="42.87027" lon="0.15654">
        <ele>2293.36</ele>
        <time>2022-02-09T11:13:47Z</time>
      </trkpt>
      <trkpt lat="42.87019" lon="0.15652">
        <ele>2295.28</ele>
        <time>2022-02-09T11:14:02Z</time>
      </trkpt>
      <trkpt lat="42.87012" lon="0.15656">
        <ele>2294.8</ele>
        <time>2022-02-09T11:14:15Z</time>
      </trkpt>
      <trkpt lat="42.8701" lon="0.15657">
        <ele>2296.73</ele>
        <time>2022-02-09T11:14:20Z</time>
      </trkpt>
      <trkpt lat="42.8701" lon="0.1566">
        <ele>2296.73</ele>
        <time>2022-02-09T11:14:33Z</time>
      </trkpt>
      <trkpt lat="42.87009" lon="0.1566">
        <ele>2297.69</ele>
        <time>2022-02-09T11:14:48Z</time>
      </trkpt>
      <trkpt lat="42.87006" lon="0.15663">
        <ele>2298.17</ele>
        <time>2022-02-09T11:14:59Z</time>
      </trkpt>
      <trkpt lat="42.87006" lon="0.15665">
        <ele>2299.13</ele>
        <time>2022-02-09T11:15:14Z</time>
      </trkpt>
      <trkpt lat="42.87003" lon="0.15667">
        <ele>2300.09</ele>
        <time>2022-02-09T11:15:28Z</time>
      </trkpt>
      <trkpt lat="42.86997" lon="0.15671">
        <ele>2299.61</ele>
        <time>2022-02-09T11:15:40Z</time>
      </trkpt>
      <trkpt lat="42.86994" lon="0.15672">
        <ele>2302.01</ele>
        <time>2022-02-09T11:15:45Z</time>
      </trkpt>
      <trkpt lat="42.86988" lon="0.15673">
        <ele>2303.46</ele>
        <time>2022-02-09T11:15:55Z</time>
      </trkpt>
      <trkpt lat="42.86984" lon="0.15674">
        <ele>2302.98</ele>
        <time>2022-02-09T11:16:04Z</time>
      </trkpt>
      <trkpt lat="42.86977" lon="0.15679">
        <ele>2304.42</ele>
        <time>2022-02-09T11:16:16Z</time>
      </trkpt>
      <trkpt lat="42.86972" lon="0.15684">
        <ele>2304.9</ele>
        <time>2022-02-09T11:16:27Z</time>
      </trkpt>
      <trkpt lat="42.86968" lon="0.15686">
        <ele>2305.86</ele>
        <time>2022-02-09T11:16:42Z</time>
      </trkpt>
      <trkpt lat="42.86974" lon="0.15684">
        <ele>2305.86</ele>
        <time>2022-02-09T11:17:06Z</time>
      </trkpt>
      <trkpt lat="42.86973" lon="0.15687">
        <ele>2305.86</ele>
        <time>2022-02-09T11:17:25Z</time>
      </trkpt>
      <trkpt lat="42.86975" lon="0.15689">
        <ele>2305.86</ele>
        <time>2022-02-09T11:17:50Z</time>
      </trkpt>
      <trkpt lat="42.86971" lon="0.15688">
        <ele>2305.86</ele>
        <time>2022-02-09T11:18:12Z</time>
      </trkpt>
      <trkpt lat="42.86968" lon="0.15691">
        <ele>2307.78</ele>
        <time>2022-02-09T11:18:27Z</time>
      </trkpt>
      <trkpt lat="42.86968" lon="0.15691">
        <ele>2306.34</ele>
        <time>2022-02-09T11:18:29Z</time>
      </trkpt>
      <trkpt lat="42.86962" lon="0.157">
        <ele>2308.26</ele>
        <time>2022-02-09T11:18:43Z</time>
      </trkpt>
      <trkpt lat="42.86956" lon="0.15708">
        <ele>2309.7</ele>
        <time>2022-02-09T11:18:56Z</time>
      </trkpt>
      <trkpt lat="42.86951" lon="0.15716">
        <ele>2310.67</ele>
        <time>2022-02-09T11:19:07Z</time>
      </trkpt>
      <trkpt lat="42.86947" lon="0.15725">
        <ele>2309.7</ele>
        <time>2022-02-09T11:19:20Z</time>
      </trkpt>
      <trkpt lat="42.86943" lon="0.15732">
        <ele>2313.07</ele>
        <time>2022-02-09T11:19:32Z</time>
      </trkpt>
      <trkpt lat="42.86937" lon="0.1574">
        <ele>2313.55</ele>
        <time>2022-02-09T11:19:46Z</time>
      </trkpt>
      <trkpt lat="42.86935" lon="0.15742">
        <ele>2314.99</ele>
        <time>2022-02-09T11:19:52Z</time>
      </trkpt>
      <trkpt lat="42.86929" lon="0.15747">
        <ele>2313.55</ele>
        <time>2022-02-09T11:20:05Z</time>
      </trkpt>
      <trkpt lat="42.86929" lon="0.15747">
        <ele>2317.4</ele>
        <time>2022-02-09T11:20:06Z</time>
      </trkpt>
      <trkpt lat="42.86925" lon="0.1575">
        <ele>2314.03</ele>
        <time>2022-02-09T11:20:14Z</time>
      </trkpt>
      <trkpt lat="42.86924" lon="0.1575">
        <ele>2319.32</ele>
        <time>2022-02-09T11:20:15Z</time>
      </trkpt>
      <trkpt lat="42.86923" lon="0.15752">
        <ele>2315.47</ele>
        <time>2022-02-09T11:20:19Z</time>
      </trkpt>
      <trkpt lat="42.86922" lon="0.15752">
        <ele>2319.32</ele>
        <time>2022-02-09T11:20:20Z</time>
      </trkpt>
      <trkpt lat="42.86921" lon="0.15754">
        <ele>2318.84</ele>
        <time>2022-02-09T11:20:26Z</time>
      </trkpt>
      <trkpt lat="42.86916" lon="0.15758">
        <ele>2317.4</ele>
        <time>2022-02-09T11:20:37Z</time>
      </trkpt>
      <trkpt lat="42.86916" lon="0.15759">
        <ele>2320.76</ele>
        <time>2022-02-09T11:20:38Z</time>
      </trkpt>
      <trkpt lat="42.86917" lon="0.15766">
        <ele>2321.24</ele>
        <time>2022-02-09T11:20:48Z</time>
      </trkpt>
      <trkpt lat="42.86917" lon="0.15767">
        <ele>2317.88</ele>
        <time>2022-02-09T11:20:49Z</time>
      </trkpt>
      <trkpt lat="42.86918" lon="0.15767">
        <ele>2322.2</ele>
        <time>2022-02-09T11:20:50Z</time>
      </trkpt>
      <trkpt lat="42.86919" lon="0.1577">
        <ele>2321.24</ele>
        <time>2022-02-09T11:20:54Z</time>
      </trkpt>
      <trkpt lat="42.86922" lon="0.15778">
        <ele>2323.16</ele>
        <time>2022-02-09T11:21:09Z</time>
      </trkpt>
      <trkpt lat="42.86926" lon="0.15783">
        <ele>2326.53</ele>
        <time>2022-02-09T11:21:20Z</time>
      </trkpt>
      <trkpt lat="42.86927" lon="0.15784">
        <ele>2321.24</ele>
        <time>2022-02-09T11:21:22Z</time>
      </trkpt>
      <trkpt lat="42.86927" lon="0.15785">
        <ele>2325.09</ele>
        <time>2022-02-09T11:21:23Z</time>
      </trkpt>
      <trkpt lat="42.86932" lon="0.15787">
        <ele>2322.2</ele>
        <time>2022-02-09T11:21:32Z</time>
      </trkpt>
      <trkpt lat="42.86932" lon="0.15787">
        <ele>2327.49</ele>
        <time>2022-02-09T11:21:33Z</time>
      </trkpt>
      <trkpt lat="42.86933" lon="0.15788">
        <ele>2323.64</ele>
        <time>2022-02-09T11:21:35Z</time>
      </trkpt>
      <trkpt lat="42.86935" lon="0.15788">
        <ele>2327.01</ele>
        <time>2022-02-09T11:21:41Z</time>
      </trkpt>
      <trkpt lat="42.86936" lon="0.15788">
        <ele>2323.16</ele>
        <time>2022-02-09T11:21:43Z</time>
      </trkpt>
      <trkpt lat="42.86936" lon="0.15788">
        <ele>2328.45</ele>
        <time>2022-02-09T11:21:44Z</time>
      </trkpt>
      <trkpt lat="42.86937" lon="0.15788">
        <ele>2324.12</ele>
        <time>2022-02-09T11:21:46Z</time>
      </trkpt>
      <trkpt lat="42.86937" lon="0.15789">
        <ele>2325.09</ele>
        <time>2022-02-09T11:21:47Z</time>
      </trkpt>
      <trkpt lat="42.8693" lon="0.15792">
        <ele>2328.45</ele>
        <time>2022-02-09T11:22:02Z</time>
      </trkpt>
      <trkpt lat="42.86929" lon="0.15792">
        <ele>2328.45</ele>
        <time>2022-02-09T11:22:03Z</time>
      </trkpt>
      <trkpt lat="42.86924" lon="0.15795">
        <ele>2329.41</ele>
        <time>2022-02-09T11:22:15Z</time>
      </trkpt>
      <trkpt lat="42.86924" lon="0.15796">
        <ele>2329.41</ele>
        <time>2022-02-09T11:22:16Z</time>
      </trkpt>
      <trkpt lat="42.8692" lon="0.158">
        <ele>2330.85</ele>
        <time>2022-02-09T11:22:27Z</time>
      </trkpt>
      <trkpt lat="42.8692" lon="0.15801">
        <ele>2330.85</ele>
        <time>2022-02-09T11:22:28Z</time>
      </trkpt>
      <trkpt lat="42.86916" lon="0.15806">
        <ele>2331.33</ele>
        <time>2022-02-09T11:22:40Z</time>
      </trkpt>
      <trkpt lat="42.86913" lon="0.15811">
        <ele>2332.78</ele>
        <time>2022-02-09T11:22:50Z</time>
      </trkpt>
      <trkpt lat="42.86911" lon="0.15816">
        <ele>2334.22</ele>
        <time>2022-02-09T11:23:02Z</time>
      </trkpt>
      <trkpt lat="42.86909" lon="0.15819">
        <ele>2332.78</ele>
        <time>2022-02-09T11:23:16Z</time>
      </trkpt>
      <trkpt lat="42.86905" lon="0.1582">
        <ele>2336.14</ele>
        <time>2022-02-09T11:23:22Z</time>
      </trkpt>
      <trkpt lat="42.86901" lon="0.15822">
        <ele>2334.7</ele>
        <time>2022-02-09T11:23:33Z</time>
      </trkpt>
      <trkpt lat="42.86901" lon="0.15824">
        <ele>2335.18</ele>
        <time>2022-02-09T11:23:37Z</time>
      </trkpt>
      <trkpt lat="42.86902" lon="0.15827">
        <ele>2337.1</ele>
        <time>2022-02-09T11:23:40Z</time>
      </trkpt>
      <trkpt lat="42.86904" lon="0.15832">
        <ele>2338.06</ele>
        <time>2022-02-09T11:23:48Z</time>
      </trkpt>
      <trkpt lat="42.8691" lon="0.15839">
        <ele>2338.54</ele>
        <time>2022-02-09T11:24:02Z</time>
      </trkpt>
      <trkpt lat="42.86913" lon="0.1584">
        <ele>2341.91</ele>
        <time>2022-02-09T11:24:09Z</time>
      </trkpt>
      <trkpt lat="42.86915" lon="0.1584">
        <ele>2337.58</ele>
        <time>2022-02-09T11:24:13Z</time>
      </trkpt>
      <trkpt lat="42.86915" lon="0.1584">
        <ele>2342.39</ele>
        <time>2022-02-09T11:24:14Z</time>
      </trkpt>
      <trkpt lat="42.86917" lon="0.15841">
        <ele>2338.54</ele>
        <time>2022-02-09T11:24:18Z</time>
      </trkpt>
      <trkpt lat="42.86917" lon="0.15841">
        <ele>2342.87</ele>
        <time>2022-02-09T11:24:19Z</time>
      </trkpt>
      <trkpt lat="42.86918" lon="0.15842">
        <ele>2340.95</ele>
        <time>2022-02-09T11:24:22Z</time>
      </trkpt>
      <trkpt lat="42.86917" lon="0.15842">
        <ele>2340.95</ele>
        <time>2022-02-09T11:24:39Z</time>
      </trkpt>
      <trkpt lat="42.86915" lon="0.15843">
        <ele>2342.39</ele>
        <time>2022-02-09T11:24:43Z</time>
      </trkpt>
      <trkpt lat="42.86909" lon="0.15849">
        <ele>2343.35</ele>
        <time>2022-02-09T11:24:56Z</time>
      </trkpt>
      <trkpt lat="42.86904" lon="0.15854">
        <ele>2343.83</ele>
        <time>2022-02-09T11:25:06Z</time>
      </trkpt>
      <trkpt lat="42.86903" lon="0.15857">
        <ele>2343.83</ele>
        <time>2022-02-09T11:25:10Z</time>
      </trkpt>
      <trkpt lat="42.86902" lon="0.1586">
        <ele>2346.23</ele>
        <time>2022-02-09T11:25:17Z</time>
      </trkpt>
      <trkpt lat="42.86899" lon="0.15866">
        <ele>2346.23</ele>
        <time>2022-02-09T11:25:28Z</time>
      </trkpt>
      <trkpt lat="42.86896" lon="0.15873">
        <ele>2348.64</ele>
        <time>2022-02-09T11:25:40Z</time>
      </trkpt>
      <trkpt lat="42.86893" lon="0.1588">
        <ele>2350.08</ele>
        <time>2022-02-09T11:25:52Z</time>
      </trkpt>
      <trkpt lat="42.86891" lon="0.15888">
        <ele>2349.6</ele>
        <time>2022-02-09T11:26:05Z</time>
      </trkpt>
      <trkpt lat="42.86889" lon="0.15895">
        <ele>2351.52</ele>
        <time>2022-02-09T11:26:16Z</time>
      </trkpt>
      <trkpt lat="42.86887" lon="0.15906">
        <ele>2350.56</ele>
        <time>2022-02-09T11:26:30Z</time>
      </trkpt>
      <trkpt lat="42.86883" lon="0.15914">
        <ele>2352.96</ele>
        <time>2022-02-09T11:26:41Z</time>
      </trkpt>
      <trkpt lat="42.86881" lon="0.15921">
        <ele>2354.41</ele>
        <time>2022-02-09T11:26:52Z</time>
      </trkpt>
      <trkpt lat="42.8688" lon="0.15926">
        <ele>2355.37</ele>
        <time>2022-02-09T11:27:02Z</time>
      </trkpt>
      <trkpt lat="42.86875" lon="0.15931">
        <ele>2355.37</ele>
        <time>2022-02-09T11:27:17Z</time>
      </trkpt>
      <trkpt lat="42.86874" lon="0.15932">
        <ele>2357.29</ele>
        <time>2022-02-09T11:27:31Z</time>
      </trkpt>
      <trkpt lat="42.86871" lon="0.15934">
        <ele>2358.73</ele>
        <time>2022-02-09T11:27:40Z</time>
      </trkpt>
      <trkpt lat="42.86866" lon="0.15937">
        <ele>2358.73</ele>
        <time>2022-02-09T11:27:53Z</time>
      </trkpt>
      <trkpt lat="42.86863" lon="0.15938">
        <ele>2360.17</ele>
        <time>2022-02-09T11:27:58Z</time>
      </trkpt>
      <trkpt lat="42.86859" lon="0.15941">
        <ele>2359.69</ele>
        <time>2022-02-09T11:28:11Z</time>
      </trkpt>
      <trkpt lat="42.86858" lon="0.15941">
        <ele>2361.62</ele>
        <time>2022-02-09T11:28:15Z</time>
      </trkpt>
      <trkpt lat="42.86854" lon="0.15942">
        <ele>2362.58</ele>
        <time>2022-02-09T11:28:25Z</time>
      </trkpt>
      <trkpt lat="42.86853" lon="0.15943">
        <ele>2361.14</ele>
        <time>2022-02-09T11:28:27Z</time>
      </trkpt>
      <trkpt lat="42.86849" lon="0.1594">
        <ele>2364.02</ele>
        <time>2022-02-09T11:28:38Z</time>
      </trkpt>
      <trkpt lat="42.86846" lon="0.15941">
        <ele>2362.58</ele>
        <time>2022-02-09T11:28:57Z</time>
      </trkpt>
      <trkpt lat="42.86844" lon="0.1594">
        <ele>2365.94</ele>
        <time>2022-02-09T11:29:01Z</time>
      </trkpt>
      <trkpt lat="42.86842" lon="0.15939">
        <ele>2362.58</ele>
        <time>2022-02-09T11:29:05Z</time>
      </trkpt>
      <trkpt lat="42.86842" lon="0.15939">
        <ele>2366.42</ele>
        <time>2022-02-09T11:29:06Z</time>
      </trkpt>
      <trkpt lat="42.86839" lon="0.15937">
        <ele>2365.94</ele>
        <time>2022-02-09T11:29:12Z</time>
      </trkpt>
      <trkpt lat="42.86834" lon="0.15938">
        <ele>2367.38</ele>
        <time>2022-02-09T11:29:24Z</time>
      </trkpt>
      <trkpt lat="42.86829" lon="0.15936">
        <ele>2367.38</ele>
        <time>2022-02-09T11:29:35Z</time>
      </trkpt>
      <trkpt lat="42.86826" lon="0.15934">
        <ele>2367.86</ele>
        <time>2022-02-09T11:29:42Z</time>
      </trkpt>
      <trkpt lat="42.86826" lon="0.15933">
        <ele>2369.31</ele>
        <time>2022-02-09T11:29:44Z</time>
      </trkpt>
      <trkpt lat="42.86825" lon="0.15933">
        <ele>2368.35</ele>
        <time>2022-02-09T11:29:46Z</time>
      </trkpt>
      <trkpt lat="42.86825" lon="0.15941">
        <ele>2371.23</ele>
        <time>2022-02-09T11:30:05Z</time>
      </trkpt>
      <trkpt lat="42.86826" lon="0.15948">
        <ele>2368.83</ele>
        <time>2022-02-09T11:30:18Z</time>
      </trkpt>
      <trkpt lat="42.86827" lon="0.15949">
        <ele>2369.79</ele>
        <time>2022-02-09T11:30:22Z</time>
      </trkpt>
      <trkpt lat="42.86826" lon="0.1595">
        <ele>2371.23</ele>
        <time>2022-02-09T11:30:25Z</time>
      </trkpt>
      <trkpt lat="42.86827" lon="0.15955">
        <ele>2370.27</ele>
        <time>2022-02-09T11:30:46Z</time>
      </trkpt>
      <trkpt lat="42.86828" lon="0.15956">
        <ele>2372.67</ele>
        <time>2022-02-09T11:30:48Z</time>
      </trkpt>
      <trkpt lat="42.86831" lon="0.15961">
        <ele>2369.31</ele>
        <time>2022-02-09T11:30:59Z</time>
      </trkpt>
      <trkpt lat="42.86831" lon="0.15961">
        <ele>2372.67</ele>
        <time>2022-02-09T11:31:00Z</time>
      </trkpt>
      <trkpt lat="42.8683" lon="0.15958">
        <ele>2372.19</ele>
        <time>2022-02-09T11:31:10Z</time>
      </trkpt>
      <trkpt lat="42.86824" lon="0.15956">
        <ele>2374.11</ele>
        <time>2022-02-09T11:31:22Z</time>
      </trkpt>
      <trkpt lat="42.86821" lon="0.15956">
        <ele>2375.55</ele>
        <time>2022-02-09T11:31:32Z</time>
      </trkpt>
      <trkpt lat="42.86818" lon="0.15953">
        <ele>2376.04</ele>
        <time>2022-02-09T11:31:46Z</time>
      </trkpt>
      <trkpt lat="42.86818" lon="0.15952">
        <ele>2376.04</ele>
        <time>2022-02-09T11:32:05Z</time>
      </trkpt>
      <trkpt lat="42.86817" lon="0.15958">
        <ele>2375.55</ele>
        <time>2022-02-09T11:32:21Z</time>
      </trkpt>
      <trkpt lat="42.86816" lon="0.15958">
        <ele>2376.52</ele>
        <time>2022-02-09T11:32:27Z</time>
      </trkpt>
      <trkpt lat="42.86816" lon="0.15961">
        <ele>2377.96</ele>
        <time>2022-02-09T11:32:41Z</time>
      </trkpt>
      <trkpt lat="42.86816" lon="0.15966">
        <ele>2377</ele>
        <time>2022-02-09T11:32:53Z</time>
      </trkpt>
      <trkpt lat="42.86817" lon="0.1597">
        <ele>2377.96</ele>
        <time>2022-02-09T11:33:04Z</time>
      </trkpt>
      <trkpt lat="42.86815" lon="0.15966">
        <ele>2379.88</ele>
        <time>2022-02-09T11:33:17Z</time>
      </trkpt>
      <trkpt lat="42.8681" lon="0.15963">
        <ele>2381.8</ele>
        <time>2022-02-09T11:33:28Z</time>
      </trkpt>
      <trkpt lat="42.86807" lon="0.15961">
        <ele>2381.32</ele>
        <time>2022-02-09T11:33:38Z</time>
      </trkpt>
      <trkpt lat="42.86806" lon="0.1596">
        <ele>2381.8</ele>
        <time>2022-02-09T11:33:52Z</time>
      </trkpt>
      <trkpt lat="42.86806" lon="0.15963">
        <ele>2380.36</ele>
        <time>2022-02-09T11:34:09Z</time>
      </trkpt>
      <trkpt lat="42.86807" lon="0.15969">
        <ele>2383.25</ele>
        <time>2022-02-09T11:34:23Z</time>
      </trkpt>
      <trkpt lat="42.86807" lon="0.1597">
        <ele>2379.88</ele>
        <time>2022-02-09T11:34:31Z</time>
      </trkpt>
      <trkpt lat="42.86807" lon="0.15971">
        <ele>2383.73</ele>
        <time>2022-02-09T11:34:32Z</time>
      </trkpt>
      <trkpt lat="42.86806" lon="0.15972">
        <ele>2380.36</ele>
        <time>2022-02-09T11:34:37Z</time>
      </trkpt>
      <trkpt lat="42.86807" lon="0.15972">
        <ele>2384.69</ele>
        <time>2022-02-09T11:34:38Z</time>
      </trkpt>
      <trkpt lat="42.86807" lon="0.15973">
        <ele>2381.32</ele>
        <time>2022-02-09T11:34:39Z</time>
      </trkpt>
      <trkpt lat="42.86807" lon="0.15973">
        <ele>2385.17</ele>
        <time>2022-02-09T11:34:40Z</time>
      </trkpt>
      <trkpt lat="42.86807" lon="0.15974">
        <ele>2382.28</ele>
        <time>2022-02-09T11:34:42Z</time>
      </trkpt>
      <trkpt lat="42.86807" lon="0.15974">
        <ele>2385.65</ele>
        <time>2022-02-09T11:34:43Z</time>
      </trkpt>
      <trkpt lat="42.86808" lon="0.15975">
        <ele>2382.28</ele>
        <time>2022-02-09T11:34:45Z</time>
      </trkpt>
      <trkpt lat="42.86807" lon="0.15975">
        <ele>2385.17</ele>
        <time>2022-02-09T11:34:46Z</time>
      </trkpt>
      <trkpt lat="42.86807" lon="0.15975">
        <ele>2384.21</ele>
        <time>2022-02-09T11:34:47Z</time>
      </trkpt>
      <trkpt lat="42.86808" lon="0.15977">
        <ele>2383.25</ele>
        <time>2022-02-09T11:34:53Z</time>
      </trkpt>
      <trkpt lat="42.86807" lon="0.15979">
        <ele>2384.69</ele>
        <time>2022-02-09T11:35:07Z</time>
      </trkpt>
      <trkpt lat="42.86807" lon="0.15981">
        <ele>2387.57</ele>
        <time>2022-02-09T11:35:17Z</time>
      </trkpt>
      <trkpt lat="42.86808" lon="0.15983">
        <ele>2383.73</ele>
        <time>2022-02-09T11:35:22Z</time>
      </trkpt>
      <trkpt lat="42.86808" lon="0.15983">
        <ele>2387.09</ele>
        <time>2022-02-09T11:35:23Z</time>
      </trkpt>
      <trkpt lat="42.86808" lon="0.15984">
        <ele>2383.73</ele>
        <time>2022-02-09T11:35:27Z</time>
      </trkpt>
      <trkpt lat="42.86808" lon="0.15983">
        <ele>2388.05</ele>
        <time>2022-02-09T11:35:28Z</time>
      </trkpt>
      <trkpt lat="42.86808" lon="0.15984">
        <ele>2384.21</ele>
        <time>2022-02-09T11:35:37Z</time>
      </trkpt>
      <trkpt lat="42.86808" lon="0.15985">
        <ele>2388.05</ele>
        <time>2022-02-09T11:35:44Z</time>
      </trkpt>
      <trkpt lat="42.86808" lon="0.15985">
        <ele>2384.69</ele>
        <time>2022-02-09T11:35:47Z</time>
      </trkpt>
      <trkpt lat="42.86808" lon="0.15985">
        <ele>2388.05</ele>
        <time>2022-02-09T11:35:49Z</time>
      </trkpt>
      <trkpt lat="42.86807" lon="0.15987">
        <ele>2388.05</ele>
        <time>2022-02-09T11:35:58Z</time>
      </trkpt>
      <trkpt lat="42.86807" lon="0.15987">
        <ele>2386.61</ele>
        <time>2022-02-09T11:36:00Z</time>
      </trkpt>
      <trkpt lat="42.86808" lon="0.15987">
        <ele>2388.05</ele>
        <time>2022-02-09T11:36:02Z</time>
      </trkpt>
      <trkpt lat="42.86808" lon="0.15988">
        <ele>2384.69</ele>
        <time>2022-02-09T11:36:03Z</time>
      </trkpt>
      <trkpt lat="42.86807" lon="0.15988">
        <ele>2389.97</ele>
        <time>2022-02-09T11:36:04Z</time>
      </trkpt>
      <trkpt lat="42.86808" lon="0.15988">
        <ele>2385.65</ele>
        <time>2022-02-09T11:36:06Z</time>
      </trkpt>
      <trkpt lat="42.86808" lon="0.15989">
        <ele>2389.49</ele>
        <time>2022-02-09T11:36:08Z</time>
      </trkpt>
      <trkpt lat="42.86808" lon="0.15989">
        <ele>2386.13</ele>
        <time>2022-02-09T11:36:09Z</time>
      </trkpt>
      <trkpt lat="42.86809" lon="0.15991">
        <ele>2389.49</ele>
        <time>2022-02-09T11:36:17Z</time>
      </trkpt>
      <trkpt lat="42.8681" lon="0.15993">
        <ele>2389.97</ele>
        <time>2022-02-09T11:36:30Z</time>
      </trkpt>
      <trkpt lat="42.8681" lon="0.15994">
        <ele>2388.53</ele>
        <time>2022-02-09T11:36:35Z</time>
      </trkpt>
      <trkpt lat="42.86814" lon="0.15997">
        <ele>2388.53</ele>
        <time>2022-02-09T11:36:48Z</time>
      </trkpt>
      <trkpt lat="42.86814" lon="0.15997">
        <ele>2390.46</ele>
        <time>2022-02-09T11:36:50Z</time>
      </trkpt>
      <trkpt lat="42.86814" lon="0.15996">
        <ele>2387.57</ele>
        <time>2022-02-09T11:37:03Z</time>
      </trkpt>
      <trkpt lat="42.86814" lon="0.15996">
        <ele>2391.42</ele>
        <time>2022-02-09T11:37:04Z</time>
      </trkpt>
      <trkpt lat="42.86814" lon="0.15996">
        <ele>2387.57</ele>
        <time>2022-02-09T11:37:06Z</time>
      </trkpt>
      <trkpt lat="42.86814" lon="0.15996">
        <ele>2389.01</ele>
        <time>2022-02-09T11:37:10Z</time>
      </trkpt>
      <trkpt lat="42.86813" lon="0.15996">
        <ele>2388.53</ele>
        <time>2022-02-09T11:37:15Z</time>
      </trkpt>
      <trkpt lat="42.86812" lon="0.15997">
        <ele>2390.94</ele>
        <time>2022-02-09T11:37:33Z</time>
      </trkpt>
      <trkpt lat="42.86811" lon="0.15998">
        <ele>2390.94</ele>
        <time>2022-02-09T11:37:46Z</time>
      </trkpt>
      <trkpt lat="42.86811" lon="0.15999">
        <ele>2389.97</ele>
        <time>2022-02-09T11:37:58Z</time>
      </trkpt>
      <trkpt lat="42.86811" lon="0.16">
        <ele>2391.9</ele>
        <time>2022-02-09T11:38:06Z</time>
      </trkpt>
      <trkpt lat="42.86811" lon="0.16">
        <ele>2387.57</ele>
        <time>2022-02-09T11:38:07Z</time>
      </trkpt>
      <trkpt lat="42.86811" lon="0.16001">
        <ele>2392.38</ele>
        <time>2022-02-09T11:38:08Z</time>
      </trkpt>
      <trkpt lat="42.86811" lon="0.16001">
        <ele>2389.01</ele>
        <time>2022-02-09T11:38:10Z</time>
      </trkpt>
      <trkpt lat="42.86811" lon="0.16">
        <ele>2392.38</ele>
        <time>2022-02-09T11:38:11Z</time>
      </trkpt>
      <trkpt lat="42.86811" lon="0.16001">
        <ele>2390.94</ele>
        <time>2022-02-09T11:38:14Z</time>
      </trkpt>
      <trkpt lat="42.8681" lon="0.15999">
        <ele>2390.46</ele>
        <time>2022-02-09T11:38:26Z</time>
      </trkpt>
      <trkpt lat="42.8681" lon="0.16001">
        <ele>2390.46</ele>
        <time>2022-02-09T11:38:34Z</time>
      </trkpt>
      <trkpt lat="42.86811" lon="0.16001">
        <ele>2393.82</ele>
        <time>2022-02-09T11:38:42Z</time>
      </trkpt>
      <trkpt lat="42.86811" lon="0.16002">
        <ele>2389.49</ele>
        <time>2022-02-09T11:38:44Z</time>
      </trkpt>
      <trkpt lat="42.86811" lon="0.16001">
        <ele>2393.34</ele>
        <time>2022-02-09T11:38:45Z</time>
      </trkpt>
      <trkpt lat="42.86811" lon="0.16001">
        <ele>2389.97</ele>
        <time>2022-02-09T11:38:46Z</time>
      </trkpt>
      <trkpt lat="42.86811" lon="0.16002">
        <ele>2395.26</ele>
        <time>2022-02-09T11:38:47Z</time>
      </trkpt>
      <trkpt lat="42.86811" lon="0.16001">
        <ele>2388.05</ele>
        <time>2022-02-09T11:38:49Z</time>
      </trkpt>
      <trkpt lat="42.86811" lon="0.16002">
        <ele>2395.26</ele>
        <time>2022-02-09T11:38:50Z</time>
      </trkpt>
      <trkpt lat="42.86811" lon="0.16003">
        <ele>2390.94</ele>
        <time>2022-02-09T11:38:52Z</time>
      </trkpt>
      <trkpt lat="42.86811" lon="0.16003">
        <ele>2390.94</ele>
        <time>2022-02-09T11:38:53Z</time>
      </trkpt>
      <trkpt lat="42.86811" lon="0.16006">
        <ele>2395.26</ele>
        <time>2022-02-09T11:39:01Z</time>
      </trkpt>
      <trkpt lat="42.86812" lon="0.16006">
        <ele>2391.9</ele>
        <time>2022-02-09T11:39:03Z</time>
      </trkpt>
      <trkpt lat="42.86812" lon="0.16006">
        <ele>2394.3</ele>
        <time>2022-02-09T11:39:05Z</time>
      </trkpt>
      <trkpt lat="42.86812" lon="0.16006">
        <ele>2392.86</ele>
        <time>2022-02-09T11:39:07Z</time>
      </trkpt>
      <trkpt lat="42.86813" lon="0.16006">
        <ele>2394.3</ele>
        <time>2022-02-09T11:39:11Z</time>
      </trkpt>
      <trkpt lat="42.86813" lon="0.16007">
        <ele>2392.86</ele>
        <time>2022-02-09T11:39:13Z</time>
      </trkpt>
      <trkpt lat="42.86812" lon="0.16011">
        <ele>2394.3</ele>
        <time>2022-02-09T11:39:26Z</time>
      </trkpt>
      <trkpt lat="42.86812" lon="0.16012">
        <ele>2389.97</ele>
        <time>2022-02-09T11:39:30Z</time>
      </trkpt>
      <trkpt lat="42.86812" lon="0.16012">
        <ele>2393.34</ele>
        <time>2022-02-09T11:39:31Z</time>
      </trkpt>
      <trkpt lat="42.86811" lon="0.1601">
        <ele>2391.42</ele>
        <time>2022-02-09T11:39:39Z</time>
      </trkpt>
      <trkpt lat="42.86811" lon="0.16009">
        <ele>2393.34</ele>
        <time>2022-02-09T11:39:41Z</time>
      </trkpt>
      <trkpt lat="42.8681" lon="0.16009">
        <ele>2393.34</ele>
        <time>2022-02-09T11:39:59Z</time>
      </trkpt>
      <trkpt lat="42.8681" lon="0.16009">
        <ele>2392.38</ele>
        <time>2022-02-09T11:40:01Z</time>
      </trkpt>
      <trkpt lat="42.86813" lon="0.16011">
        <ele>2392.38</ele>
        <time>2022-02-09T11:40:29Z</time>
      </trkpt>
      <trkpt lat="42.86809" lon="0.16012">
        <ele>2395.26</ele>
        <time>2022-02-09T11:41:02Z</time>
      </trkpt>
      <trkpt lat="42.86809" lon="0.16012">
        <ele>2393.34</ele>
        <time>2022-02-09T11:41:03Z</time>
      </trkpt>
      <trkpt lat="42.8681" lon="0.16012">
        <ele>2392.38</ele>
        <time>2022-02-09T11:41:05Z</time>
      </trkpt>
      <trkpt lat="42.86813" lon="0.16005">
        <ele>2392.86</ele>
        <time>2022-02-09T11:41:22Z</time>
      </trkpt>
      <trkpt lat="42.86815" lon="0.16008">
        <ele>2392.86</ele>
        <time>2022-02-09T11:41:44Z</time>
      </trkpt>
      <trkpt lat="42.86816" lon="0.16007">
        <ele>2392.86</ele>
        <time>2022-02-09T11:42:10Z</time>
      </trkpt>
      <trkpt lat="42.86815" lon="0.16011">
        <ele>2392.86</ele>
        <time>2022-02-09T11:42:36Z</time>
      </trkpt>
      <trkpt lat="42.86814" lon="0.16009">
        <ele>2393.34</ele>
        <time>2022-02-09T11:43:01Z</time>
      </trkpt>
      <trkpt lat="42.86813" lon="0.16008">
        <ele>2391.9</ele>
        <time>2022-02-09T11:43:10Z</time>
      </trkpt>
      <trkpt lat="42.86813" lon="0.16007">
        <ele>2391.9</ele>
        <time>2022-02-09T11:43:19Z</time>
      </trkpt>
      <trkpt lat="42.86814" lon="0.16008">
        <ele>2394.3</ele>
        <time>2022-02-09T11:43:24Z</time>
      </trkpt>
      <trkpt lat="42.86814" lon="0.16006">
        <ele>2392.86</ele>
        <time>2022-02-09T11:43:28Z</time>
      </trkpt>
      <trkpt lat="42.86816" lon="0.16006">
        <ele>2392.86</ele>
        <time>2022-02-09T11:43:51Z</time>
      </trkpt>
      <trkpt lat="42.86815" lon="0.16007">
        <ele>2392.38</ele>
        <time>2022-02-09T11:44:17Z</time>
      </trkpt>
      <trkpt lat="42.86813" lon="0.16006">
        <ele>2392.38</ele>
        <time>2022-02-09T11:44:41Z</time>
      </trkpt>
      <trkpt lat="42.86813" lon="0.16004">
        <ele>2392.38</ele>
        <time>2022-02-09T11:45:02Z</time>
      </trkpt>
      <trkpt lat="42.86814" lon="0.16002">
        <ele>2393.82</ele>
        <time>2022-02-09T11:45:11Z</time>
      </trkpt>
      <trkpt lat="42.86814" lon="0.16009">
        <ele>2393.82</ele>
        <time>2022-02-09T11:45:32Z</time>
      </trkpt>
      <trkpt lat="42.86814" lon="0.16009">
        <ele>2392.86</ele>
        <time>2022-02-09T11:45:34Z</time>
      </trkpt>
      <trkpt lat="42.86814" lon="0.16006">
        <ele>2391.9</ele>
        <time>2022-02-09T11:45:55Z</time>
      </trkpt>
      <trkpt lat="42.86813" lon="0.16005">
        <ele>2391.42</ele>
        <time>2022-02-09T11:46:00Z</time>
      </trkpt>
      <trkpt lat="42.86814" lon="0.16005">
        <ele>2393.82</ele>
        <time>2022-02-09T11:46:02Z</time>
      </trkpt>
      <trkpt lat="42.86813" lon="0.1601">
        <ele>2391.9</ele>
        <time>2022-02-09T11:46:14Z</time>
      </trkpt>
      <trkpt lat="42.86812" lon="0.16011">
        <ele>2393.34</ele>
        <time>2022-02-09T11:46:16Z</time>
      </trkpt>
      <trkpt lat="42.86815" lon="0.16009">
        <ele>2392.38</ele>
        <time>2022-02-09T11:46:40Z</time>
      </trkpt>
      <trkpt lat="42.86813" lon="0.16008">
        <ele>2392.38</ele>
        <time>2022-02-09T11:47:04Z</time>
      </trkpt>
      <trkpt lat="42.86813" lon="0.16009">
        <ele>2393.34</ele>
        <time>2022-02-09T11:47:27Z</time>
      </trkpt>
      <trkpt lat="42.86813" lon="0.16008">
        <ele>2393.34</ele>
        <time>2022-02-09T11:47:56Z</time>
      </trkpt>
      <trkpt lat="42.86813" lon="0.16007">
        <ele>2393.34</ele>
        <time>2022-02-09T11:48:18Z</time>
      </trkpt>
      <trkpt lat="42.86813" lon="0.16005">
        <ele>2393.34</ele>
        <time>2022-02-09T11:48:41Z</time>
      </trkpt>
      <trkpt lat="42.86813" lon="0.16003">
        <ele>2393.34</ele>
        <time>2022-02-09T11:49:11Z</time>
      </trkpt>
      <trkpt lat="42.86815" lon="0.16005">
        <ele>2391.9</ele>
        <time>2022-02-09T11:49:23Z</time>
      </trkpt>
      <trkpt lat="42.86816" lon="0.16005">
        <ele>2393.82</ele>
        <time>2022-02-09T11:49:33Z</time>
      </trkpt>
      <trkpt lat="42.86811" lon="0.16004">
        <ele>2393.34</ele>
        <time>2022-02-09T11:49:58Z</time>
      </trkpt>
      <trkpt lat="42.86811" lon="0.16004">
        <ele>2391.9</ele>
        <time>2022-02-09T11:50:01Z</time>
      </trkpt>
      <trkpt lat="42.86815" lon="0.16007">
        <ele>2392.38</ele>
        <time>2022-02-09T11:50:24Z</time>
      </trkpt>
      <trkpt lat="42.86814" lon="0.16004">
        <ele>2393.82</ele>
        <time>2022-02-09T11:50:38Z</time>
      </trkpt>
      <trkpt lat="42.86812" lon="0.16005">
        <ele>2394.78</ele>
        <time>2022-02-09T11:50:49Z</time>
      </trkpt>
      <trkpt lat="42.86807" lon="0.16009">
        <ele>2395.26</ele>
        <time>2022-02-09T11:51:04Z</time>
      </trkpt>
      <trkpt lat="42.86807" lon="0.1601">
        <ele>2393.82</ele>
        <time>2022-02-09T11:51:07Z</time>
      </trkpt>
      <trkpt lat="42.86807" lon="0.1601">
        <ele>2396.7</ele>
        <time>2022-02-09T11:51:08Z</time>
      </trkpt>
      <trkpt lat="42.86806" lon="0.1601">
        <ele>2395.26</ele>
        <time>2022-02-09T11:51:09Z</time>
      </trkpt>
      <trkpt lat="42.86804" lon="0.16009">
        <ele>2395.74</ele>
        <time>2022-02-09T11:51:22Z</time>
      </trkpt>
      <trkpt lat="42.86803" lon="0.1601">
        <ele>2397.18</ele>
        <time>2022-02-09T11:51:24Z</time>
      </trkpt>
      <trkpt lat="42.86798" lon="0.16009">
        <ele>2396.7</ele>
        <time>2022-02-09T11:51:37Z</time>
      </trkpt>
      <trkpt lat="42.86797" lon="0.1601">
        <ele>2400.07</ele>
        <time>2022-02-09T11:51:48Z</time>
      </trkpt>
      <trkpt lat="42.86796" lon="0.1601">
        <ele>2400.07</ele>
        <time>2022-02-09T11:51:52Z</time>
      </trkpt>
      <trkpt lat="42.86796" lon="0.1601">
        <ele>2398.63</ele>
        <time>2022-02-09T11:51:54Z</time>
      </trkpt>
      <trkpt lat="42.86794" lon="0.16007">
        <ele>2400.07</ele>
        <time>2022-02-09T11:52:01Z</time>
      </trkpt>
      <trkpt lat="42.86788" lon="0.16007">
        <ele>2400.55</ele>
        <time>2022-02-09T11:52:15Z</time>
      </trkpt>
      <trkpt lat="42.8679" lon="0.16008">
        <ele>2402.47</ele>
        <time>2022-02-09T11:52:30Z</time>
      </trkpt>
      <trkpt lat="42.86791" lon="0.16006">
        <ele>2402.95</ele>
        <time>2022-02-09T11:52:49Z</time>
      </trkpt>
      <trkpt lat="42.8679" lon="0.16007">
        <ele>2403.91</ele>
        <time>2022-02-09T11:52:53Z</time>
      </trkpt>
      <trkpt lat="42.86789" lon="0.16006">
        <ele>2403.91</ele>
        <time>2022-02-09T11:53:11Z</time>
      </trkpt>
      <trkpt lat="42.86785" lon="0.16005">
        <ele>2404.39</ele>
        <time>2022-02-09T11:53:28Z</time>
      </trkpt>
      <trkpt lat="42.86785" lon="0.16006">
        <ele>2405.36</ele>
        <time>2022-02-09T11:53:43Z</time>
      </trkpt>
      <trkpt lat="42.86783" lon="0.16004">
        <ele>2405.84</ele>
        <time>2022-02-09T11:54:03Z</time>
      </trkpt>
      <trkpt lat="42.86783" lon="0.16004">
        <ele>2406.8</ele>
        <time>2022-02-09T11:54:07Z</time>
      </trkpt>
      <trkpt lat="42.86782" lon="0.16003">
        <ele>2406.8</ele>
        <time>2022-02-09T11:54:21Z</time>
      </trkpt>
      <trkpt lat="42.86777" lon="0.16002">
        <ele>2407.76</ele>
        <time>2022-02-09T11:54:36Z</time>
      </trkpt>
      <trkpt lat="42.86775" lon="0.16004">
        <ele>2408.72</ele>
        <time>2022-02-09T11:54:51Z</time>
      </trkpt>
      <trkpt lat="42.86775" lon="0.16002">
        <ele>2408.24</ele>
        <time>2022-02-09T11:55:03Z</time>
      </trkpt>
      <trkpt lat="42.86774" lon="0.16002">
        <ele>2409.68</ele>
        <time>2022-02-09T11:55:15Z</time>
      </trkpt>
      <trkpt lat="42.86772" lon="0.16002">
        <ele>2408.24</ele>
        <time>2022-02-09T11:55:19Z</time>
      </trkpt>
      <trkpt lat="42.86773" lon="0.16001">
        <ele>2410.16</ele>
        <time>2022-02-09T11:55:21Z</time>
      </trkpt>
      <trkpt lat="42.86772" lon="0.16001">
        <ele>2408.72</ele>
        <time>2022-02-09T11:55:24Z</time>
      </trkpt>
      <trkpt lat="42.86772" lon="0.16001">
        <ele>2410.16</ele>
        <time>2022-02-09T11:55:26Z</time>
      </trkpt>
      <trkpt lat="42.8677" lon="0.15999">
        <ele>2411.12</ele>
        <time>2022-02-09T11:55:39Z</time>
      </trkpt>
      <trkpt lat="42.8677" lon="0.15999">
        <ele>2409.68</ele>
        <time>2022-02-09T11:55:41Z</time>
      </trkpt>
      <trkpt lat="42.86769" lon="0.16">
        <ele>2410.64</ele>
        <time>2022-02-09T11:55:43Z</time>
      </trkpt>
      <trkpt lat="42.86768" lon="0.15998">
        <ele>2411.6</ele>
        <time>2022-02-09T11:56:00Z</time>
      </trkpt>
      <trkpt lat="42.86768" lon="0.15999">
        <ele>2413.05</ele>
        <time>2022-02-09T11:56:04Z</time>
      </trkpt>
      <trkpt lat="42.86768" lon="0.15999">
        <ele>2412.09</ele>
        <time>2022-02-09T11:56:06Z</time>
      </trkpt>
      <trkpt lat="42.86767" lon="0.15998">
        <ele>2413.05</ele>
        <time>2022-02-09T11:56:09Z</time>
      </trkpt>
      <trkpt lat="42.86765" lon="0.15998">
        <ele>2413.53</ele>
        <time>2022-02-09T11:56:22Z</time>
      </trkpt>
      <trkpt lat="42.86762" lon="0.15998">
        <ele>2414.49</ele>
        <time>2022-02-09T11:56:38Z</time>
      </trkpt>
      <trkpt lat="42.86765" lon="0.15995">
        <ele>2415.45</ele>
        <time>2022-02-09T11:56:53Z</time>
      </trkpt>
      <trkpt lat="42.8676" lon="0.15997">
        <ele>2415.93</ele>
        <time>2022-02-09T11:57:07Z</time>
      </trkpt>
      <trkpt lat="42.86759" lon="0.15997">
        <ele>2415.45</ele>
        <time>2022-02-09T11:57:21Z</time>
      </trkpt>
      <trkpt lat="42.86757" lon="0.15997">
        <ele>2417.37</ele>
        <time>2022-02-09T11:57:26Z</time>
      </trkpt>
      <trkpt lat="42.86756" lon="0.15995">
        <ele>2417.85</ele>
        <time>2022-02-09T11:57:43Z</time>
      </trkpt>
      <trkpt lat="42.86756" lon="0.15995">
        <ele>2417.85</ele>
        <time>2022-02-09T11:58:03Z</time>
      </trkpt>
      <trkpt lat="42.86757" lon="0.15994">
        <ele>2415.93</ele>
        <time>2022-02-09T11:58:13Z</time>
      </trkpt>
      <trkpt lat="42.86757" lon="0.15994">
        <ele>2418.33</ele>
        <time>2022-02-09T11:58:15Z</time>
      </trkpt>
      <trkpt lat="42.86758" lon="0.15994">
        <ele>2414.49</ele>
        <time>2022-02-09T11:58:26Z</time>
      </trkpt>
      <trkpt lat="42.86758" lon="0.15994">
        <ele>2418.81</ele>
        <time>2022-02-09T11:58:27Z</time>
      </trkpt>
      <trkpt lat="42.86759" lon="0.15994">
        <ele>2419.78</ele>
        <time>2022-02-09T11:58:38Z</time>
      </trkpt>
      <trkpt lat="42.86759" lon="0.15994">
        <ele>2416.89</ele>
        <time>2022-02-09T11:58:39Z</time>
      </trkpt>
      <trkpt lat="42.86759" lon="0.15993">
        <ele>2418.33</ele>
        <time>2022-02-09T11:58:40Z</time>
      </trkpt>
      <trkpt lat="42.86758" lon="0.15994">
        <ele>2419.3</ele>
        <time>2022-02-09T11:58:42Z</time>
      </trkpt>
      <trkpt lat="42.86757" lon="0.15998">
        <ele>2420.26</ele>
        <time>2022-02-09T11:58:51Z</time>
      </trkpt>
      <trkpt lat="42.86757" lon="0.15998">
        <ele>2415.93</ele>
        <time>2022-02-09T11:58:53Z</time>
      </trkpt>
      <trkpt lat="42.86757" lon="0.15999">
        <ele>2419.3</ele>
        <time>2022-02-09T11:58:54Z</time>
      </trkpt>
      <trkpt lat="42.86757" lon="0.15999">
        <ele>2420.74</ele>
        <time>2022-02-09T11:58:56Z</time>
      </trkpt>
      <trkpt lat="42.86757" lon="0.16">
        <ele>2417.37</ele>
        <time>2022-02-09T11:58:58Z</time>
      </trkpt>
      <trkpt lat="42.86757" lon="0.16001">
        <ele>2421.22</ele>
        <time>2022-02-09T11:59:00Z</time>
      </trkpt>
      <trkpt lat="42.86757" lon="0.16001">
        <ele>2421.22</ele>
        <time>2022-02-09T11:59:01Z</time>
      </trkpt>
      <trkpt lat="42.86758" lon="0.16001">
        <ele>2421.22</ele>
        <time>2022-02-09T11:59:13Z</time>
      </trkpt>
      <trkpt lat="42.86756" lon="0.16004">
        <ele>2422.18</ele>
        <time>2022-02-09T11:59:27Z</time>
      </trkpt>
      <trkpt lat="42.86756" lon="0.16004">
        <ele>2418.33</ele>
        <time>2022-02-09T11:59:29Z</time>
      </trkpt>
      <trkpt lat="42.86756" lon="0.16004">
        <ele>2421.22</ele>
        <time>2022-02-09T11:59:30Z</time>
      </trkpt>
      <trkpt lat="42.86755" lon="0.16006">
        <ele>2423.14</ele>
        <time>2022-02-09T11:59:47Z</time>
      </trkpt>
      <trkpt lat="42.86755" lon="0.16006">
        <ele>2419.3</ele>
        <time>2022-02-09T11:59:50Z</time>
      </trkpt>
      <trkpt lat="42.86755" lon="0.16007">
        <ele>2422.18</ele>
        <time>2022-02-09T11:59:51Z</time>
      </trkpt>
      <trkpt lat="42.86755" lon="0.16008">
        <ele>2423.14</ele>
        <time>2022-02-09T11:59:55Z</time>
      </trkpt>
      <trkpt lat="42.86753" lon="0.1601">
        <ele>2424.1</ele>
        <time>2022-02-09T12:00:12Z</time>
      </trkpt>
      <trkpt lat="42.86755" lon="0.1601">
        <ele>2425.06</ele>
        <time>2022-02-09T12:00:26Z</time>
      </trkpt>
      <trkpt lat="42.86753" lon="0.16008">
        <ele>2425.54</ele>
        <time>2022-02-09T12:00:45Z</time>
      </trkpt>
      <trkpt lat="42.86751" lon="0.16009">
        <ele>2426.99</ele>
        <time>2022-02-09T12:00:59Z</time>
      </trkpt>
      <trkpt lat="42.86751" lon="0.16007">
        <ele>2428.43</ele>
        <time>2022-02-09T12:01:15Z</time>
      </trkpt>
      <trkpt lat="42.86748" lon="0.16008">
        <ele>2428.43</ele>
        <time>2022-02-09T12:01:22Z</time>
      </trkpt>
      <trkpt lat="42.86749" lon="0.16007">
        <ele>2429.39</ele>
        <time>2022-02-09T12:01:31Z</time>
      </trkpt>
      <trkpt lat="42.86748" lon="0.16007">
        <ele>2427.95</ele>
        <time>2022-02-09T12:01:35Z</time>
      </trkpt>
      <trkpt lat="42.86747" lon="0.16006">
        <ele>2429.87</ele>
        <time>2022-02-09T12:01:52Z</time>
      </trkpt>
      <trkpt lat="42.86747" lon="0.16006">
        <ele>2426.5</ele>
        <time>2022-02-09T12:01:54Z</time>
      </trkpt>
      <trkpt lat="42.86747" lon="0.16006">
        <ele>2428.43</ele>
        <time>2022-02-09T12:01:55Z</time>
      </trkpt>
      <trkpt lat="42.86748" lon="0.16007">
        <ele>2430.35</ele>
        <time>2022-02-09T12:01:57Z</time>
      </trkpt>
      <trkpt lat="42.86745" lon="0.16008">
        <ele>2429.87</ele>
        <time>2022-02-09T12:02:10Z</time>
      </trkpt>
      <trkpt lat="42.86746" lon="0.16008">
        <ele>2430.83</ele>
        <time>2022-02-09T12:02:12Z</time>
      </trkpt>
      <trkpt lat="42.86744" lon="0.1601">
        <ele>2429.39</ele>
        <time>2022-02-09T12:02:18Z</time>
      </trkpt>
      <trkpt lat="42.86744" lon="0.16011">
        <ele>2432.27</ele>
        <time>2022-02-09T12:02:21Z</time>
      </trkpt>
      <trkpt lat="42.86744" lon="0.1601">
        <ele>2429.87</ele>
        <time>2022-02-09T12:02:25Z</time>
      </trkpt>
      <trkpt lat="42.86744" lon="0.1601">
        <ele>2432.27</ele>
        <time>2022-02-09T12:02:27Z</time>
      </trkpt>
      <trkpt lat="42.86744" lon="0.16012">
        <ele>2433.23</ele>
        <time>2022-02-09T12:02:35Z</time>
      </trkpt>
      <trkpt lat="42.86744" lon="0.16012">
        <ele>2429.87</ele>
        <time>2022-02-09T12:02:36Z</time>
      </trkpt>
      <trkpt lat="42.86743" lon="0.16013">
        <ele>2433.23</ele>
        <time>2022-02-09T12:02:37Z</time>
      </trkpt>
      <trkpt lat="42.86743" lon="0.16013">
        <ele>2431.79</ele>
        <time>2022-02-09T12:02:40Z</time>
      </trkpt>
      <trkpt lat="42.86742" lon="0.16015">
        <ele>2433.71</ele>
        <time>2022-02-09T12:02:42Z</time>
      </trkpt>
      <trkpt lat="42.86742" lon="0.16017">
        <ele>2434.68</ele>
        <time>2022-02-09T12:02:59Z</time>
      </trkpt>
      <trkpt lat="42.86739" lon="0.16018">
        <ele>2434.2</ele>
        <time>2022-02-09T12:03:15Z</time>
      </trkpt>
      <trkpt lat="42.86738" lon="0.16016">
        <ele>2437.08</ele>
        <time>2022-02-09T12:03:27Z</time>
      </trkpt>
      <trkpt lat="42.86737" lon="0.16012">
        <ele>2438.52</ele>
        <time>2022-02-09T12:03:39Z</time>
      </trkpt>
      <trkpt lat="42.86735" lon="0.16009">
        <ele>2439.48</ele>
        <time>2022-02-09T12:03:53Z</time>
      </trkpt>
      <trkpt lat="42.86734" lon="0.16015">
        <ele>2439.96</ele>
        <time>2022-02-09T12:04:09Z</time>
      </trkpt>
      <trkpt lat="42.86733" lon="0.16017">
        <ele>2441.41</ele>
        <time>2022-02-09T12:04:16Z</time>
      </trkpt>
      <trkpt lat="42.86733" lon="0.16018">
        <ele>2440.44</ele>
        <time>2022-02-09T12:04:21Z</time>
      </trkpt>
      <trkpt lat="42.86733" lon="0.16019">
        <ele>2441.89</ele>
        <time>2022-02-09T12:04:33Z</time>
      </trkpt>
      <trkpt lat="42.86731" lon="0.16021">
        <ele>2441.41</ele>
        <time>2022-02-09T12:04:42Z</time>
      </trkpt>
      <trkpt lat="42.86731" lon="0.16022">
        <ele>2443.81</ele>
        <time>2022-02-09T12:04:44Z</time>
      </trkpt>
      <trkpt lat="42.8673" lon="0.16023">
        <ele>2443.81</ele>
        <time>2022-02-09T12:04:57Z</time>
      </trkpt>
      <trkpt lat="42.86728" lon="0.16026">
        <ele>2444.77</ele>
        <time>2022-02-09T12:05:12Z</time>
      </trkpt>
      <trkpt lat="42.86726" lon="0.1603">
        <ele>2445.73</ele>
        <time>2022-02-09T12:05:24Z</time>
      </trkpt>
      <trkpt lat="42.86724" lon="0.16033">
        <ele>2448.13</ele>
        <time>2022-02-09T12:05:31Z</time>
      </trkpt>
      <trkpt lat="42.86723" lon="0.16036">
        <ele>2447.17</ele>
        <time>2022-02-09T12:05:45Z</time>
      </trkpt>
      <trkpt lat="42.86723" lon="0.16039">
        <ele>2450.06</ele>
        <time>2022-02-09T12:05:51Z</time>
      </trkpt>
      <trkpt lat="42.86722" lon="0.16041">
        <ele>2449.1</ele>
        <time>2022-02-09T12:05:56Z</time>
      </trkpt>
      <trkpt lat="42.8672" lon="0.16042">
        <ele>2449.1</ele>
        <time>2022-02-09T12:06:08Z</time>
      </trkpt>
      <trkpt lat="42.86721" lon="0.16047">
        <ele>2450.54</ele>
        <time>2022-02-09T12:06:18Z</time>
      </trkpt>
      <trkpt lat="42.8672" lon="0.16049">
        <ele>2451.5</ele>
        <time>2022-02-09T12:06:21Z</time>
      </trkpt>
      <trkpt lat="42.86718" lon="0.1605">
        <ele>2452.94</ele>
        <time>2022-02-09T12:06:25Z</time>
      </trkpt>
      <trkpt lat="42.86714" lon="0.16049">
        <ele>2453.9</ele>
        <time>2022-02-09T12:06:37Z</time>
      </trkpt>
      <trkpt lat="42.86714" lon="0.16047">
        <ele>2453.42</ele>
        <time>2022-02-09T12:06:53Z</time>
      </trkpt>
      <trkpt lat="42.86714" lon="0.16046">
        <ele>2453.42</ele>
        <time>2022-02-09T12:07:18Z</time>
      </trkpt>
      <trkpt lat="42.86711" lon="0.16052">
        <ele>2454.38</ele>
        <time>2022-02-09T12:07:38Z</time>
      </trkpt>
      <trkpt lat="42.86704" lon="0.16057">
        <ele>2454.86</ele>
        <time>2022-02-09T12:07:50Z</time>
      </trkpt>
      <trkpt lat="42.86696" lon="0.16062">
        <ele>2453.42</ele>
        <time>2022-02-09T12:08:02Z</time>
      </trkpt>
      <trkpt lat="42.86689" lon="0.16066">
        <ele>2453.9</ele>
        <time>2022-02-09T12:08:13Z</time>
      </trkpt>
      <trkpt lat="42.86682" lon="0.1607">
        <ele>2455.34</ele>
        <time>2022-02-09T12:08:25Z</time>
      </trkpt>
      <trkpt lat="42.8668" lon="0.16077">
        <ele>2454.38</ele>
        <time>2022-02-09T12:08:35Z</time>
      </trkpt>
      <trkpt lat="42.8668" lon="0.16077">
        <ele>2455.34</ele>
        <time>2022-02-09T12:08:38Z</time>
      </trkpt>
      <trkpt lat="42.8668" lon="0.16077">
        <ele>2455.34</ele>
        <time>2022-02-09T12:08:40Z</time>
      </trkpt>
      <trkpt lat="42.86678" lon="0.16081">
        <ele>2453.9</ele>
        <time>2022-02-09T12:08:46Z</time>
      </trkpt>
      <trkpt lat="42.86674" lon="0.16086">
        <ele>2453.9</ele>
        <time>2022-02-09T12:08:56Z</time>
      </trkpt>
      <trkpt lat="42.86671" lon="0.16088">
        <ele>2453.9</ele>
        <time>2022-02-09T12:08:59Z</time>
      </trkpt>
      <trkpt lat="42.86666" lon="0.16092">
        <ele>2453.9</ele>
        <time>2022-02-09T12:09:11Z</time>
      </trkpt>
      <trkpt lat="42.86661" lon="0.16094">
        <ele>2453.42</ele>
        <time>2022-02-09T12:09:27Z</time>
      </trkpt>
      <trkpt lat="42.86654" lon="0.16099">
        <ele>2453.9</ele>
        <time>2022-02-09T12:09:40Z</time>
      </trkpt>
      <trkpt lat="42.86648" lon="0.16104">
        <ele>2453.42</ele>
        <time>2022-02-09T12:09:53Z</time>
      </trkpt>
      <trkpt lat="42.86643" lon="0.16108">
        <ele>2455.82</ele>
        <time>2022-02-09T12:10:06Z</time>
      </trkpt>
      <trkpt lat="42.86638" lon="0.16115">
        <ele>2456.31</ele>
        <time>2022-02-09T12:10:20Z</time>
      </trkpt>
      <trkpt lat="42.86633" lon="0.16118">
        <ele>2455.34</ele>
        <time>2022-02-09T12:10:33Z</time>
      </trkpt>
      <trkpt lat="42.86628" lon="0.16122">
        <ele>2456.31</ele>
        <time>2022-02-09T12:10:45Z</time>
      </trkpt>
      <trkpt lat="42.86624" lon="0.16126">
        <ele>2456.79</ele>
        <time>2022-02-09T12:10:55Z</time>
      </trkpt>
      <trkpt lat="42.8662" lon="0.16132">
        <ele>2457.75</ele>
        <time>2022-02-09T12:11:06Z</time>
      </trkpt>
      <trkpt lat="42.86617" lon="0.16136">
        <ele>2456.79</ele>
        <time>2022-02-09T12:11:16Z</time>
      </trkpt>
      <trkpt lat="42.86616" lon="0.16137">
        <ele>2459.19</ele>
        <time>2022-02-09T12:11:34Z</time>
      </trkpt>
      <trkpt lat="42.86616" lon="0.16137">
        <ele>2454.86</ele>
        <time>2022-02-09T12:11:36Z</time>
      </trkpt>
      <trkpt lat="42.86616" lon="0.16137">
        <ele>2462.07</ele>
        <time>2022-02-09T12:11:37Z</time>
      </trkpt>
      <trkpt lat="42.86616" lon="0.16137">
        <ele>2458.23</ele>
        <time>2022-02-09T12:11:38Z</time>
      </trkpt>
      <trkpt lat="42.86617" lon="0.16137">
        <ele>2457.27</ele>
        <time>2022-02-09T12:12:00Z</time>
      </trkpt>
      <trkpt lat="42.86616" lon="0.16134">
        <ele>2458.23</ele>
        <time>2022-02-09T12:12:20Z</time>
      </trkpt>
      <trkpt lat="42.86616" lon="0.16137">
        <ele>2456.31</ele>
        <time>2022-02-09T12:12:29Z</time>
      </trkpt>
      <trkpt lat="42.86617" lon="0.16137">
        <ele>2458.23</ele>
        <time>2022-02-09T12:12:31Z</time>
      </trkpt>
      <trkpt lat="42.86615" lon="0.16136">
        <ele>2458.23</ele>
        <time>2022-02-09T12:13:00Z</time>
      </trkpt>
      <trkpt lat="42.86616" lon="0.16135">
        <ele>2456.79</ele>
        <time>2022-02-09T12:13:19Z</time>
      </trkpt>
      <trkpt lat="42.86617" lon="0.16139">
        <ele>2457.27</ele>
        <time>2022-02-09T12:13:42Z</time>
      </trkpt>
      <trkpt lat="42.86618" lon="0.1614">
        <ele>2458.23</ele>
        <time>2022-02-09T12:14:10Z</time>
      </trkpt>
      <trkpt lat="42.86618" lon="0.16139">
        <ele>2456.79</ele>
        <time>2022-02-09T12:14:13Z</time>
      </trkpt>
      <trkpt lat="42.86618" lon="0.16139">
        <ele>2458.23</ele>
        <time>2022-02-09T12:14:16Z</time>
      </trkpt>
      <trkpt lat="42.86617" lon="0.16138">
        <ele>2453.9</ele>
        <time>2022-02-09T12:14:21Z</time>
      </trkpt>
      <trkpt lat="42.86617" lon="0.16138">
        <ele>2457.75</ele>
        <time>2022-02-09T12:14:22Z</time>
      </trkpt>
      <trkpt lat="42.86618" lon="0.16135">
        <ele>2456.79</ele>
        <time>2022-02-09T12:14:46Z</time>
      </trkpt>
      <trkpt lat="42.86618" lon="0.16136">
        <ele>2460.15</ele>
        <time>2022-02-09T12:14:51Z</time>
      </trkpt>
      <trkpt lat="42.86618" lon="0.16136">
        <ele>2456.31</ele>
        <time>2022-02-09T12:14:56Z</time>
      </trkpt>
      <trkpt lat="42.86618" lon="0.16136">
        <ele>2460.15</ele>
        <time>2022-02-09T12:14:59Z</time>
      </trkpt>
      <trkpt lat="42.86618" lon="0.16136">
        <ele>2450.54</ele>
        <time>2022-02-09T12:15:01Z</time>
      </trkpt>
      <trkpt lat="42.86618" lon="0.16136">
        <ele>2458.23</ele>
        <time>2022-02-09T12:15:02Z</time>
      </trkpt>
      <trkpt lat="42.86618" lon="0.16136">
        <ele>2462.07</ele>
        <time>2022-02-09T12:15:03Z</time>
      </trkpt>
      <trkpt lat="42.86618" lon="0.16136">
        <ele>2458.23</ele>
        <time>2022-02-09T12:15:04Z</time>
      </trkpt>
      <trkpt lat="42.86617" lon="0.16135">
        <ele>2456.79</ele>
        <time>2022-02-09T12:15:08Z</time>
      </trkpt>
      <trkpt lat="42.86618" lon="0.16136">
        <ele>2453.42</ele>
        <time>2022-02-09T12:15:26Z</time>
      </trkpt>
      <trkpt lat="42.86618" lon="0.16136">
        <ele>2458.23</ele>
        <time>2022-02-09T12:15:27Z</time>
      </trkpt>
      <trkpt lat="42.86617" lon="0.16133">
        <ele>2455.34</ele>
        <time>2022-02-09T12:15:35Z</time>
      </trkpt>
      <trkpt lat="42.86617" lon="0.16133">
        <ele>2460.15</ele>
        <time>2022-02-09T12:15:36Z</time>
      </trkpt>
      <trkpt lat="42.86616" lon="0.16136">
        <ele>2455.82</ele>
        <time>2022-02-09T12:15:42Z</time>
      </trkpt>
      <trkpt lat="42.86616" lon="0.16137">
        <ele>2455.82</ele>
        <time>2022-02-09T12:15:43Z</time>
      </trkpt>
      <trkpt lat="42.86616" lon="0.16137">
        <ele>2460.15</ele>
        <time>2022-02-09T12:15:44Z</time>
      </trkpt>
      <trkpt lat="42.86617" lon="0.16139">
        <ele>2457.75</ele>
        <time>2022-02-09T12:15:45Z</time>
      </trkpt>
      <trkpt lat="42.86617" lon="0.16139">
        <ele>2455.82</ele>
        <time>2022-02-09T12:15:48Z</time>
      </trkpt>
      <trkpt lat="42.86617" lon="0.16137">
        <ele>2459.19</ele>
        <time>2022-02-09T12:15:50Z</time>
      </trkpt>
      <trkpt lat="42.86617" lon="0.16136">
        <ele>2455.34</ele>
        <time>2022-02-09T12:15:51Z</time>
      </trkpt>
      <trkpt lat="42.86617" lon="0.16134">
        <ele>2458.71</ele>
        <time>2022-02-09T12:15:53Z</time>
      </trkpt>
      <trkpt lat="42.86618" lon="0.16134">
        <ele>2455.34</ele>
        <time>2022-02-09T12:15:54Z</time>
      </trkpt>
      <trkpt lat="42.86616" lon="0.16135">
        <ele>2459.19</ele>
        <time>2022-02-09T12:16:03Z</time>
      </trkpt>
      <trkpt lat="42.86616" lon="0.16137">
        <ele>2451.98</ele>
        <time>2022-02-09T12:16:05Z</time>
      </trkpt>
      <trkpt lat="42.86616" lon="0.16137">
        <ele>2451.98</ele>
        <time>2022-02-09T12:16:06Z</time>
      </trkpt>
      <trkpt lat="42.86616" lon="0.16137">
        <ele>2461.11</ele>
        <time>2022-02-09T12:16:07Z</time>
      </trkpt>
      <trkpt lat="42.86616" lon="0.16138">
        <ele>2466.4</ele>
        <time>2022-02-09T12:16:08Z</time>
      </trkpt>
      <trkpt lat="42.86616" lon="0.16139">
        <ele>2457.27</ele>
        <time>2022-02-09T12:16:09Z</time>
      </trkpt>
      <trkpt lat="42.86618" lon="0.16136">
        <ele>2457.75</ele>
        <time>2022-02-09T12:16:29Z</time>
      </trkpt>
      <trkpt lat="42.86617" lon="0.16139">
        <ele>2454.86</ele>
        <time>2022-02-09T12:16:41Z</time>
      </trkpt>
      <trkpt lat="42.86617" lon="0.16139">
        <ele>2456.79</ele>
        <time>2022-02-09T12:16:43Z</time>
      </trkpt>
      <trkpt lat="42.86617" lon="0.16139">
        <ele>2463.04</ele>
        <time>2022-02-09T12:16:46Z</time>
      </trkpt>
      <trkpt lat="42.86616" lon="0.16139">
        <ele>2457.75</ele>
        <time>2022-02-09T12:16:47Z</time>
      </trkpt>
      <trkpt lat="42.86613" lon="0.16143">
        <ele>2458.23</ele>
        <time>2022-02-09T12:16:58Z</time>
      </trkpt>
      <trkpt lat="42.86609" lon="0.16149">
        <ele>2458.71</ele>
        <time>2022-02-09T12:17:09Z</time>
      </trkpt>
      <trkpt lat="42.86606" lon="0.16155">
        <ele>2460.15</ele>
        <time>2022-02-09T12:17:20Z</time>
      </trkpt>
      <trkpt lat="42.86604" lon="0.16162">
        <ele>2462.07</ele>
        <time>2022-02-09T12:17:31Z</time>
      </trkpt>
      <trkpt lat="42.86602" lon="0.16166">
        <ele>2463.52</ele>
        <time>2022-02-09T12:17:41Z</time>
      </trkpt>
      <trkpt lat="42.86597" lon="0.16171">
        <ele>2463.52</ele>
        <time>2022-02-09T12:17:55Z</time>
      </trkpt>
      <trkpt lat="42.86593" lon="0.16174">
        <ele>2464</ele>
        <time>2022-02-09T12:18:07Z</time>
      </trkpt>
      <trkpt lat="42.86589" lon="0.1618">
        <ele>2464.48</ele>
        <time>2022-02-09T12:18:20Z</time>
      </trkpt>
      <trkpt lat="42.86588" lon="0.16183">
        <ele>2465.44</ele>
        <time>2022-02-09T12:18:26Z</time>
      </trkpt>
      <trkpt lat="42.86586" lon="0.16183">
        <ele>2466.88</ele>
        <time>2022-02-09T12:18:31Z</time>
      </trkpt>
      <trkpt lat="42.86583" lon="0.16184">
        <ele>2467.84</ele>
        <time>2022-02-09T12:18:40Z</time>
      </trkpt>
      <trkpt lat="42.8658" lon="0.16187">
        <ele>2468.32</ele>
        <time>2022-02-09T12:18:53Z</time>
      </trkpt>
      <trkpt lat="42.86576" lon="0.16193">
        <ele>2469.76</ele>
        <time>2022-02-09T12:19:09Z</time>
      </trkpt>
      <trkpt lat="42.86573" lon="0.16196">
        <ele>2471.21</ele>
        <time>2022-02-09T12:19:21Z</time>
      </trkpt>
      <trkpt lat="42.86567" lon="0.16198">
        <ele>2472.17</ele>
        <time>2022-02-09T12:19:36Z</time>
      </trkpt>
      <trkpt lat="42.86565" lon="0.162">
        <ele>2473.13</ele>
        <time>2022-02-09T12:19:52Z</time>
      </trkpt>
      <trkpt lat="42.86561" lon="0.16203">
        <ele>2473.61</ele>
        <time>2022-02-09T12:20:08Z</time>
      </trkpt>
      <trkpt lat="42.86558" lon="0.16205">
        <ele>2475.05</ele>
        <time>2022-02-09T12:20:20Z</time>
      </trkpt>
      <trkpt lat="42.86557" lon="0.16205">
        <ele>2474.09</ele>
        <time>2022-02-09T12:20:23Z</time>
      </trkpt>
      <trkpt lat="42.86556" lon="0.16205">
        <ele>2475.53</ele>
        <time>2022-02-09T12:20:26Z</time>
      </trkpt>
      <trkpt lat="42.86554" lon="0.16207">
        <ele>2475.53</ele>
        <time>2022-02-09T12:20:41Z</time>
      </trkpt>
      <trkpt lat="42.86553" lon="0.16205">
        <ele>2475.53</ele>
        <time>2022-02-09T12:21:02Z</time>
      </trkpt>
      <trkpt lat="42.86555" lon="0.16201">
        <ele>2475.53</ele>
        <time>2022-02-09T12:21:23Z</time>
      </trkpt>
      <trkpt lat="42.86555" lon="0.16199">
        <ele>2475.53</ele>
        <time>2022-02-09T12:21:51Z</time>
      </trkpt>
      <trkpt lat="42.86551" lon="0.16203">
        <ele>2476.01</ele>
        <time>2022-02-09T12:22:09Z</time>
      </trkpt>
      <trkpt lat="42.86547" lon="0.16201">
        <ele>2477.94</ele>
        <time>2022-02-09T12:22:18Z</time>
      </trkpt>
      <trkpt lat="42.86543" lon="0.16199">
        <ele>2478.9</ele>
        <time>2022-02-09T12:22:30Z</time>
      </trkpt>
      <trkpt lat="42.86539" lon="0.16201">
        <ele>2480.82</ele>
        <time>2022-02-09T12:22:46Z</time>
      </trkpt>
      <trkpt lat="42.86535" lon="0.16206">
        <ele>2480.82</ele>
        <time>2022-02-09T12:23:01Z</time>
      </trkpt>
      <trkpt lat="42.86532" lon="0.16212">
        <ele>2484.18</ele>
        <time>2022-02-09T12:23:13Z</time>
      </trkpt>
      <trkpt lat="42.86532" lon="0.16212">
        <ele>2484.18</ele>
        <time>2022-02-09T12:23:14Z</time>
      </trkpt>
      <trkpt lat="42.86529" lon="0.16217">
        <ele>2484.66</ele>
        <time>2022-02-09T12:23:30Z</time>
      </trkpt>
      <trkpt lat="42.86529" lon="0.16226">
        <ele>2487.07</ele>
        <time>2022-02-09T12:23:48Z</time>
      </trkpt>
      <trkpt lat="42.86528" lon="0.16228">
        <ele>2487.07</ele>
        <time>2022-02-09T12:23:54Z</time>
      </trkpt>
      <trkpt lat="42.8653" lon="0.16235">
        <ele>2487.55</ele>
        <time>2022-02-09T12:24:10Z</time>
      </trkpt>
      <trkpt lat="42.86527" lon="0.16238">
        <ele>2489.47</ele>
        <time>2022-02-09T12:24:24Z</time>
      </trkpt>
      <trkpt lat="42.86523" lon="0.16237">
        <ele>2490.91</ele>
        <time>2022-02-09T12:24:36Z</time>
      </trkpt>
      <trkpt lat="42.86523" lon="0.16234">
        <ele>2491.87</ele>
        <time>2022-02-09T12:24:48Z</time>
      </trkpt>
      <trkpt lat="42.86521" lon="0.16237">
        <ele>2493.32</ele>
        <time>2022-02-09T12:25:00Z</time>
      </trkpt>
      <trkpt lat="42.86523" lon="0.16236">
        <ele>2493.32</ele>
        <time>2022-02-09T12:25:15Z</time>
      </trkpt>
      <trkpt lat="42.86524" lon="0.16236">
        <ele>2491.87</ele>
        <time>2022-02-09T12:25:17Z</time>
      </trkpt>
      <trkpt lat="42.8652" lon="0.16237">
        <ele>2493.8</ele>
        <time>2022-02-09T12:25:22Z</time>
      </trkpt>
      <trkpt lat="42.86512" lon="0.16237">
        <ele>2494.28</ele>
        <time>2022-02-09T12:25:33Z</time>
      </trkpt>
      <trkpt lat="42.86508" lon="0.16238">
        <ele>2496.2</ele>
        <time>2022-02-09T12:25:47Z</time>
      </trkpt>
      <trkpt lat="42.86507" lon="0.16238">
        <ele>2496.2</ele>
        <time>2022-02-09T12:25:48Z</time>
      </trkpt>
      <trkpt lat="42.86507" lon="0.16238">
        <ele>2494.76</ele>
        <time>2022-02-09T12:25:50Z</time>
      </trkpt>
      <trkpt lat="42.86505" lon="0.16235">
        <ele>2497.16</ele>
        <time>2022-02-09T12:26:03Z</time>
      </trkpt>
      <trkpt lat="42.865" lon="0.16238">
        <ele>2497.64</ele>
        <time>2022-02-09T12:26:16Z</time>
      </trkpt>
      <trkpt lat="42.86499" lon="0.16236">
        <ele>2499.57</ele>
        <time>2022-02-09T12:26:30Z</time>
      </trkpt>
      <trkpt lat="42.86498" lon="0.16238">
        <ele>2500.05</ele>
        <time>2022-02-09T12:26:35Z</time>
      </trkpt>
      <trkpt lat="42.86502" lon="0.16243">
        <ele>2499.08</ele>
        <time>2022-02-09T12:26:49Z</time>
      </trkpt>
      <trkpt lat="42.86501" lon="0.16248">
        <ele>2502.45</ele>
        <time>2022-02-09T12:26:57Z</time>
      </trkpt>
      <trkpt lat="42.865" lon="0.16256">
        <ele>2503.41</ele>
        <time>2022-02-09T12:27:10Z</time>
      </trkpt>
      <trkpt lat="42.86501" lon="0.16256">
        <ele>2498.6</ele>
        <time>2022-02-09T12:27:12Z</time>
      </trkpt>
      <trkpt lat="42.86501" lon="0.16257">
        <ele>2507.26</ele>
        <time>2022-02-09T12:27:13Z</time>
      </trkpt>
      <trkpt lat="42.86502" lon="0.16258">
        <ele>2502.93</ele>
        <time>2022-02-09T12:27:14Z</time>
      </trkpt>
      <trkpt lat="42.86504" lon="0.16262">
        <ele>2503.41</ele>
        <time>2022-02-09T12:27:28Z</time>
      </trkpt>
      <trkpt lat="42.86504" lon="0.16266">
        <ele>2505.33</ele>
        <time>2022-02-09T12:27:43Z</time>
      </trkpt>
      <trkpt lat="42.86506" lon="0.16271">
        <ele>2505.33</ele>
        <time>2022-02-09T12:27:56Z</time>
      </trkpt>
      <trkpt lat="42.86507" lon="0.16272">
        <ele>2506.77</ele>
        <time>2022-02-09T12:27:59Z</time>
      </trkpt>
      <trkpt lat="42.86506" lon="0.16275">
        <ele>2507.26</ele>
        <time>2022-02-09T12:28:09Z</time>
      </trkpt>
      <trkpt lat="42.865" lon="0.16275">
        <ele>2507.26</ele>
        <time>2022-02-09T12:28:28Z</time>
      </trkpt>
      <trkpt lat="42.86498" lon="0.16272">
        <ele>2510.14</ele>
        <time>2022-02-09T12:28:39Z</time>
      </trkpt>
      <trkpt lat="42.86496" lon="0.16269">
        <ele>2509.18</ele>
        <time>2022-02-09T12:28:53Z</time>
      </trkpt>
      <trkpt lat="42.86494" lon="0.16269">
        <ele>2510.14</ele>
        <time>2022-02-09T12:28:59Z</time>
      </trkpt>
      <trkpt lat="42.8649" lon="0.16267">
        <ele>2512.06</ele>
        <time>2022-02-09T12:29:09Z</time>
      </trkpt>
      <trkpt lat="42.86485" lon="0.16266">
        <ele>2510.62</ele>
        <time>2022-02-09T12:29:22Z</time>
      </trkpt>
      <trkpt lat="42.86485" lon="0.16266">
        <ele>2513.98</ele>
        <time>2022-02-09T12:29:23Z</time>
      </trkpt>
      <trkpt lat="42.86483" lon="0.16265">
        <ele>2513.98</ele>
        <time>2022-02-09T12:29:27Z</time>
      </trkpt>
      <trkpt lat="42.86477" lon="0.16261">
        <ele>2515.43</ele>
        <time>2022-02-09T12:29:44Z</time>
      </trkpt>
      <trkpt lat="42.86472" lon="0.16259">
        <ele>2514.47</ele>
        <time>2022-02-09T12:29:59Z</time>
      </trkpt>
      <trkpt lat="42.8647" lon="0.16255">
        <ele>2514.95</ele>
        <time>2022-02-09T12:30:10Z</time>
      </trkpt>
      <trkpt lat="42.86468" lon="0.16252">
        <ele>2515.91</ele>
        <time>2022-02-09T12:30:32Z</time>
      </trkpt>
      <trkpt lat="42.86467" lon="0.16252">
        <ele>2517.35</ele>
        <time>2022-02-09T12:30:36Z</time>
      </trkpt>
      <trkpt lat="42.86464" lon="0.16248">
        <ele>2518.79</ele>
        <time>2022-02-09T12:30:50Z</time>
      </trkpt>
      <trkpt lat="42.86462" lon="0.16244">
        <ele>2518.79</ele>
        <time>2022-02-09T12:31:02Z</time>
      </trkpt>
      <trkpt lat="42.86462" lon="0.16241">
        <ele>2522.64</ele>
        <time>2022-02-09T12:31:11Z</time>
      </trkpt>
      <trkpt lat="42.86462" lon="0.1624">
        <ele>2519.75</ele>
        <time>2022-02-09T12:31:13Z</time>
      </trkpt>
      <trkpt lat="42.86461" lon="0.16238">
        <ele>2522.16</ele>
        <time>2022-02-09T12:31:26Z</time>
      </trkpt>
      <trkpt lat="42.8646" lon="0.16236">
        <ele>2521.19</ele>
        <time>2022-02-09T12:31:39Z</time>
      </trkpt>
      <trkpt lat="42.86459" lon="0.16235">
        <ele>2522.64</ele>
        <time>2022-02-09T12:31:41Z</time>
      </trkpt>
      <trkpt lat="42.86458" lon="0.16231">
        <ele>2524.08</ele>
        <time>2022-02-09T12:31:54Z</time>
      </trkpt>
      <trkpt lat="42.86457" lon="0.16232">
        <ele>2522.64</ele>
        <time>2022-02-09T12:31:56Z</time>
      </trkpt>
      <trkpt lat="42.86454" lon="0.16231">
        <ele>2524.08</ele>
        <time>2022-02-09T12:32:14Z</time>
      </trkpt>
      <trkpt lat="42.86451" lon="0.16225">
        <ele>2524.08</ele>
        <time>2022-02-09T12:32:31Z</time>
      </trkpt>
      <trkpt lat="42.86451" lon="0.16224">
        <ele>2525.04</ele>
        <time>2022-02-09T12:32:33Z</time>
      </trkpt>
      <trkpt lat="42.86451" lon="0.1622">
        <ele>2526</ele>
        <time>2022-02-09T12:32:47Z</time>
      </trkpt>
      <trkpt lat="42.86449" lon="0.16215">
        <ele>2527.92</ele>
        <time>2022-02-09T12:33:04Z</time>
      </trkpt>
      <trkpt lat="42.86444" lon="0.16213">
        <ele>2527.92</ele>
        <time>2022-02-09T12:33:17Z</time>
      </trkpt>
      <trkpt lat="42.86442" lon="0.16209">
        <ele>2529.37</ele>
        <time>2022-02-09T12:33:30Z</time>
      </trkpt>
      <trkpt lat="42.86441" lon="0.16204">
        <ele>2530.33</ele>
        <time>2022-02-09T12:33:55Z</time>
      </trkpt>
      <trkpt lat="42.8644" lon="0.16202">
        <ele>2531.29</ele>
        <time>2022-02-09T12:34:08Z</time>
      </trkpt>
      <trkpt lat="42.86439" lon="0.16202">
        <ele>2532.73</ele>
        <time>2022-02-09T12:34:24Z</time>
      </trkpt>
      <trkpt lat="42.86438" lon="0.162">
        <ele>2533.69</ele>
        <time>2022-02-09T12:34:38Z</time>
      </trkpt>
      <trkpt lat="42.86439" lon="0.16197">
        <ele>2530.33</ele>
        <time>2022-02-09T12:34:47Z</time>
      </trkpt>
      <trkpt lat="42.86439" lon="0.16197">
        <ele>2535.61</ele>
        <time>2022-02-09T12:34:48Z</time>
      </trkpt>
      <trkpt lat="42.86437" lon="0.16196">
        <ele>2535.13</ele>
        <time>2022-02-09T12:34:59Z</time>
      </trkpt>
      <trkpt lat="42.86434" lon="0.16193">
        <ele>2535.13</ele>
        <time>2022-02-09T12:35:14Z</time>
      </trkpt>
      <trkpt lat="42.86432" lon="0.16187">
        <ele>2537.06</ele>
        <time>2022-02-09T12:35:28Z</time>
      </trkpt>
      <trkpt lat="42.86432" lon="0.16186">
        <ele>2535.61</ele>
        <time>2022-02-09T12:35:30Z</time>
      </trkpt>
      <trkpt lat="42.8643" lon="0.1618">
        <ele>2538.5</ele>
        <time>2022-02-09T12:35:46Z</time>
      </trkpt>
      <trkpt lat="42.8643" lon="0.16176">
        <ele>2538.98</ele>
        <time>2022-02-09T12:35:59Z</time>
      </trkpt>
      <trkpt lat="42.86426" lon="0.16176">
        <ele>2541.86</ele>
        <time>2022-02-09T12:36:12Z</time>
      </trkpt>
      <trkpt lat="42.86425" lon="0.16176">
        <ele>2538.98</ele>
        <time>2022-02-09T12:36:16Z</time>
      </trkpt>
      <trkpt lat="42.86421" lon="0.16178">
        <ele>2540.42</ele>
        <time>2022-02-09T12:36:25Z</time>
      </trkpt>
      <trkpt lat="42.86417" lon="0.16181">
        <ele>2542.82</ele>
        <time>2022-02-09T12:36:36Z</time>
      </trkpt>
      <trkpt lat="42.86414" lon="0.16183">
        <ele>2542.82</ele>
        <time>2022-02-09T12:36:51Z</time>
      </trkpt>
      <trkpt lat="42.86416" lon="0.16179">
        <ele>2542.82</ele>
        <time>2022-02-09T12:37:02Z</time>
      </trkpt>
      <trkpt lat="42.86416" lon="0.16178">
        <ele>2544.75</ele>
        <time>2022-02-09T12:37:14Z</time>
      </trkpt>
      <trkpt lat="42.86413" lon="0.16179">
        <ele>2545.71</ele>
        <time>2022-02-09T12:37:27Z</time>
      </trkpt>
      <trkpt lat="42.86411" lon="0.16181">
        <ele>2548.11</ele>
        <time>2022-02-09T12:37:37Z</time>
      </trkpt>
      <trkpt lat="42.86411" lon="0.16181">
        <ele>2546.19</ele>
        <time>2022-02-09T12:37:39Z</time>
      </trkpt>
      <trkpt lat="42.86411" lon="0.16175">
        <ele>2548.59</ele>
        <time>2022-02-09T12:37:55Z</time>
      </trkpt>
      <trkpt lat="42.86408" lon="0.16174">
        <ele>2549.55</ele>
        <time>2022-02-09T12:38:04Z</time>
      </trkpt>
      <trkpt lat="42.86406" lon="0.16173">
        <ele>2549.55</ele>
        <time>2022-02-09T12:38:16Z</time>
      </trkpt>
      <trkpt lat="42.86406" lon="0.16167">
        <ele>2550.51</ele>
        <time>2022-02-09T12:38:31Z</time>
      </trkpt>
      <trkpt lat="42.86408" lon="0.16163">
        <ele>2551</ele>
        <time>2022-02-09T12:38:46Z</time>
      </trkpt>
      <trkpt lat="42.86408" lon="0.16163">
        <ele>2549.55</ele>
        <time>2022-02-09T12:38:50Z</time>
      </trkpt>
      <trkpt lat="42.86409" lon="0.16163">
        <ele>2551.48</ele>
        <time>2022-02-09T12:38:52Z</time>
      </trkpt>
      <trkpt lat="42.86406" lon="0.16159">
        <ele>2551.48</ele>
        <time>2022-02-09T12:39:05Z</time>
      </trkpt>
      <trkpt lat="42.86405" lon="0.16157">
        <ele>2552.44</ele>
        <time>2022-02-09T12:39:17Z</time>
      </trkpt>
      <trkpt lat="42.86403" lon="0.1615">
        <ele>2555.32</ele>
        <time>2022-02-09T12:39:32Z</time>
      </trkpt>
      <trkpt lat="42.86404" lon="0.16149">
        <ele>2554.36</ele>
        <time>2022-02-09T12:39:49Z</time>
      </trkpt>
      <trkpt lat="42.86403" lon="0.1615">
        <ele>2553.88</ele>
        <time>2022-02-09T12:40:04Z</time>
      </trkpt>
      <trkpt lat="42.86402" lon="0.16151">
        <ele>2556.28</ele>
        <time>2022-02-09T12:40:07Z</time>
      </trkpt>
      <trkpt lat="42.86399" lon="0.16154">
        <ele>2557.24</ele>
        <time>2022-02-09T12:40:19Z</time>
      </trkpt>
      <trkpt lat="42.86398" lon="0.16157">
        <ele>2558.21</ele>
        <time>2022-02-09T12:40:26Z</time>
      </trkpt>
      <trkpt lat="42.86394" lon="0.16159">
        <ele>2559.65</ele>
        <time>2022-02-09T12:40:40Z</time>
      </trkpt>
      <trkpt lat="42.8639" lon="0.16162">
        <ele>2561.09</ele>
        <time>2022-02-09T12:40:54Z</time>
      </trkpt>
      <trkpt lat="42.86392" lon="0.16163">
        <ele>2559.65</ele>
        <time>2022-02-09T12:41:10Z</time>
      </trkpt>
      <trkpt lat="42.86388" lon="0.16163">
        <ele>2563.01</ele>
        <time>2022-02-09T12:41:20Z</time>
      </trkpt>
      <trkpt lat="42.86388" lon="0.16163">
        <ele>2563.01</ele>
        <time>2022-02-09T12:41:21Z</time>
      </trkpt>
      <trkpt lat="42.86387" lon="0.16164">
        <ele>2561.57</ele>
        <time>2022-02-09T12:41:23Z</time>
      </trkpt>
      <trkpt lat="42.86386" lon="0.16164">
        <ele>2563.01</ele>
        <time>2022-02-09T12:41:26Z</time>
      </trkpt>
      <trkpt lat="42.86382" lon="0.16166">
        <ele>2564.45</ele>
        <time>2022-02-09T12:41:37Z</time>
      </trkpt>
      <trkpt lat="42.86379" lon="0.1617">
        <ele>2566.38</ele>
        <time>2022-02-09T12:41:50Z</time>
      </trkpt>
      <trkpt lat="42.86378" lon="0.1617">
        <ele>2564.93</ele>
        <time>2022-02-09T12:41:52Z</time>
      </trkpt>
      <trkpt lat="42.86377" lon="0.16172">
        <ele>2566.86</ele>
        <time>2022-02-09T12:41:58Z</time>
      </trkpt>
      <trkpt lat="42.86374" lon="0.16174">
        <ele>2568.3</ele>
        <time>2022-02-09T12:42:11Z</time>
      </trkpt>
      <trkpt lat="42.86369" lon="0.16174">
        <ele>2569.74</ele>
        <time>2022-02-09T12:42:25Z</time>
      </trkpt>
      <trkpt lat="42.86367" lon="0.16175">
        <ele>2570.22</ele>
        <time>2022-02-09T12:42:39Z</time>
      </trkpt>
      <trkpt lat="42.86366" lon="0.16172">
        <ele>2570.7</ele>
        <time>2022-02-09T12:42:51Z</time>
      </trkpt>
      <trkpt lat="42.86365" lon="0.16169">
        <ele>2571.66</ele>
        <time>2022-02-09T12:43:12Z</time>
      </trkpt>
      <trkpt lat="42.86365" lon="0.16162">
        <ele>2571.18</ele>
        <time>2022-02-09T12:43:23Z</time>
      </trkpt>
      <trkpt lat="42.86369" lon="0.16154">
        <ele>2572.63</ele>
        <time>2022-02-09T12:43:37Z</time>
      </trkpt>
      <trkpt lat="42.8637" lon="0.16148">
        <ele>2573.59</ele>
        <time>2022-02-09T12:43:48Z</time>
      </trkpt>
      <trkpt lat="42.86374" lon="0.16142">
        <ele>2575.99</ele>
        <time>2022-02-09T12:44:01Z</time>
      </trkpt>
      <trkpt lat="42.86374" lon="0.16135">
        <ele>2576.95</ele>
        <time>2022-02-09T12:44:15Z</time>
      </trkpt>
      <trkpt lat="42.86376" lon="0.16128">
        <ele>2578.39</ele>
        <time>2022-02-09T12:44:27Z</time>
      </trkpt>
      <trkpt lat="42.86379" lon="0.16118">
        <ele>2580.8</ele>
        <time>2022-02-09T12:44:42Z</time>
      </trkpt>
      <trkpt lat="42.86379" lon="0.16117">
        <ele>2580.8</ele>
        <time>2022-02-09T12:44:43Z</time>
      </trkpt>
      <trkpt lat="42.86382" lon="0.1611">
        <ele>2580.8</ele>
        <time>2022-02-09T12:44:56Z</time>
      </trkpt>
      <trkpt lat="42.86386" lon="0.16101">
        <ele>2580.8</ele>
        <time>2022-02-09T12:45:08Z</time>
      </trkpt>
      <trkpt lat="42.86389" lon="0.16092">
        <ele>2580.8</ele>
        <time>2022-02-09T12:45:20Z</time>
      </trkpt>
      <trkpt lat="42.86389" lon="0.1609">
        <ele>2580.8</ele>
        <time>2022-02-09T12:45:21Z</time>
      </trkpt>
      <trkpt lat="42.86389" lon="0.16082">
        <ele>2580.8</ele>
        <time>2022-02-09T12:45:31Z</time>
      </trkpt>
      <trkpt lat="42.8639" lon="0.16073">
        <ele>2582.72</ele>
        <time>2022-02-09T12:45:42Z</time>
      </trkpt>
      <trkpt lat="42.86394" lon="0.16066">
        <ele>2584.16</ele>
        <time>2022-02-09T12:45:54Z</time>
      </trkpt>
      <trkpt lat="42.86394" lon="0.16062">
        <ele>2585.12</ele>
        <time>2022-02-09T12:46:08Z</time>
      </trkpt>
      <trkpt lat="42.86394" lon="0.16062">
        <ele>2585.6</ele>
        <time>2022-02-09T12:46:23Z</time>
      </trkpt>
      <trkpt lat="42.86394" lon="0.1606">
        <ele>2584.64</ele>
        <time>2022-02-09T12:46:29Z</time>
      </trkpt>
      <trkpt lat="42.86395" lon="0.16058">
        <ele>2586.08</ele>
        <time>2022-02-09T12:46:33Z</time>
      </trkpt>
      <trkpt lat="42.86398" lon="0.16054">
        <ele>2586.56</ele>
        <time>2022-02-09T12:46:48Z</time>
      </trkpt>
      <trkpt lat="42.86397" lon="0.16049">
        <ele>2587.53</ele>
        <time>2022-02-09T12:47:01Z</time>
      </trkpt>
      <trkpt lat="42.86396" lon="0.16044">
        <ele>2588.49</ele>
        <time>2022-02-09T12:47:14Z</time>
      </trkpt>
      <trkpt lat="42.86395" lon="0.16043">
        <ele>2590.41</ele>
        <time>2022-02-09T12:47:20Z</time>
      </trkpt>
      <trkpt lat="42.86394" lon="0.16041">
        <ele>2589.45</ele>
        <time>2022-02-09T12:47:25Z</time>
      </trkpt>
      <trkpt lat="42.86393" lon="0.16037">
        <ele>2592.33</ele>
        <time>2022-02-09T12:47:38Z</time>
      </trkpt>
      <trkpt lat="42.86393" lon="0.16036">
        <ele>2591.85</ele>
        <time>2022-02-09T12:47:42Z</time>
      </trkpt>
      <trkpt lat="42.86395" lon="0.16036">
        <ele>2591.85</ele>
        <time>2022-02-09T12:47:55Z</time>
      </trkpt>
      <trkpt lat="42.86396" lon="0.16034">
        <ele>2593.29</ele>
        <time>2022-02-09T12:48:10Z</time>
      </trkpt>
      <trkpt lat="42.864" lon="0.1603">
        <ele>2594.74</ele>
        <time>2022-02-09T12:48:23Z</time>
      </trkpt>
      <trkpt lat="42.86401" lon="0.16025">
        <ele>2595.7</ele>
        <time>2022-02-09T12:48:38Z</time>
      </trkpt>
      <trkpt lat="42.86397" lon="0.16022">
        <ele>2597.14</ele>
        <time>2022-02-09T12:48:49Z</time>
      </trkpt>
      <trkpt lat="42.86399" lon="0.16016">
        <ele>2598.58</ele>
        <time>2022-02-09T12:49:02Z</time>
      </trkpt>
      <trkpt lat="42.86402" lon="0.16014">
        <ele>2599.06</ele>
        <time>2022-02-09T12:49:16Z</time>
      </trkpt>
      <trkpt lat="42.86404" lon="0.16011">
        <ele>2598.58</ele>
        <time>2022-02-09T12:49:26Z</time>
      </trkpt>
      <trkpt lat="42.86406" lon="0.16008">
        <ele>2598.58</ele>
        <time>2022-02-09T12:49:43Z</time>
      </trkpt>
      <trkpt lat="42.86407" lon="0.16008">
        <ele>2600.5</ele>
        <time>2022-02-09T12:49:45Z</time>
      </trkpt>
      <trkpt lat="42.86407" lon="0.16">
        <ele>2601.95</ele>
        <time>2022-02-09T12:49:58Z</time>
      </trkpt>
      <trkpt lat="42.86409" lon="0.15996">
        <ele>2602.91</ele>
        <time>2022-02-09T12:50:11Z</time>
      </trkpt>
      <trkpt lat="42.86411" lon="0.1599">
        <ele>2602.91</ele>
        <time>2022-02-09T12:50:27Z</time>
      </trkpt>
      <trkpt lat="42.86414" lon="0.15988">
        <ele>2603.39</ele>
        <time>2022-02-09T12:50:42Z</time>
      </trkpt>
      <trkpt lat="42.86414" lon="0.15987">
        <ele>2603.39</ele>
        <time>2022-02-09T12:51:09Z</time>
      </trkpt>
      <trkpt lat="42.86415" lon="0.15987">
        <ele>2603.39</ele>
        <time>2022-02-09T12:51:39Z</time>
      </trkpt>
      <trkpt lat="42.86417" lon="0.15981">
        <ele>2605.79</ele>
        <time>2022-02-09T12:51:57Z</time>
      </trkpt>
      <trkpt lat="42.86417" lon="0.1598">
        <ele>2605.79</ele>
        <time>2022-02-09T12:51:58Z</time>
      </trkpt>
      <trkpt lat="42.86419" lon="0.15971">
        <ele>2607.71</ele>
        <time>2022-02-09T12:52:12Z</time>
      </trkpt>
      <trkpt lat="42.86419" lon="0.15968">
        <ele>2607.71</ele>
        <time>2022-02-09T12:52:27Z</time>
      </trkpt>
      <trkpt lat="42.86419" lon="0.15967">
        <ele>2607.71</ele>
        <time>2022-02-09T12:52:53Z</time>
      </trkpt>
      <trkpt lat="42.8642" lon="0.15973">
        <ele>2608.19</ele>
        <time>2022-02-09T12:53:08Z</time>
      </trkpt>
      <trkpt lat="42.86421" lon="0.15973">
        <ele>2608.19</ele>
        <time>2022-02-09T12:53:09Z</time>
      </trkpt>
      <trkpt lat="42.86422" lon="0.15971">
        <ele>2608.19</ele>
        <time>2022-02-09T12:53:20Z</time>
      </trkpt>
      <trkpt lat="42.86425" lon="0.15969">
        <ele>2608.19</ele>
        <time>2022-02-09T12:53:41Z</time>
      </trkpt>
      <trkpt lat="42.8642" lon="0.15965">
        <ele>2608.67</ele>
        <time>2022-02-09T12:54:00Z</time>
      </trkpt>
      <trkpt lat="42.86422" lon="0.15964">
        <ele>2608.67</ele>
        <time>2022-02-09T12:54:16Z</time>
      </trkpt>
      <trkpt lat="42.86421" lon="0.15964">
        <ele>2609.16</ele>
        <time>2022-02-09T12:54:26Z</time>
      </trkpt>
      <trkpt lat="42.86421" lon="0.15966">
        <ele>2607.71</ele>
        <time>2022-02-09T12:54:44Z</time>
      </trkpt>
      <trkpt lat="42.86422" lon="0.15965">
        <ele>2608.67</ele>
        <time>2022-02-09T12:55:07Z</time>
      </trkpt>
      <trkpt lat="42.86423" lon="0.15964">
        <ele>2608.19</ele>
        <time>2022-02-09T12:55:29Z</time>
      </trkpt>
      <trkpt lat="42.86423" lon="0.15964">
        <ele>2609.16</ele>
        <time>2022-02-09T12:55:54Z</time>
      </trkpt>
      <trkpt lat="42.86423" lon="0.15965">
        <ele>2609.16</ele>
        <time>2022-02-09T12:56:22Z</time>
      </trkpt>
      <trkpt lat="42.86424" lon="0.15965">
        <ele>2609.16</ele>
        <time>2022-02-09T12:56:45Z</time>
      </trkpt>
      <trkpt lat="42.86426" lon="0.15965">
        <ele>2609.16</ele>
        <time>2022-02-09T12:57:12Z</time>
      </trkpt>
      <trkpt lat="42.86424" lon="0.15965">
        <ele>2609.16</ele>
        <time>2022-02-09T12:57:34Z</time>
      </trkpt>
      <trkpt lat="42.86423" lon="0.15963">
        <ele>2609.16</ele>
        <time>2022-02-09T12:57:57Z</time>
      </trkpt>
      <trkpt lat="42.86426" lon="0.15963">
        <ele>2609.16</ele>
        <time>2022-02-09T12:58:16Z</time>
      </trkpt>
      <trkpt lat="42.86421" lon="0.15968">
        <ele>2609.16</ele>
        <time>2022-02-09T12:58:31Z</time>
      </trkpt>
      <trkpt lat="42.86419" lon="0.15972">
        <ele>2609.16</ele>
        <time>2022-02-09T12:58:35Z</time>
      </trkpt>
      <trkpt lat="42.86416" lon="0.15975">
        <ele>2609.64</ele>
        <time>2022-02-09T12:58:52Z</time>
      </trkpt>
      <trkpt lat="42.86419" lon="0.15967">
        <ele>2609.64</ele>
        <time>2022-02-09T12:59:10Z</time>
      </trkpt>
      <trkpt lat="42.86423" lon="0.15966">
        <ele>2609.64</ele>
        <time>2022-02-09T12:59:32Z</time>
      </trkpt>
      <trkpt lat="42.86425" lon="0.15969">
        <ele>2609.64</ele>
        <time>2022-02-09T12:59:50Z</time>
      </trkpt>
      <trkpt lat="42.86423" lon="0.15967">
        <ele>2609.64</ele>
        <time>2022-02-09T13:00:11Z</time>
      </trkpt>
      <trkpt lat="42.86422" lon="0.15968">
        <ele>2610.12</ele>
        <time>2022-02-09T13:00:30Z</time>
      </trkpt>
      <trkpt lat="42.86423" lon="0.15965">
        <ele>2610.12</ele>
        <time>2022-02-09T13:00:55Z</time>
      </trkpt>
      <trkpt lat="42.86425" lon="0.15967">
        <ele>2610.12</ele>
        <time>2022-02-09T13:01:15Z</time>
      </trkpt>
      <trkpt lat="42.86423" lon="0.15963">
        <ele>2610.12</ele>
        <time>2022-02-09T13:01:36Z</time>
      </trkpt>
      <trkpt lat="42.86423" lon="0.15963">
        <ele>2610.12</ele>
        <time>2022-02-09T13:01:59Z</time>
      </trkpt>
      <trkpt lat="42.86423" lon="0.15967">
        <ele>2610.12</ele>
        <time>2022-02-09T13:02:15Z</time>
      </trkpt>
      <trkpt lat="42.86425" lon="0.15965">
        <ele>2610.12</ele>
        <time>2022-02-09T13:02:42Z</time>
      </trkpt>
      <trkpt lat="42.86421" lon="0.15966">
        <ele>2610.12</ele>
        <time>2022-02-09T13:03:05Z</time>
      </trkpt>
      <trkpt lat="42.86424" lon="0.15966">
        <ele>2610.12</ele>
        <time>2022-02-09T13:03:27Z</time>
      </trkpt>
      <trkpt lat="42.86424" lon="0.15967">
        <ele>2610.12</ele>
        <time>2022-02-09T13:03:54Z</time>
      </trkpt>
      <trkpt lat="42.86423" lon="0.15965">
        <ele>2610.6</ele>
        <time>2022-02-09T13:04:20Z</time>
      </trkpt>
      <trkpt lat="42.86422" lon="0.15963">
        <ele>2610.6</ele>
        <time>2022-02-09T13:04:38Z</time>
      </trkpt>
      <trkpt lat="42.86422" lon="0.15966">
        <ele>2610.6</ele>
        <time>2022-02-09T13:05:00Z</time>
      </trkpt>
      <trkpt lat="42.86423" lon="0.15965">
        <ele>2610.6</ele>
        <time>2022-02-09T13:05:19Z</time>
      </trkpt>
      <trkpt lat="42.8642" lon="0.15966">
        <ele>2610.6</ele>
        <time>2022-02-09T13:05:44Z</time>
      </trkpt>
      <trkpt lat="42.86423" lon="0.15965">
        <ele>2610.6</ele>
        <time>2022-02-09T13:06:03Z</time>
      </trkpt>
      <trkpt lat="42.86424" lon="0.15963">
        <ele>2610.6</ele>
        <time>2022-02-09T13:06:30Z</time>
      </trkpt>
      <trkpt lat="42.86423" lon="0.15965">
        <ele>2610.6</ele>
        <time>2022-02-09T13:06:52Z</time>
      </trkpt>
      <trkpt lat="42.86426" lon="0.15959">
        <ele>2611.08</ele>
        <time>2022-02-09T13:07:14Z</time>
      </trkpt>
      <trkpt lat="42.86424" lon="0.15967">
        <ele>2611.56</ele>
        <time>2022-02-09T13:07:30Z</time>
      </trkpt>
      <trkpt lat="42.86424" lon="0.15962">
        <ele>2610.6</ele>
        <time>2022-02-09T13:07:51Z</time>
      </trkpt>
      <trkpt lat="42.86424" lon="0.15962">
        <ele>2610.6</ele>
        <time>2022-02-09T13:08:15Z</time>
      </trkpt>
      <trkpt lat="42.86423" lon="0.15966">
        <ele>2610.6</ele>
        <time>2022-02-09T13:08:36Z</time>
      </trkpt>
      <trkpt lat="42.86423" lon="0.15962">
        <ele>2610.6</ele>
        <time>2022-02-09T13:08:55Z</time>
      </trkpt>
      <trkpt lat="42.86423" lon="0.15964">
        <ele>2610.6</ele>
        <time>2022-02-09T13:09:13Z</time>
      </trkpt>
      <trkpt lat="42.86426" lon="0.15961">
        <ele>2610.6</ele>
        <time>2022-02-09T13:09:34Z</time>
      </trkpt>
      <trkpt lat="42.86424" lon="0.15962">
        <ele>2612.04</ele>
        <time>2022-02-09T13:09:53Z</time>
      </trkpt>
      <trkpt lat="42.86425" lon="0.15967">
        <ele>2612.04</ele>
        <time>2022-02-09T13:10:11Z</time>
      </trkpt>
      <trkpt lat="42.86422" lon="0.15964">
        <ele>2612.04</ele>
        <time>2022-02-09T13:10:30Z</time>
      </trkpt>
      <trkpt lat="42.86425" lon="0.15963">
        <ele>2612.04</ele>
        <time>2022-02-09T13:10:45Z</time>
      </trkpt>
      <trkpt lat="42.86423" lon="0.15967">
        <ele>2612.04</ele>
        <time>2022-02-09T13:11:05Z</time>
      </trkpt>
      <trkpt lat="42.86423" lon="0.15966">
        <ele>2612.04</ele>
        <time>2022-02-09T13:11:29Z</time>
      </trkpt>
      <trkpt lat="42.86424" lon="0.15965">
        <ele>2612.04</ele>
        <time>2022-02-09T13:11:49Z</time>
      </trkpt>
      <trkpt lat="42.86422" lon="0.15964">
        <ele>2612.04</ele>
        <time>2022-02-09T13:12:09Z</time>
      </trkpt>
      <trkpt lat="42.86423" lon="0.1596">
        <ele>2612.04</ele>
        <time>2022-02-09T13:12:27Z</time>
      </trkpt>
      <trkpt lat="42.86423" lon="0.15963">
        <ele>2612.04</ele>
        <time>2022-02-09T13:12:50Z</time>
      </trkpt>
      <trkpt lat="42.86423" lon="0.15965">
        <ele>2612.04</ele>
        <time>2022-02-09T13:13:12Z</time>
      </trkpt>
      <trkpt lat="42.86424" lon="0.15965">
        <ele>2612.04</ele>
        <time>2022-02-09T13:13:34Z</time>
      </trkpt>
      <trkpt lat="42.86423" lon="0.15966">
        <ele>2612.04</ele>
        <time>2022-02-09T13:13:56Z</time>
      </trkpt>
      <trkpt lat="42.86423" lon="0.15967">
        <ele>2612.04</ele>
        <time>2022-02-09T13:14:17Z</time>
      </trkpt>
      <trkpt lat="42.86423" lon="0.15968">
        <ele>2612.04</ele>
        <time>2022-02-09T13:14:42Z</time>
      </trkpt>
      <trkpt lat="42.86423" lon="0.15966">
        <ele>2612.52</ele>
        <time>2022-02-09T13:15:04Z</time>
      </trkpt>
      <trkpt lat="42.86424" lon="0.15967">
        <ele>2612.52</ele>
        <time>2022-02-09T13:15:26Z</time>
      </trkpt>
      <trkpt lat="42.86423" lon="0.15964">
        <ele>2616.37</ele>
        <time>2022-02-09T13:15:33Z</time>
      </trkpt>
      <trkpt lat="42.86423" lon="0.15963">
        <ele>2612.52</ele>
        <time>2022-02-09T13:15:34Z</time>
      </trkpt>
      <trkpt lat="42.86423" lon="0.15968">
        <ele>2612.52</ele>
        <time>2022-02-09T13:15:58Z</time>
      </trkpt>
      <trkpt lat="42.86424" lon="0.15969">
        <ele>2613</ele>
        <time>2022-02-09T13:16:19Z</time>
      </trkpt>
      <trkpt lat="42.86425" lon="0.15972">
        <ele>2613.48</ele>
        <time>2022-02-09T13:16:41Z</time>
      </trkpt>
      <trkpt lat="42.86423" lon="0.15969">
        <ele>2613.48</ele>
        <time>2022-02-09T13:16:59Z</time>
      </trkpt>
      <trkpt lat="42.86424" lon="0.15971">
        <ele>2613.48</ele>
        <time>2022-02-09T13:17:22Z</time>
      </trkpt>
      <trkpt lat="42.86422" lon="0.15973">
        <ele>2613.96</ele>
        <time>2022-02-09T13:17:42Z</time>
      </trkpt>
      <trkpt lat="42.86423" lon="0.15969">
        <ele>2613.96</ele>
        <time>2022-02-09T13:18:05Z</time>
      </trkpt>
      <trkpt lat="42.86424" lon="0.15962">
        <ele>2613.96</ele>
        <time>2022-02-09T13:18:24Z</time>
      </trkpt>
      <trkpt lat="42.86426" lon="0.15961">
        <ele>2613.96</ele>
        <time>2022-02-09T13:18:48Z</time>
      </trkpt>
      <trkpt lat="42.86425" lon="0.15964">
        <ele>2613.48</ele>
        <time>2022-02-09T13:19:08Z</time>
      </trkpt>
      <trkpt lat="42.86424" lon="0.15966">
        <ele>2614.44</ele>
        <time>2022-02-09T13:19:26Z</time>
      </trkpt>
      <trkpt lat="42.86422" lon="0.15965">
        <ele>2613</ele>
        <time>2022-02-09T13:19:44Z</time>
      </trkpt>
      <trkpt lat="42.8642" lon="0.15973">
        <ele>2611.56</ele>
        <time>2022-02-09T13:20:01Z</time>
      </trkpt>
      <trkpt lat="42.86421" lon="0.15972">
        <ele>2612.52</ele>
        <time>2022-02-09T13:20:13Z</time>
      </trkpt>
      <trkpt lat="42.86416" lon="0.15984">
        <ele>2609.16</ele>
        <time>2022-02-09T13:20:27Z</time>
      </trkpt>
      <trkpt lat="42.86409" lon="0.15999">
        <ele>2605.79</ele>
        <time>2022-02-09T13:20:47Z</time>
      </trkpt>
      <trkpt lat="42.86404" lon="0.16009">
        <ele>2603.39</ele>
        <time>2022-02-09T13:21:04Z</time>
      </trkpt>
      <trkpt lat="42.86397" lon="0.1602">
        <ele>2600.02</ele>
        <time>2022-02-09T13:21:20Z</time>
      </trkpt>
      <trkpt lat="42.86392" lon="0.16031">
        <ele>2596.66</ele>
        <time>2022-02-09T13:21:32Z</time>
      </trkpt>
      <trkpt lat="42.86392" lon="0.16043">
        <ele>2593.77</ele>
        <time>2022-02-09T13:21:46Z</time>
      </trkpt>
      <trkpt lat="42.86391" lon="0.16055">
        <ele>2590.89</ele>
        <time>2022-02-09T13:21:56Z</time>
      </trkpt>
      <trkpt lat="42.86392" lon="0.1607">
        <ele>2587.53</ele>
        <time>2022-02-09T13:22:10Z</time>
      </trkpt>
      <trkpt lat="42.86395" lon="0.1609">
        <ele>2584.64</ele>
        <time>2022-02-09T13:22:27Z</time>
      </trkpt>
      <trkpt lat="42.86402" lon="0.16094">
        <ele>2582.72</ele>
        <time>2022-02-09T13:22:48Z</time>
      </trkpt>
      <trkpt lat="42.86403" lon="0.16092">
        <ele>2581.28</ele>
        <time>2022-02-09T13:23:08Z</time>
      </trkpt>
      <trkpt lat="42.86401" lon="0.16093">
        <ele>2584.16</ele>
        <time>2022-02-09T13:23:24Z</time>
      </trkpt>
      <trkpt lat="42.86399" lon="0.16095">
        <ele>2584.64</ele>
        <time>2022-02-09T13:23:48Z</time>
      </trkpt>
      <trkpt lat="42.86399" lon="0.16091">
        <ele>2584.64</ele>
        <time>2022-02-09T13:24:09Z</time>
      </trkpt>
      <trkpt lat="42.86399" lon="0.1609">
        <ele>2583.2</ele>
        <time>2022-02-09T13:24:12Z</time>
      </trkpt>
      <trkpt lat="42.864" lon="0.16091">
        <ele>2583.2</ele>
        <time>2022-02-09T13:24:29Z</time>
      </trkpt>
      <trkpt lat="42.86408" lon="0.16089">
        <ele>2579.84</ele>
        <time>2022-02-09T13:24:46Z</time>
      </trkpt>
      <trkpt lat="42.86414" lon="0.16079">
        <ele>2578.39</ele>
        <time>2022-02-09T13:25:03Z</time>
      </trkpt>
      <trkpt lat="42.86422" lon="0.16072">
        <ele>2575.51</ele>
        <time>2022-02-09T13:25:20Z</time>
      </trkpt>
      <trkpt lat="42.86432" lon="0.16064">
        <ele>2573.59</ele>
        <time>2022-02-09T13:25:40Z</time>
      </trkpt>
      <trkpt lat="42.86437" lon="0.16059">
        <ele>2571.18</ele>
        <time>2022-02-09T13:25:59Z</time>
      </trkpt>
      <trkpt lat="42.86444" lon="0.16053">
        <ele>2568.78</ele>
        <time>2022-02-09T13:26:17Z</time>
      </trkpt>
      <trkpt lat="42.86453" lon="0.16044">
        <ele>2565.9</ele>
        <time>2022-02-09T13:26:37Z</time>
      </trkpt>
      <trkpt lat="42.86466" lon="0.16044">
        <ele>2563.49</ele>
        <time>2022-02-09T13:26:54Z</time>
      </trkpt>
      <trkpt lat="42.86473" lon="0.16045">
        <ele>2560.61</ele>
        <time>2022-02-09T13:27:13Z</time>
      </trkpt>
      <trkpt lat="42.86482" lon="0.16046">
        <ele>2558.21</ele>
        <time>2022-02-09T13:27:31Z</time>
      </trkpt>
      <trkpt lat="42.86481" lon="0.16046">
        <ele>2556.76</ele>
        <time>2022-02-09T13:27:51Z</time>
      </trkpt>
      <trkpt lat="42.86484" lon="0.16046">
        <ele>2556.28</ele>
        <time>2022-02-09T13:28:12Z</time>
      </trkpt>
      <trkpt lat="42.86487" lon="0.16047">
        <ele>2554.36</ele>
        <time>2022-02-09T13:28:35Z</time>
      </trkpt>
      <trkpt lat="42.86489" lon="0.16049">
        <ele>2553.4</ele>
        <time>2022-02-09T13:28:55Z</time>
      </trkpt>
      <trkpt lat="42.86489" lon="0.16049">
        <ele>2552.44</ele>
        <time>2022-02-09T13:28:58Z</time>
      </trkpt>
      <trkpt lat="42.86491" lon="0.16051">
        <ele>2550.03</ele>
        <time>2022-02-09T13:29:15Z</time>
      </trkpt>
      <trkpt lat="42.86492" lon="0.16053">
        <ele>2547.63</ele>
        <time>2022-02-09T13:29:29Z</time>
      </trkpt>
      <trkpt lat="42.86491" lon="0.1605">
        <ele>2547.15</ele>
        <time>2022-02-09T13:29:48Z</time>
      </trkpt>
      <trkpt lat="42.86493" lon="0.16052">
        <ele>2543.79</ele>
        <time>2022-02-09T13:30:05Z</time>
      </trkpt>
      <trkpt lat="42.86493" lon="0.16052">
        <ele>2548.11</ele>
        <time>2022-02-09T13:30:06Z</time>
      </trkpt>
      <trkpt lat="42.86492" lon="0.1605">
        <ele>2548.11</ele>
        <time>2022-02-09T13:30:28Z</time>
      </trkpt>
      <trkpt lat="42.86494" lon="0.1605">
        <ele>2546.67</ele>
        <time>2022-02-09T13:30:40Z</time>
      </trkpt>
      <trkpt lat="42.86494" lon="0.1605">
        <ele>2550.51</ele>
        <time>2022-02-09T13:30:41Z</time>
      </trkpt>
      <trkpt lat="42.86494" lon="0.1605">
        <ele>2548.11</ele>
        <time>2022-02-09T13:30:42Z</time>
      </trkpt>
      <trkpt lat="42.8649" lon="0.1606">
        <ele>2545.71</ele>
        <time>2022-02-09T13:31:02Z</time>
      </trkpt>
      <trkpt lat="42.86486" lon="0.16066">
        <ele>2544.27</ele>
        <time>2022-02-09T13:31:18Z</time>
      </trkpt>
      <trkpt lat="42.8648" lon="0.16079">
        <ele>2541.38</ele>
        <time>2022-02-09T13:31:39Z</time>
      </trkpt>
      <trkpt lat="42.86482" lon="0.16089">
        <ele>2538.02</ele>
        <time>2022-02-09T13:31:51Z</time>
      </trkpt>
      <trkpt lat="42.86486" lon="0.16099">
        <ele>2534.17</ele>
        <time>2022-02-09T13:32:04Z</time>
      </trkpt>
      <trkpt lat="42.86485" lon="0.16102">
        <ele>2532.73</ele>
        <time>2022-02-09T13:32:10Z</time>
      </trkpt>
      <trkpt lat="42.86485" lon="0.16116">
        <ele>2528.89</ele>
        <time>2022-02-09T13:32:25Z</time>
      </trkpt>
      <trkpt lat="42.86487" lon="0.16131">
        <ele>2525.04</ele>
        <time>2022-02-09T13:32:45Z</time>
      </trkpt>
      <trkpt lat="42.86489" lon="0.16139">
        <ele>2521.68</ele>
        <time>2022-02-09T13:32:55Z</time>
      </trkpt>
      <trkpt lat="42.86489" lon="0.1614">
        <ele>2521.68</ele>
        <time>2022-02-09T13:32:56Z</time>
      </trkpt>
      <trkpt lat="42.86492" lon="0.16156">
        <ele>2517.83</ele>
        <time>2022-02-09T13:33:12Z</time>
      </trkpt>
      <trkpt lat="42.86492" lon="0.16157">
        <ele>2517.83</ele>
        <time>2022-02-09T13:33:13Z</time>
      </trkpt>
      <trkpt lat="42.86493" lon="0.16163">
        <ele>2514.95</ele>
        <time>2022-02-09T13:33:24Z</time>
      </trkpt>
      <trkpt lat="42.86494" lon="0.1617">
        <ele>2511.58</ele>
        <time>2022-02-09T13:33:38Z</time>
      </trkpt>
      <trkpt lat="42.86499" lon="0.16175">
        <ele>2508.22</ele>
        <time>2022-02-09T13:33:51Z</time>
      </trkpt>
      <trkpt lat="42.86503" lon="0.16172">
        <ele>2506.77</ele>
        <time>2022-02-09T13:33:56Z</time>
      </trkpt>
      <trkpt lat="42.86509" lon="0.1617">
        <ele>2503.41</ele>
        <time>2022-02-09T13:34:07Z</time>
      </trkpt>
      <trkpt lat="42.8651" lon="0.1617">
        <ele>2502.45</ele>
        <time>2022-02-09T13:34:12Z</time>
      </trkpt>
      <trkpt lat="42.86513" lon="0.16171">
        <ele>2498.6</ele>
        <time>2022-02-09T13:34:22Z</time>
      </trkpt>
      <trkpt lat="42.86518" lon="0.16167">
        <ele>2495.72</ele>
        <time>2022-02-09T13:34:32Z</time>
      </trkpt>
      <trkpt lat="42.86527" lon="0.16166">
        <ele>2492.36</ele>
        <time>2022-02-09T13:34:45Z</time>
      </trkpt>
      <trkpt lat="42.86534" lon="0.16163">
        <ele>2488.99</ele>
        <time>2022-02-09T13:34:57Z</time>
      </trkpt>
      <trkpt lat="42.86539" lon="0.16162">
        <ele>2486.11</ele>
        <time>2022-02-09T13:35:07Z</time>
      </trkpt>
      <trkpt lat="42.86539" lon="0.16161">
        <ele>2486.11</ele>
        <time>2022-02-09T13:35:08Z</time>
      </trkpt>
      <trkpt lat="42.8655" lon="0.16156">
        <ele>2483.22</ele>
        <time>2022-02-09T13:35:20Z</time>
      </trkpt>
      <trkpt lat="42.86563" lon="0.16154">
        <ele>2480.34</ele>
        <time>2022-02-09T13:35:35Z</time>
      </trkpt>
      <trkpt lat="42.86572" lon="0.16154">
        <ele>2477.94</ele>
        <time>2022-02-09T13:35:54Z</time>
      </trkpt>
      <trkpt lat="42.86582" lon="0.16153">
        <ele>2474.09</ele>
        <time>2022-02-09T13:36:08Z</time>
      </trkpt>
      <trkpt lat="42.86583" lon="0.16152">
        <ele>2473.61</ele>
        <time>2022-02-09T13:36:09Z</time>
      </trkpt>
      <trkpt lat="42.86591" lon="0.16145">
        <ele>2471.69</ele>
        <time>2022-02-09T13:36:24Z</time>
      </trkpt>
      <trkpt lat="42.86601" lon="0.16131">
        <ele>2471.21</ele>
        <time>2022-02-09T13:36:41Z</time>
      </trkpt>
      <trkpt lat="42.86602" lon="0.16131">
        <ele>2469.28</ele>
        <time>2022-02-09T13:36:43Z</time>
      </trkpt>
      <trkpt lat="42.86617" lon="0.16128">
        <ele>2467.84</ele>
        <time>2022-02-09T13:36:59Z</time>
      </trkpt>
      <trkpt lat="42.86624" lon="0.16122">
        <ele>2465.92</ele>
        <time>2022-02-09T13:37:11Z</time>
      </trkpt>
      <trkpt lat="42.86636" lon="0.16117">
        <ele>2463.52</ele>
        <time>2022-02-09T13:37:30Z</time>
      </trkpt>
      <trkpt lat="42.86639" lon="0.16108">
        <ele>2461.59</ele>
        <time>2022-02-09T13:37:44Z</time>
      </trkpt>
      <trkpt lat="42.86647" lon="0.16105">
        <ele>2460.63</ele>
        <time>2022-02-09T13:37:51Z</time>
      </trkpt>
      <trkpt lat="42.86658" lon="0.161">
        <ele>2460.63</ele>
        <time>2022-02-09T13:38:08Z</time>
      </trkpt>
      <trkpt lat="42.86661" lon="0.16098">
        <ele>2459.19</ele>
        <time>2022-02-09T13:38:15Z</time>
      </trkpt>
      <trkpt lat="42.86667" lon="0.16087">
        <ele>2460.63</ele>
        <time>2022-02-09T13:38:32Z</time>
      </trkpt>
      <trkpt lat="42.86675" lon="0.16081">
        <ele>2459.19</ele>
        <time>2022-02-09T13:38:41Z</time>
      </trkpt>
      <trkpt lat="42.86678" lon="0.16078">
        <ele>2460.63</ele>
        <time>2022-02-09T13:38:47Z</time>
      </trkpt>
      <trkpt lat="42.86688" lon="0.1607">
        <ele>2461.11</ele>
        <time>2022-02-09T13:39:00Z</time>
      </trkpt>
      <trkpt lat="42.86691" lon="0.16068">
        <ele>2459.67</ele>
        <time>2022-02-09T13:39:03Z</time>
      </trkpt>
      <trkpt lat="42.867" lon="0.16059">
        <ele>2458.71</ele>
        <time>2022-02-09T13:39:19Z</time>
      </trkpt>
      <trkpt lat="42.8671" lon="0.16053">
        <ele>2460.15</ele>
        <time>2022-02-09T13:39:29Z</time>
      </trkpt>
      <trkpt lat="42.86711" lon="0.16051">
        <ele>2458.71</ele>
        <time>2022-02-09T13:39:33Z</time>
      </trkpt>
      <trkpt lat="42.86716" lon="0.16048">
        <ele>2457.75</ele>
        <time>2022-02-09T13:39:48Z</time>
      </trkpt>
      <trkpt lat="42.86724" lon="0.16049">
        <ele>2455.82</ele>
        <time>2022-02-09T13:40:02Z</time>
      </trkpt>
      <trkpt lat="42.86727" lon="0.16038">
        <ele>2453.42</ele>
        <time>2022-02-09T13:40:16Z</time>
      </trkpt>
      <trkpt lat="42.86729" lon="0.16031">
        <ele>2450.54</ele>
        <time>2022-02-09T13:40:27Z</time>
      </trkpt>
      <trkpt lat="42.86732" lon="0.16025">
        <ele>2447.17</ele>
        <time>2022-02-09T13:40:37Z</time>
      </trkpt>
      <trkpt lat="42.86736" lon="0.16022">
        <ele>2444.29</ele>
        <time>2022-02-09T13:40:46Z</time>
      </trkpt>
      <trkpt lat="42.86742" lon="0.16021">
        <ele>2440.92</ele>
        <time>2022-02-09T13:41:05Z</time>
      </trkpt>
      <trkpt lat="42.86746" lon="0.16017">
        <ele>2437.08</ele>
        <time>2022-02-09T13:41:18Z</time>
      </trkpt>
      <trkpt lat="42.86751" lon="0.16014">
        <ele>2434.68</ele>
        <time>2022-02-09T13:41:32Z</time>
      </trkpt>
      <trkpt lat="42.86754" lon="0.16011">
        <ele>2431.79</ele>
        <time>2022-02-09T13:41:47Z</time>
      </trkpt>
      <trkpt lat="42.86759" lon="0.16011">
        <ele>2428.43</ele>
        <time>2022-02-09T13:42:00Z</time>
      </trkpt>
      <trkpt lat="42.8676" lon="0.16011">
        <ele>2428.43</ele>
        <time>2022-02-09T13:42:01Z</time>
      </trkpt>
      <trkpt lat="42.86765" lon="0.16011">
        <ele>2425.06</ele>
        <time>2022-02-09T13:42:15Z</time>
      </trkpt>
      <trkpt lat="42.86764" lon="0.16009">
        <ele>2421.7</ele>
        <time>2022-02-09T13:42:32Z</time>
      </trkpt>
      <trkpt lat="42.86771" lon="0.16008">
        <ele>2418.33</ele>
        <time>2022-02-09T13:42:44Z</time>
      </trkpt>
      <trkpt lat="42.86773" lon="0.16008">
        <ele>2416.89</ele>
        <time>2022-02-09T13:42:48Z</time>
      </trkpt>
      <trkpt lat="42.86776" lon="0.16005">
        <ele>2414.01</ele>
        <time>2022-02-09T13:42:58Z</time>
      </trkpt>
      <trkpt lat="42.86783" lon="0.16007">
        <ele>2411.12</ele>
        <time>2022-02-09T13:43:17Z</time>
      </trkpt>
      <trkpt lat="42.86791" lon="0.16007">
        <ele>2407.76</ele>
        <time>2022-02-09T13:43:35Z</time>
      </trkpt>
      <trkpt lat="42.86791" lon="0.16006">
        <ele>2407.76</ele>
        <time>2022-02-09T13:43:36Z</time>
      </trkpt>
      <trkpt lat="42.86794" lon="0.16007">
        <ele>2405.84</ele>
        <time>2022-02-09T13:43:45Z</time>
      </trkpt>
      <trkpt lat="42.86804" lon="0.16012">
        <ele>2402.95</ele>
        <time>2022-02-09T13:44:02Z</time>
      </trkpt>
      <trkpt lat="42.86817" lon="0.16012">
        <ele>2399.59</ele>
        <time>2022-02-09T13:44:15Z</time>
      </trkpt>
      <trkpt lat="42.86817" lon="0.16009">
        <ele>2399.11</ele>
        <time>2022-02-09T13:44:28Z</time>
      </trkpt>
      <trkpt lat="42.86814" lon="0.16008">
        <ele>2398.63</ele>
        <time>2022-02-09T13:44:47Z</time>
      </trkpt>
      <trkpt lat="42.86809" lon="0.16014">
        <ele>2397.67</ele>
        <time>2022-02-09T13:45:08Z</time>
      </trkpt>
      <trkpt lat="42.86806" lon="0.16017">
        <ele>2398.63</ele>
        <time>2022-02-09T13:45:15Z</time>
      </trkpt>
      <trkpt lat="42.86809" lon="0.16016">
        <ele>2398.63</ele>
        <time>2022-02-09T13:45:30Z</time>
      </trkpt>
      <trkpt lat="42.86813" lon="0.16011">
        <ele>2397.67</ele>
        <time>2022-02-09T13:45:35Z</time>
      </trkpt>
      <trkpt lat="42.86814" lon="0.16005">
        <ele>2398.63</ele>
        <time>2022-02-09T13:45:53Z</time>
      </trkpt>
      <trkpt lat="42.86814" lon="0.16006">
        <ele>2395.26</ele>
        <time>2022-02-09T13:46:01Z</time>
      </trkpt>
      <trkpt lat="42.86814" lon="0.16007">
        <ele>2399.59</ele>
        <time>2022-02-09T13:46:02Z</time>
      </trkpt>
      <trkpt lat="42.86814" lon="0.16008">
        <ele>2398.15</ele>
        <time>2022-02-09T13:46:05Z</time>
      </trkpt>
      <trkpt lat="42.86814" lon="0.16007">
        <ele>2397.67</ele>
        <time>2022-02-09T13:46:26Z</time>
      </trkpt>
      <trkpt lat="42.86814" lon="0.16006">
        <ele>2397.67</ele>
        <time>2022-02-09T13:46:51Z</time>
      </trkpt>
      <trkpt lat="42.86813" lon="0.16005">
        <ele>2397.18</ele>
        <time>2022-02-09T13:47:16Z</time>
      </trkpt>
      <trkpt lat="42.86815" lon="0.16009">
        <ele>2397.67</ele>
        <time>2022-02-09T13:47:38Z</time>
      </trkpt>
      <trkpt lat="42.86814" lon="0.16003">
        <ele>2397.67</ele>
        <time>2022-02-09T13:48:01Z</time>
      </trkpt>
      <trkpt lat="42.86817" lon="0.16003">
        <ele>2397.67</ele>
        <time>2022-02-09T13:48:28Z</time>
      </trkpt>
      <trkpt lat="42.86817" lon="0.16004">
        <ele>2397.67</ele>
        <time>2022-02-09T13:48:57Z</time>
      </trkpt>
      <trkpt lat="42.86817" lon="0.16003">
        <ele>2396.22</ele>
        <time>2022-02-09T13:49:03Z</time>
      </trkpt>
      <trkpt lat="42.86817" lon="0.16005">
        <ele>2397.67</ele>
        <time>2022-02-09T13:49:27Z</time>
      </trkpt>
      <trkpt lat="42.86813" lon="0.16007">
        <ele>2397.67</ele>
        <time>2022-02-09T13:49:47Z</time>
      </trkpt>
      <trkpt lat="42.86815" lon="0.16009">
        <ele>2397.67</ele>
        <time>2022-02-09T13:50:09Z</time>
      </trkpt>
      <trkpt lat="42.86815" lon="0.16006">
        <ele>2396.22</ele>
        <time>2022-02-09T13:50:35Z</time>
      </trkpt>
      <trkpt lat="42.86814" lon="0.16006">
        <ele>2396.22</ele>
        <time>2022-02-09T13:50:36Z</time>
      </trkpt>
      <trkpt lat="42.86813" lon="0.16007">
        <ele>2398.15</ele>
        <time>2022-02-09T13:50:41Z</time>
      </trkpt>
      <trkpt lat="42.86811" lon="0.1601">
        <ele>2397.67</ele>
        <time>2022-02-09T13:51:04Z</time>
      </trkpt>
      <trkpt lat="42.86812" lon="0.16004">
        <ele>2397.67</ele>
        <time>2022-02-09T13:51:25Z</time>
      </trkpt>
      <trkpt lat="42.86815" lon="0.16007">
        <ele>2397.67</ele>
        <time>2022-02-09T13:51:47Z</time>
      </trkpt>
      <trkpt lat="42.86814" lon="0.1601">
        <ele>2393.82</ele>
        <time>2022-02-09T13:51:59Z</time>
      </trkpt>
      <trkpt lat="42.86814" lon="0.1601">
        <ele>2401.03</ele>
        <time>2022-02-09T13:52:00Z</time>
      </trkpt>
      <trkpt lat="42.86814" lon="0.1601">
        <ele>2397.67</ele>
        <time>2022-02-09T13:52:01Z</time>
      </trkpt>
      <trkpt lat="42.86814" lon="0.16011">
        <ele>2396.7</ele>
        <time>2022-02-09T13:52:03Z</time>
      </trkpt>
      <trkpt lat="42.86814" lon="0.1601">
        <ele>2401.03</ele>
        <time>2022-02-09T13:52:06Z</time>
      </trkpt>
      <trkpt lat="42.86814" lon="0.1601">
        <ele>2396.22</ele>
        <time>2022-02-09T13:52:07Z</time>
      </trkpt>
      <trkpt lat="42.86813" lon="0.1601">
        <ele>2399.11</ele>
        <time>2022-02-09T13:52:08Z</time>
      </trkpt>
      <trkpt lat="42.86811" lon="0.1601">
        <ele>2398.15</ele>
        <time>2022-02-09T13:52:15Z</time>
      </trkpt>
      <trkpt lat="42.86813" lon="0.16009">
        <ele>2398.15</ele>
        <time>2022-02-09T13:52:33Z</time>
      </trkpt>
      <trkpt lat="42.86812" lon="0.1601">
        <ele>2396.7</ele>
        <time>2022-02-09T13:52:41Z</time>
      </trkpt>
      <trkpt lat="42.86811" lon="0.1601">
        <ele>2398.15</ele>
        <time>2022-02-09T13:52:43Z</time>
      </trkpt>
      <trkpt lat="42.86815" lon="0.16008">
        <ele>2398.15</ele>
        <time>2022-02-09T13:53:00Z</time>
      </trkpt>
      <trkpt lat="42.86815" lon="0.16008">
        <ele>2398.15</ele>
        <time>2022-02-09T13:53:19Z</time>
      </trkpt>
      <trkpt lat="42.86816" lon="0.16008">
        <ele>2396.7</ele>
        <time>2022-02-09T13:53:36Z</time>
      </trkpt>
      <trkpt lat="42.86815" lon="0.16007">
        <ele>2398.15</ele>
        <time>2022-02-09T13:53:38Z</time>
      </trkpt>
      <trkpt lat="42.86814" lon="0.16007">
        <ele>2396.7</ele>
        <time>2022-02-09T13:53:45Z</time>
      </trkpt>
      <trkpt lat="42.86814" lon="0.16007">
        <ele>2398.15</ele>
        <time>2022-02-09T13:53:48Z</time>
      </trkpt>
      <trkpt lat="42.86815" lon="0.1601">
        <ele>2398.15</ele>
        <time>2022-02-09T13:54:07Z</time>
      </trkpt>
      <trkpt lat="42.86816" lon="0.16011">
        <ele>2392.38</ele>
        <time>2022-02-09T13:54:22Z</time>
      </trkpt>
      <trkpt lat="42.86816" lon="0.16011">
        <ele>2398.63</ele>
        <time>2022-02-09T13:54:23Z</time>
      </trkpt>
      <trkpt lat="42.86816" lon="0.16012">
        <ele>2397.18</ele>
        <time>2022-02-09T13:54:26Z</time>
      </trkpt>
      <trkpt lat="42.86815" lon="0.16012">
        <ele>2402.95</ele>
        <time>2022-02-09T13:54:30Z</time>
      </trkpt>
      <trkpt lat="42.86815" lon="0.16012">
        <ele>2399.11</ele>
        <time>2022-02-09T13:54:31Z</time>
      </trkpt>
      <trkpt lat="42.86815" lon="0.16012">
        <ele>2394.78</ele>
        <time>2022-02-09T13:54:32Z</time>
      </trkpt>
      <trkpt lat="42.86814" lon="0.16013">
        <ele>2399.11</ele>
        <time>2022-02-09T13:54:33Z</time>
      </trkpt>
      <trkpt lat="42.86816" lon="0.16014">
        <ele>2392.86</ele>
        <time>2022-02-09T13:54:52Z</time>
      </trkpt>
      <trkpt lat="42.86816" lon="0.16014">
        <ele>2399.11</ele>
        <time>2022-02-09T13:54:53Z</time>
      </trkpt>
      <trkpt lat="42.86815" lon="0.16012">
        <ele>2397.18</ele>
        <time>2022-02-09T13:54:56Z</time>
      </trkpt>
      <trkpt lat="42.86814" lon="0.16012">
        <ele>2399.11</ele>
        <time>2022-02-09T13:55:00Z</time>
      </trkpt>
      <trkpt lat="42.86814" lon="0.16011">
        <ele>2397.67</ele>
        <time>2022-02-09T13:55:02Z</time>
      </trkpt>
      <trkpt lat="42.86814" lon="0.1601">
        <ele>2397.18</ele>
        <time>2022-02-09T13:55:30Z</time>
      </trkpt>
      <trkpt lat="42.86813" lon="0.16011">
        <ele>2397.18</ele>
        <time>2022-02-09T13:55:54Z</time>
      </trkpt>
      <trkpt lat="42.86815" lon="0.16012">
        <ele>2397.18</ele>
        <time>2022-02-09T13:56:05Z</time>
      </trkpt>
      <trkpt lat="42.86823" lon="0.16031">
        <ele>2393.82</ele>
        <time>2022-02-09T13:56:10Z</time>
      </trkpt>
      <trkpt lat="42.86846" lon="0.16055">
        <ele>2389.49</ele>
        <time>2022-02-09T13:56:17Z</time>
      </trkpt>
      <trkpt lat="42.8685" lon="0.16054">
        <ele>2389.49</ele>
        <time>2022-02-09T13:56:18Z</time>
      </trkpt>
      <trkpt lat="42.86853" lon="0.16052">
        <ele>2389.01</ele>
        <time>2022-02-09T13:56:19Z</time>
      </trkpt>
      <trkpt lat="42.86866" lon="0.16023">
        <ele>2389.01</ele>
        <time>2022-02-09T13:56:29Z</time>
      </trkpt>
      <trkpt lat="42.86876" lon="0.1601">
        <ele>2385.17</ele>
        <time>2022-02-09T13:56:38Z</time>
      </trkpt>
      <trkpt lat="42.86884" lon="0.16005">
        <ele>2383.25</ele>
        <time>2022-02-09T13:56:40Z</time>
      </trkpt>
      <trkpt lat="42.86899" lon="0.15992">
        <ele>2378.92</ele>
        <time>2022-02-09T13:56:43Z</time>
      </trkpt>
      <trkpt lat="42.86906" lon="0.15988">
        <ele>2378.92</ele>
        <time>2022-02-09T13:56:49Z</time>
      </trkpt>
      <trkpt lat="42.86904" lon="0.15988">
        <ele>2378.44</ele>
        <time>2022-02-09T13:57:10Z</time>
      </trkpt>
      <trkpt lat="42.86911" lon="0.15981">
        <ele>2376.52</ele>
        <time>2022-02-09T13:57:14Z</time>
      </trkpt>
      <trkpt lat="42.86924" lon="0.15966">
        <ele>2372.19</ele>
        <time>2022-02-09T13:57:18Z</time>
      </trkpt>
      <trkpt lat="42.86926" lon="0.15962">
        <ele>2372.19</ele>
        <time>2022-02-09T13:57:19Z</time>
      </trkpt>
      <trkpt lat="42.86939" lon="0.15952">
        <ele>2369.31</ele>
        <time>2022-02-09T13:57:23Z</time>
      </trkpt>
      <trkpt lat="42.86943" lon="0.15951">
        <ele>2369.31</ele>
        <time>2022-02-09T13:57:24Z</time>
      </trkpt>
      <trkpt lat="42.86967" lon="0.15955">
        <ele>2364.02</ele>
        <time>2022-02-09T13:57:28Z</time>
      </trkpt>
      <trkpt lat="42.86978" lon="0.15952">
        <ele>2361.14</ele>
        <time>2022-02-09T13:57:30Z</time>
      </trkpt>
      <trkpt lat="42.86991" lon="0.15951">
        <ele>2356.33</ele>
        <time>2022-02-09T13:57:32Z</time>
      </trkpt>
      <trkpt lat="42.87019" lon="0.15946">
        <ele>2354.41</ele>
        <time>2022-02-09T13:57:36Z</time>
      </trkpt>
      <trkpt lat="42.87033" lon="0.15941">
        <ele>2352.48</ele>
        <time>2022-02-09T13:57:38Z</time>
      </trkpt>
      <trkpt lat="42.87054" lon="0.15929">
        <ele>2350.08</ele>
        <time>2022-02-09T13:57:42Z</time>
      </trkpt>
      <trkpt lat="42.87059" lon="0.15927">
        <ele>2348.64</ele>
        <time>2022-02-09T13:57:43Z</time>
      </trkpt>
      <trkpt lat="42.87074" lon="0.15924">
        <ele>2348.16</ele>
        <time>2022-02-09T13:57:46Z</time>
      </trkpt>
      <trkpt lat="42.87087" lon="0.15908">
        <ele>2344.79</ele>
        <time>2022-02-09T13:57:50Z</time>
      </trkpt>
      <trkpt lat="42.87092" lon="0.15885">
        <ele>2340.95</ele>
        <time>2022-02-09T13:57:54Z</time>
      </trkpt>
      <trkpt lat="42.87092" lon="0.15871">
        <ele>2339.02</ele>
        <time>2022-02-09T13:57:56Z</time>
      </trkpt>
      <trkpt lat="42.87091" lon="0.15857">
        <ele>2337.1</ele>
        <time>2022-02-09T13:57:58Z</time>
      </trkpt>
      <trkpt lat="42.8709" lon="0.15844">
        <ele>2335.66</ele>
        <time>2022-02-09T13:58:00Z</time>
      </trkpt>
      <trkpt lat="42.87081" lon="0.15805">
        <ele>2334.7</ele>
        <time>2022-02-09T13:58:10Z</time>
      </trkpt>
      <trkpt lat="42.87083" lon="0.15813">
        <ele>2334.7</ele>
        <time>2022-02-09T13:58:22Z</time>
      </trkpt>
      <trkpt lat="42.87083" lon="0.15811">
        <ele>2332.3</ele>
        <time>2022-02-09T13:58:26Z</time>
      </trkpt>
      <trkpt lat="42.87088" lon="0.15789">
        <ele>2329.41</ele>
        <time>2022-02-09T13:58:34Z</time>
      </trkpt>
      <trkpt lat="42.87091" lon="0.15784">
        <ele>2327.97</ele>
        <time>2022-02-09T13:58:36Z</time>
      </trkpt>
      <trkpt lat="42.87093" lon="0.15784">
        <ele>2327.97</ele>
        <time>2022-02-09T13:58:37Z</time>
      </trkpt>
      <trkpt lat="42.87107" lon="0.1578">
        <ele>2324.12</ele>
        <time>2022-02-09T13:58:42Z</time>
      </trkpt>
      <trkpt lat="42.87126" lon="0.15755">
        <ele>2321.72</ele>
        <time>2022-02-09T13:58:48Z</time>
      </trkpt>
      <trkpt lat="42.87123" lon="0.15742">
        <ele>2315.47</ele>
        <time>2022-02-09T13:58:52Z</time>
      </trkpt>
      <trkpt lat="42.8712" lon="0.15734">
        <ele>2313.55</ele>
        <time>2022-02-09T13:58:54Z</time>
      </trkpt>
      <trkpt lat="42.87125" lon="0.15706">
        <ele>2310.67</ele>
        <time>2022-02-09T13:58:59Z</time>
      </trkpt>
      <trkpt lat="42.87123" lon="0.15692">
        <ele>2307.3</ele>
        <time>2022-02-09T13:59:02Z</time>
      </trkpt>
      <trkpt lat="42.87114" lon="0.15689">
        <ele>2302.49</ele>
        <time>2022-02-09T13:59:05Z</time>
      </trkpt>
      <trkpt lat="42.87104" lon="0.15682">
        <ele>2300.57</ele>
        <time>2022-02-09T13:59:08Z</time>
      </trkpt>
      <trkpt lat="42.87094" lon="0.15673">
        <ele>2298.65</ele>
        <time>2022-02-09T13:59:11Z</time>
      </trkpt>
      <trkpt lat="42.87088" lon="0.15662">
        <ele>2294.32</ele>
        <time>2022-02-09T13:59:14Z</time>
      </trkpt>
      <trkpt lat="42.87094" lon="0.15647">
        <ele>2291.44</ele>
        <time>2022-02-09T13:59:19Z</time>
      </trkpt>
      <trkpt lat="42.87118" lon="0.1562">
        <ele>2288.08</ele>
        <time>2022-02-09T13:59:25Z</time>
      </trkpt>
      <trkpt lat="42.87122" lon="0.15616">
        <ele>2288.08</ele>
        <time>2022-02-09T13:59:26Z</time>
      </trkpt>
      <trkpt lat="42.87139" lon="0.15594">
        <ele>2284.23</ele>
        <time>2022-02-09T13:59:32Z</time>
      </trkpt>
      <trkpt lat="42.8714" lon="0.15589">
        <ele>2284.23</ele>
        <time>2022-02-09T13:59:33Z</time>
      </trkpt>
      <trkpt lat="42.87144" lon="0.1558">
        <ele>2282.79</ele>
        <time>2022-02-09T13:59:35Z</time>
      </trkpt>
      <trkpt lat="42.87164" lon="0.15556">
        <ele>2280.87</ele>
        <time>2022-02-09T13:59:44Z</time>
      </trkpt>
      <trkpt lat="42.87162" lon="0.15558">
        <ele>2280.87</ele>
        <time>2022-02-09T13:59:51Z</time>
      </trkpt>
      <trkpt lat="42.87153" lon="0.1556">
        <ele>2277.5</ele>
        <time>2022-02-09T13:59:56Z</time>
      </trkpt>
      <trkpt lat="42.8714" lon="0.15568">
        <ele>2274.62</ele>
        <time>2022-02-09T14:00:01Z</time>
      </trkpt>
      <trkpt lat="42.87128" lon="0.15575">
        <ele>2271.73</ele>
        <time>2022-02-09T14:00:04Z</time>
      </trkpt>
      <trkpt lat="42.87113" lon="0.1558">
        <ele>2268.85</ele>
        <time>2022-02-09T14:00:08Z</time>
      </trkpt>
      <trkpt lat="42.87106" lon="0.1558">
        <ele>2268.37</ele>
        <time>2022-02-09T14:00:10Z</time>
      </trkpt>
      <trkpt lat="42.87084" lon="0.1557">
        <ele>2265</ele>
        <time>2022-02-09T14:00:16Z</time>
      </trkpt>
      <trkpt lat="42.87081" lon="0.15567">
        <ele>2265</ele>
        <time>2022-02-09T14:00:17Z</time>
      </trkpt>
      <trkpt lat="42.87064" lon="0.15544">
        <ele>2261.64</ele>
        <time>2022-02-09T14:00:23Z</time>
      </trkpt>
      <trkpt lat="42.87063" lon="0.15541">
        <ele>2261.64</ele>
        <time>2022-02-09T14:00:24Z</time>
      </trkpt>
      <trkpt lat="42.87062" lon="0.15538">
        <ele>2260.68</ele>
        <time>2022-02-09T14:00:25Z</time>
      </trkpt>
      <trkpt lat="42.87067" lon="0.15521">
        <ele>2257.79</ele>
        <time>2022-02-09T14:00:29Z</time>
      </trkpt>
      <trkpt lat="42.87066" lon="0.15517">
        <ele>2257.31</ele>
        <time>2022-02-09T14:00:30Z</time>
      </trkpt>
      <trkpt lat="42.87066" lon="0.1551">
        <ele>2255.39</ele>
        <time>2022-02-09T14:00:34Z</time>
      </trkpt>
      <trkpt lat="42.87066" lon="0.15511">
        <ele>2255.39</ele>
        <time>2022-02-09T14:00:35Z</time>
      </trkpt>
      <trkpt lat="42.87081" lon="0.15519">
        <ele>2253.47</ele>
        <time>2022-02-09T14:00:39Z</time>
      </trkpt>
      <trkpt lat="42.87096" lon="0.15517">
        <ele>2252.99</ele>
        <time>2022-02-09T14:00:47Z</time>
      </trkpt>
      <trkpt lat="42.87097" lon="0.15505">
        <ele>2247.7</ele>
        <time>2022-02-09T14:00:52Z</time>
      </trkpt>
      <trkpt lat="42.87091" lon="0.15493">
        <ele>2246.26</ele>
        <time>2022-02-09T14:00:55Z</time>
      </trkpt>
      <trkpt lat="42.87092" lon="0.15483">
        <ele>2244.33</ele>
        <time>2022-02-09T14:00:57Z</time>
      </trkpt>
      <trkpt lat="42.87099" lon="0.15458">
        <ele>2240.49</ele>
        <time>2022-02-09T14:01:04Z</time>
      </trkpt>
      <trkpt lat="42.87106" lon="0.15442">
        <ele>2237.13</ele>
        <time>2022-02-09T14:01:10Z</time>
      </trkpt>
      <trkpt lat="42.87115" lon="0.15425">
        <ele>2234.24</ele>
        <time>2022-02-09T14:01:15Z</time>
      </trkpt>
      <trkpt lat="42.87122" lon="0.15413">
        <ele>2230.88</ele>
        <time>2022-02-09T14:01:18Z</time>
      </trkpt>
      <trkpt lat="42.87124" lon="0.15409">
        <ele>2230.88</ele>
        <time>2022-02-09T14:01:19Z</time>
      </trkpt>
      <trkpt lat="42.87127" lon="0.15404">
        <ele>2230.4</ele>
        <time>2022-02-09T14:01:26Z</time>
      </trkpt>
      <trkpt lat="42.87128" lon="0.15405">
        <ele>2228.47</ele>
        <time>2022-02-09T14:01:31Z</time>
      </trkpt>
      <trkpt lat="42.87154" lon="0.15408">
        <ele>2227.99</ele>
        <time>2022-02-09T14:01:39Z</time>
      </trkpt>
      <trkpt lat="42.87156" lon="0.15408">
        <ele>2227.99</ele>
        <time>2022-02-09T14:01:51Z</time>
      </trkpt>
      <trkpt lat="42.87152" lon="0.15399">
        <ele>2223.19</ele>
        <time>2022-02-09T14:01:55Z</time>
      </trkpt>
      <trkpt lat="42.87152" lon="0.15396">
        <ele>2223.19</ele>
        <time>2022-02-09T14:01:56Z</time>
      </trkpt>
      <trkpt lat="42.87156" lon="0.15387">
        <ele>2221.26</ele>
        <time>2022-02-09T14:02:00Z</time>
      </trkpt>
      <trkpt lat="42.87161" lon="0.15382">
        <ele>2220.78</ele>
        <time>2022-02-09T14:02:03Z</time>
      </trkpt>
      <trkpt lat="42.87157" lon="0.15366">
        <ele>2215.98</ele>
        <time>2022-02-09T14:02:08Z</time>
      </trkpt>
      <trkpt lat="42.87156" lon="0.15364">
        <ele>2215.98</ele>
        <time>2022-02-09T14:02:09Z</time>
      </trkpt>
      <trkpt lat="42.87166" lon="0.15361">
        <ele>2214.05</ele>
        <time>2022-02-09T14:02:20Z</time>
      </trkpt>
      <trkpt lat="42.8717" lon="0.1536">
        <ele>2213.57</ele>
        <time>2022-02-09T14:02:24Z</time>
      </trkpt>
      <trkpt lat="42.87171" lon="0.15352">
        <ele>2210.21</ele>
        <time>2022-02-09T14:02:28Z</time>
      </trkpt>
      <trkpt lat="42.87172" lon="0.1535">
        <ele>2210.21</ele>
        <time>2022-02-09T14:02:29Z</time>
      </trkpt>
      <trkpt lat="42.87187" lon="0.15336">
        <ele>2205.88</ele>
        <time>2022-02-09T14:02:39Z</time>
      </trkpt>
      <trkpt lat="42.87191" lon="0.15324">
        <ele>2202.04</ele>
        <time>2022-02-09T14:02:43Z</time>
      </trkpt>
      <trkpt lat="42.87192" lon="0.15318">
        <ele>2202.04</ele>
        <time>2022-02-09T14:02:44Z</time>
      </trkpt>
      <trkpt lat="42.87204" lon="0.15274">
        <ele>2198.67</ele>
        <time>2022-02-09T14:02:53Z</time>
      </trkpt>
      <trkpt lat="42.87205" lon="0.15266">
        <ele>2199.15</ele>
        <time>2022-02-09T14:03:01Z</time>
      </trkpt>
      <trkpt lat="42.87201" lon="0.15266">
        <ele>2199.15</ele>
        <time>2022-02-09T14:03:24Z</time>
      </trkpt>
      <trkpt lat="42.87204" lon="0.15274">
        <ele>2198.19</ele>
        <time>2022-02-09T14:03:39Z</time>
      </trkpt>
      <trkpt lat="42.87204" lon="0.15272">
        <ele>2198.19</ele>
        <time>2022-02-09T14:03:43Z</time>
      </trkpt>
      <trkpt lat="42.87209" lon="0.15257">
        <ele>2197.23</ele>
        <time>2022-02-09T14:03:59Z</time>
      </trkpt>
      <trkpt lat="42.87208" lon="0.15257">
        <ele>2196.75</ele>
        <time>2022-02-09T14:04:01Z</time>
      </trkpt>
      <trkpt lat="42.87205" lon="0.15238">
        <ele>2193.87</ele>
        <time>2022-02-09T14:04:09Z</time>
      </trkpt>
      <trkpt lat="42.87204" lon="0.15236">
        <ele>2193.87</ele>
        <time>2022-02-09T14:04:10Z</time>
      </trkpt>
      <trkpt lat="42.87194" lon="0.15213">
        <ele>2190.5</ele>
        <time>2022-02-09T14:04:19Z</time>
      </trkpt>
      <trkpt lat="42.87192" lon="0.15203">
        <ele>2189.06</ele>
        <time>2022-02-09T14:04:22Z</time>
      </trkpt>
      <trkpt lat="42.87192" lon="0.15201">
        <ele>2189.06</ele>
        <time>2022-02-09T14:04:23Z</time>
      </trkpt>
      <trkpt lat="42.87199" lon="0.152">
        <ele>2187.14</ele>
        <time>2022-02-09T14:04:27Z</time>
      </trkpt>
      <trkpt lat="42.8721" lon="0.15191">
        <ele>2184.25</ele>
        <time>2022-02-09T14:04:31Z</time>
      </trkpt>
      <trkpt lat="42.87214" lon="0.15187">
        <ele>2182.81</ele>
        <time>2022-02-09T14:04:33Z</time>
      </trkpt>
      <trkpt lat="42.8722" lon="0.1518">
        <ele>2178.97</ele>
        <time>2022-02-09T14:04:36Z</time>
      </trkpt>
      <trkpt lat="42.87226" lon="0.1517">
        <ele>2176.56</ele>
        <time>2022-02-09T14:04:39Z</time>
      </trkpt>
      <trkpt lat="42.87242" lon="0.15161">
        <ele>2172.72</ele>
        <time>2022-02-09T14:04:43Z</time>
      </trkpt>
      <trkpt lat="42.87253" lon="0.1516">
        <ele>2171.76</ele>
        <time>2022-02-09T14:04:46Z</time>
      </trkpt>
      <trkpt lat="42.87261" lon="0.15183">
        <ele>2168.87</ele>
        <time>2022-02-09T14:04:53Z</time>
      </trkpt>
      <trkpt lat="42.87265" lon="0.15195">
        <ele>2168.39</ele>
        <time>2022-02-09T14:04:55Z</time>
      </trkpt>
      <trkpt lat="42.87274" lon="0.15198">
        <ele>2164.55</ele>
        <time>2022-02-09T14:04:58Z</time>
      </trkpt>
      <trkpt lat="42.87279" lon="0.15182">
        <ele>2162.14</ele>
        <time>2022-02-09T14:05:02Z</time>
      </trkpt>
      <trkpt lat="42.87275" lon="0.15158">
        <ele>2162.14</ele>
        <time>2022-02-09T14:05:13Z</time>
      </trkpt>
      <trkpt lat="42.87272" lon="0.15157">
        <ele>2162.14</ele>
        <time>2022-02-09T14:05:17Z</time>
      </trkpt>
      <trkpt lat="42.87277" lon="0.15151">
        <ele>2157.82</ele>
        <time>2022-02-09T14:05:20Z</time>
      </trkpt>
      <trkpt lat="42.87279" lon="0.15147">
        <ele>2157.34</ele>
        <time>2022-02-09T14:05:21Z</time>
      </trkpt>
      <trkpt lat="42.87287" lon="0.15135">
        <ele>2153.49</ele>
        <time>2022-02-09T14:05:25Z</time>
      </trkpt>
      <trkpt lat="42.87304" lon="0.15135">
        <ele>2152.53</ele>
        <time>2022-02-09T14:05:36Z</time>
      </trkpt>
      <trkpt lat="42.87297" lon="0.15129">
        <ele>2152.05</ele>
        <time>2022-02-09T14:05:53Z</time>
      </trkpt>
      <trkpt lat="42.87292" lon="0.15122">
        <ele>2151.57</ele>
        <time>2022-02-09T14:06:17Z</time>
      </trkpt>
      <trkpt lat="42.87293" lon="0.15128">
        <ele>2151.57</ele>
        <time>2022-02-09T14:06:41Z</time>
      </trkpt>
      <trkpt lat="42.87294" lon="0.15126">
        <ele>2151.09</ele>
        <time>2022-02-09T14:07:02Z</time>
      </trkpt>
      <trkpt lat="42.87295" lon="0.15128">
        <ele>2151.09</ele>
        <time>2022-02-09T14:07:26Z</time>
      </trkpt>
      <trkpt lat="42.87295" lon="0.15126">
        <ele>2150.61</ele>
        <time>2022-02-09T14:07:51Z</time>
      </trkpt>
      <trkpt lat="42.87299" lon="0.15126">
        <ele>2150.13</ele>
        <time>2022-02-09T14:08:09Z</time>
      </trkpt>
      <trkpt lat="42.87321" lon="0.15101">
        <ele>2146.28</ele>
        <time>2022-02-09T14:08:20Z</time>
      </trkpt>
      <trkpt lat="42.87325" lon="0.15096">
        <ele>2146.28</ele>
        <time>2022-02-09T14:08:21Z</time>
      </trkpt>
      <trkpt lat="42.8735" lon="0.15066">
        <ele>2142.92</ele>
        <time>2022-02-09T14:08:27Z</time>
      </trkpt>
      <trkpt lat="42.87374" lon="0.15032">
        <ele>2140.03</ele>
        <time>2022-02-09T14:08:33Z</time>
      </trkpt>
      <trkpt lat="42.87407" lon="0.14979">
        <ele>2136.67</ele>
        <time>2022-02-09T14:08:42Z</time>
      </trkpt>
      <trkpt lat="42.8741" lon="0.14974">
        <ele>2136.67</ele>
        <time>2022-02-09T14:08:43Z</time>
      </trkpt>
      <trkpt lat="42.87428" lon="0.14948">
        <ele>2133.78</ele>
        <time>2022-02-09T14:08:48Z</time>
      </trkpt>
      <trkpt lat="42.87443" lon="0.14939">
        <ele>2133.3</ele>
        <time>2022-02-09T14:08:55Z</time>
      </trkpt>
      <trkpt lat="42.87443" lon="0.14939">
        <ele>2133.3</ele>
        <time>2022-02-09T14:09:11Z</time>
      </trkpt>
      <trkpt lat="42.87475" lon="0.14912">
        <ele>2131.38</ele>
        <time>2022-02-09T14:09:29Z</time>
      </trkpt>
      <trkpt lat="42.87494" lon="0.14898">
        <ele>2129.46</ele>
        <time>2022-02-09T14:09:43Z</time>
      </trkpt>
      <trkpt lat="42.87502" lon="0.14888">
        <ele>2128.02</ele>
        <time>2022-02-09T14:09:46Z</time>
      </trkpt>
      <trkpt lat="42.87518" lon="0.14872">
        <ele>2125.61</ele>
        <time>2022-02-09T14:09:50Z</time>
      </trkpt>
      <trkpt lat="42.87579" lon="0.14818">
        <ele>2124.17</ele>
        <time>2022-02-09T14:10:05Z</time>
      </trkpt>
      <trkpt lat="42.87587" lon="0.14799">
        <ele>2120.81</ele>
        <time>2022-02-09T14:10:11Z</time>
      </trkpt>
      <trkpt lat="42.87589" lon="0.14793">
        <ele>2120.81</ele>
        <time>2022-02-09T14:10:12Z</time>
      </trkpt>
      <trkpt lat="42.87594" lon="0.14779">
        <ele>2119.36</ele>
        <time>2022-02-09T14:10:14Z</time>
      </trkpt>
      <trkpt lat="42.87613" lon="0.14717">
        <ele>2115.52</ele>
        <time>2022-02-09T14:10:22Z</time>
      </trkpt>
      <trkpt lat="42.87629" lon="0.14673">
        <ele>2113.6</ele>
        <time>2022-02-09T14:10:32Z</time>
      </trkpt>
      <trkpt lat="42.8763" lon="0.1467">
        <ele>2113.6</ele>
        <time>2022-02-09T14:10:33Z</time>
      </trkpt>
      <trkpt lat="42.87634" lon="0.1465">
        <ele>2112.15</ele>
        <time>2022-02-09T14:10:39Z</time>
      </trkpt>
      <trkpt lat="42.8763" lon="0.14644">
        <ele>2111.19</ele>
        <time>2022-02-09T14:10:43Z</time>
      </trkpt>
      <trkpt lat="42.87624" lon="0.14634">
        <ele>2110.23</ele>
        <time>2022-02-09T14:10:48Z</time>
      </trkpt>
      <trkpt lat="42.8762" lon="0.14603">
        <ele>2105.91</ele>
        <time>2022-02-09T14:10:59Z</time>
      </trkpt>
      <trkpt lat="42.8762" lon="0.14599">
        <ele>2105.91</ele>
        <time>2022-02-09T14:11:00Z</time>
      </trkpt>
      <trkpt lat="42.87622" lon="0.14575">
        <ele>2100.62</ele>
        <time>2022-02-09T14:11:06Z</time>
      </trkpt>
      <trkpt lat="42.87621" lon="0.14567">
        <ele>2100.14</ele>
        <time>2022-02-09T14:11:08Z</time>
      </trkpt>
      <trkpt lat="42.87616" lon="0.14553">
        <ele>2099.66</ele>
        <time>2022-02-09T14:11:18Z</time>
      </trkpt>
      <trkpt lat="42.87615" lon="0.14535">
        <ele>2096.77</ele>
        <time>2022-02-09T14:11:29Z</time>
      </trkpt>
      <trkpt lat="42.87629" lon="0.14493">
        <ele>2094.85</ele>
        <time>2022-02-09T14:11:38Z</time>
      </trkpt>
      <trkpt lat="42.8765" lon="0.14454">
        <ele>2091.49</ele>
        <time>2022-02-09T14:11:50Z</time>
      </trkpt>
      <trkpt lat="42.87671" lon="0.14428">
        <ele>2088.12</ele>
        <time>2022-02-09T14:11:57Z</time>
      </trkpt>
      <trkpt lat="42.87687" lon="0.14407">
        <ele>2085.72</ele>
        <time>2022-02-09T14:12:01Z</time>
      </trkpt>
      <trkpt lat="42.87717" lon="0.14354">
        <ele>2082.35</ele>
        <time>2022-02-09T14:12:11Z</time>
      </trkpt>
      <trkpt lat="42.87734" lon="0.14299">
        <ele>2078.99</ele>
        <time>2022-02-09T14:12:22Z</time>
      </trkpt>
      <trkpt lat="42.87743" lon="0.14285">
        <ele>2078.99</ele>
        <time>2022-02-09T14:12:28Z</time>
      </trkpt>
      <trkpt lat="42.87755" lon="0.14281">
        <ele>2079.95</ele>
        <time>2022-02-09T14:12:43Z</time>
      </trkpt>
      <trkpt lat="42.87758" lon="0.14274">
        <ele>2080.43</ele>
        <time>2022-02-09T14:13:02Z</time>
      </trkpt>
      <trkpt lat="42.87772" lon="0.14266">
        <ele>2078.99</ele>
        <time>2022-02-09T14:13:15Z</time>
      </trkpt>
      <trkpt lat="42.87788" lon="0.14254">
        <ele>2075.62</ele>
        <time>2022-02-09T14:13:23Z</time>
      </trkpt>
      <trkpt lat="42.87789" lon="0.14251">
        <ele>2075.62</ele>
        <time>2022-02-09T14:13:24Z</time>
      </trkpt>
      <trkpt lat="42.87791" lon="0.14243">
        <ele>2074.18</ele>
        <time>2022-02-09T14:13:27Z</time>
      </trkpt>
      <trkpt lat="42.87794" lon="0.14232">
        <ele>2070.82</ele>
        <time>2022-02-09T14:13:38Z</time>
      </trkpt>
      <trkpt lat="42.87799" lon="0.14229">
        <ele>2068.89</ele>
        <time>2022-02-09T14:13:48Z</time>
      </trkpt>
      <trkpt lat="42.87802" lon="0.14224">
        <ele>2066.49</ele>
        <time>2022-02-09T14:13:52Z</time>
      </trkpt>
      <trkpt lat="42.87804" lon="0.14208">
        <ele>2062.17</ele>
        <time>2022-02-09T14:13:57Z</time>
      </trkpt>
      <trkpt lat="42.87804" lon="0.14205">
        <ele>2061.2</ele>
        <time>2022-02-09T14:13:58Z</time>
      </trkpt>
      <trkpt lat="42.87806" lon="0.14189">
        <ele>2058.32</ele>
        <time>2022-02-09T14:14:02Z</time>
      </trkpt>
      <trkpt lat="42.87815" lon="0.14173">
        <ele>2054.96</ele>
        <time>2022-02-09T14:14:11Z</time>
      </trkpt>
      <trkpt lat="42.87828" lon="0.14166">
        <ele>2052.07</ele>
        <time>2022-02-09T14:14:22Z</time>
      </trkpt>
      <trkpt lat="42.87842" lon="0.14151">
        <ele>2048.23</ele>
        <time>2022-02-09T14:14:32Z</time>
      </trkpt>
      <trkpt lat="42.87853" lon="0.14136">
        <ele>2045.34</ele>
        <time>2022-02-09T14:14:42Z</time>
      </trkpt>
      <trkpt lat="42.87856" lon="0.14131">
        <ele>2044.38</ele>
        <time>2022-02-09T14:15:03Z</time>
      </trkpt>
      <trkpt lat="42.87851" lon="0.14132">
        <ele>2044.38</ele>
        <time>2022-02-09T14:15:33Z</time>
      </trkpt>
      <trkpt lat="42.87854" lon="0.14132">
        <ele>2043.9</ele>
        <time>2022-02-09T14:15:55Z</time>
      </trkpt>
      <trkpt lat="42.87857" lon="0.14124">
        <ele>2040.54</ele>
        <time>2022-02-09T14:16:02Z</time>
      </trkpt>
      <trkpt lat="42.87861" lon="0.14107">
        <ele>2037.17</ele>
        <time>2022-02-09T14:16:08Z</time>
      </trkpt>
      <trkpt lat="42.87866" lon="0.14103">
        <ele>2034.77</ele>
        <time>2022-02-09T14:16:13Z</time>
      </trkpt>
      <trkpt lat="42.87881" lon="0.14102">
        <ele>2033.81</ele>
        <time>2022-02-09T14:16:25Z</time>
      </trkpt>
      <trkpt lat="42.87878" lon="0.14103">
        <ele>2033.81</ele>
        <time>2022-02-09T14:16:47Z</time>
      </trkpt>
      <trkpt lat="42.87885" lon="0.14096">
        <ele>2032.84</ele>
        <time>2022-02-09T14:17:04Z</time>
      </trkpt>
      <trkpt lat="42.87892" lon="0.14091">
        <ele>2032.84</ele>
        <time>2022-02-09T14:17:10Z</time>
      </trkpt>
      <trkpt lat="42.87893" lon="0.14081">
        <ele>2030.92</ele>
        <time>2022-02-09T14:17:13Z</time>
      </trkpt>
      <trkpt lat="42.87895" lon="0.14069">
        <ele>2029</ele>
        <time>2022-02-09T14:17:16Z</time>
      </trkpt>
      <trkpt lat="42.87897" lon="0.14055">
        <ele>2026.12</ele>
        <time>2022-02-09T14:17:19Z</time>
      </trkpt>
      <trkpt lat="42.87914" lon="0.1402">
        <ele>2022.27</ele>
        <time>2022-02-09T14:17:28Z</time>
      </trkpt>
      <trkpt lat="42.8792" lon="0.13976">
        <ele>2019.87</ele>
        <time>2022-02-09T14:17:39Z</time>
      </trkpt>
      <trkpt lat="42.87916" lon="0.13958">
        <ele>2016.5</ele>
        <time>2022-02-09T14:17:43Z</time>
      </trkpt>
      <trkpt lat="42.87925" lon="0.13918">
        <ele>2015.06</ele>
        <time>2022-02-09T14:17:54Z</time>
      </trkpt>
      <trkpt lat="42.87933" lon="0.13877">
        <ele>2011.22</ele>
        <time>2022-02-09T14:18:06Z</time>
      </trkpt>
      <trkpt lat="42.87934" lon="0.13872">
        <ele>2011.22</ele>
        <time>2022-02-09T14:18:07Z</time>
      </trkpt>
      <trkpt lat="42.87938" lon="0.13855">
        <ele>2009.77</ele>
        <time>2022-02-09T14:18:10Z</time>
      </trkpt>
      <trkpt lat="42.87951" lon="0.13816">
        <ele>2006.41</ele>
        <time>2022-02-09T14:18:18Z</time>
      </trkpt>
      <trkpt lat="42.87963" lon="0.13774">
        <ele>2003.52</ele>
        <time>2022-02-09T14:18:26Z</time>
      </trkpt>
      <trkpt lat="42.87972" lon="0.13749">
        <ele>2000.64</ele>
        <time>2022-02-09T14:18:30Z</time>
      </trkpt>
      <trkpt lat="42.87985" lon="0.13711">
        <ele>1997.76</ele>
        <time>2022-02-09T14:18:38Z</time>
      </trkpt>
      <trkpt lat="42.8799" lon="0.13676">
        <ele>1994.39</ele>
        <time>2022-02-09T14:18:49Z</time>
      </trkpt>
      <trkpt lat="42.87991" lon="0.13674">
        <ele>1993.91</ele>
        <time>2022-02-09T14:18:51Z</time>
      </trkpt>
      <trkpt lat="42.88002" lon="0.13655">
        <ele>1990.07</ele>
        <time>2022-02-09T14:18:59Z</time>
      </trkpt>
      <trkpt lat="42.88009" lon="0.13639">
        <ele>1986.7</ele>
        <time>2022-02-09T14:19:04Z</time>
      </trkpt>
      <trkpt lat="42.88012" lon="0.13632">
        <ele>1986.22</ele>
        <time>2022-02-09T14:19:06Z</time>
      </trkpt>
      <trkpt lat="42.88023" lon="0.13612">
        <ele>1982.38</ele>
        <time>2022-02-09T14:19:12Z</time>
      </trkpt>
      <trkpt lat="42.88046" lon="0.13583">
        <ele>1981.41</ele>
        <time>2022-02-09T14:19:22Z</time>
      </trkpt>
      <trkpt lat="42.88053" lon="0.13585">
        <ele>1980.93</ele>
        <time>2022-02-09T14:19:32Z</time>
      </trkpt>
      <trkpt lat="42.88049" lon="0.1358">
        <ele>1980.93</ele>
        <time>2022-02-09T14:19:50Z</time>
      </trkpt>
      <trkpt lat="42.88042" lon="0.1357">
        <ele>1978.05</ele>
        <time>2022-02-09T14:19:56Z</time>
      </trkpt>
      <trkpt lat="42.88046" lon="0.13561">
        <ele>1976.61</ele>
        <time>2022-02-09T14:20:00Z</time>
      </trkpt>
      <trkpt lat="42.88048" lon="0.13559">
        <ele>1975.65</ele>
        <time>2022-02-09T14:20:01Z</time>
      </trkpt>
      <trkpt lat="42.88055" lon="0.13555">
        <ele>1971.8</ele>
        <time>2022-02-09T14:20:05Z</time>
      </trkpt>
      <trkpt lat="42.88057" lon="0.13555">
        <ele>1971.8</ele>
        <time>2022-02-09T14:20:06Z</time>
      </trkpt>
      <trkpt lat="42.88072" lon="0.13553">
        <ele>1968.92</ele>
        <time>2022-02-09T14:20:13Z</time>
      </trkpt>
      <trkpt lat="42.88078" lon="0.13548">
        <ele>1967.48</ele>
        <time>2022-02-09T14:20:15Z</time>
      </trkpt>
      <trkpt lat="42.88087" lon="0.1354">
        <ele>1965.55</ele>
        <time>2022-02-09T14:20:18Z</time>
      </trkpt>
      <trkpt lat="42.88105" lon="0.13515">
        <ele>1962.67</ele>
        <time>2022-02-09T14:20:27Z</time>
      </trkpt>
      <trkpt lat="42.88102" lon="0.13513">
        <ele>1962.67</ele>
        <time>2022-02-09T14:20:37Z</time>
      </trkpt>
      <trkpt lat="42.88095" lon="0.1351">
        <ele>1962.19</ele>
        <time>2022-02-09T14:20:49Z</time>
      </trkpt>
      <trkpt lat="42.88093" lon="0.13479">
        <ele>1958.82</ele>
        <time>2022-02-09T14:20:58Z</time>
      </trkpt>
      <trkpt lat="42.88102" lon="0.13451">
        <ele>1955.46</ele>
        <time>2022-02-09T14:21:03Z</time>
      </trkpt>
      <trkpt lat="42.88103" lon="0.13444">
        <ele>1955.46</ele>
        <time>2022-02-09T14:21:04Z</time>
      </trkpt>
      <trkpt lat="42.88108" lon="0.13398">
        <ele>1953.06</ele>
        <time>2022-02-09T14:21:10Z</time>
      </trkpt>
      <trkpt lat="42.88111" lon="0.13375">
        <ele>1950.65</ele>
        <time>2022-02-09T14:21:13Z</time>
      </trkpt>
      <trkpt lat="42.88108" lon="0.13344">
        <ele>1951.13</ele>
        <time>2022-02-09T14:21:22Z</time>
      </trkpt>
      <trkpt lat="42.88107" lon="0.13348">
        <ele>1951.13</ele>
        <time>2022-02-09T14:21:34Z</time>
      </trkpt>
      <trkpt lat="42.88108" lon="0.13343">
        <ele>1950.17</ele>
        <time>2022-02-09T14:21:50Z</time>
      </trkpt>
      <trkpt lat="42.88116" lon="0.13291">
        <ele>1947.77</ele>
        <time>2022-02-09T14:22:08Z</time>
      </trkpt>
      <trkpt lat="42.88121" lon="0.13241">
        <ele>1943.92</ele>
        <time>2022-02-09T14:22:22Z</time>
      </trkpt>
      <trkpt lat="42.88122" lon="0.13237">
        <ele>1943.92</ele>
        <time>2022-02-09T14:22:23Z</time>
      </trkpt>
      <trkpt lat="42.88123" lon="0.13222">
        <ele>1942.48</ele>
        <time>2022-02-09T14:22:26Z</time>
      </trkpt>
      <trkpt lat="42.88124" lon="0.13199">
        <ele>1941.52</ele>
        <time>2022-02-09T14:22:30Z</time>
      </trkpt>
      <trkpt lat="42.88137" lon="0.13133">
        <ele>1937.67</ele>
        <time>2022-02-09T14:22:40Z</time>
      </trkpt>
      <trkpt lat="42.8816" lon="0.13082">
        <ele>1936.71</ele>
        <time>2022-02-09T14:22:52Z</time>
      </trkpt>
      <trkpt lat="42.88158" lon="0.13034">
        <ele>1934.79</ele>
        <time>2022-02-09T14:23:07Z</time>
      </trkpt>
      <trkpt lat="42.88162" lon="0.12994">
        <ele>1934.79</ele>
        <time>2022-02-09T14:23:19Z</time>
      </trkpt>
      <trkpt lat="42.88162" lon="0.12993">
        <ele>1934.79</ele>
        <time>2022-02-09T14:23:20Z</time>
      </trkpt>
      <trkpt lat="42.8816" lon="0.12981">
        <ele>1934.79</ele>
        <time>2022-02-09T14:23:36Z</time>
      </trkpt>
      <trkpt lat="42.88163" lon="0.12975">
        <ele>1934.79</ele>
        <time>2022-02-09T14:23:55Z</time>
      </trkpt>
      <trkpt lat="42.8817" lon="0.12921">
        <ele>1932.39</ele>
        <time>2022-02-09T14:24:11Z</time>
      </trkpt>
      <trkpt lat="42.88168" lon="0.12876">
        <ele>1930.46</ele>
        <time>2022-02-09T14:24:24Z</time>
      </trkpt>
      <trkpt lat="42.88165" lon="0.12826">
        <ele>1928.54</ele>
        <time>2022-02-09T14:24:35Z</time>
      </trkpt>
      <trkpt lat="42.88167" lon="0.12784">
        <ele>1926.14</ele>
        <time>2022-02-09T14:24:48Z</time>
      </trkpt>
      <trkpt lat="42.8817" lon="0.12765">
        <ele>1926.14</ele>
        <time>2022-02-09T14:24:59Z</time>
      </trkpt>
      <trkpt lat="42.88172" lon="0.12742">
        <ele>1923.74</ele>
        <time>2022-02-09T14:25:17Z</time>
      </trkpt>
      <trkpt lat="42.88173" lon="0.12693">
        <ele>1920.37</ele>
        <time>2022-02-09T14:25:27Z</time>
      </trkpt>
      <trkpt lat="42.88167" lon="0.12642">
        <ele>1918.93</ele>
        <time>2022-02-09T14:25:42Z</time>
      </trkpt>
      <trkpt lat="42.88159" lon="0.12585">
        <ele>1917.01</ele>
        <time>2022-02-09T14:25:56Z</time>
      </trkpt>
      <trkpt lat="42.8816" lon="0.12554">
        <ele>1917.49</ele>
        <time>2022-02-09T14:26:10Z</time>
      </trkpt>
      <trkpt lat="42.88156" lon="0.12543">
        <ele>1917.49</ele>
        <time>2022-02-09T14:26:25Z</time>
      </trkpt>
      <trkpt lat="42.88148" lon="0.12533">
        <ele>1917.97</ele>
        <time>2022-02-09T14:26:40Z</time>
      </trkpt>
      <trkpt lat="42.88144" lon="0.12523">
        <ele>1918.45</ele>
        <time>2022-02-09T14:26:57Z</time>
      </trkpt>
      <trkpt lat="42.88143" lon="0.12519">
        <ele>1917.49</ele>
        <time>2022-02-09T14:27:00Z</time>
      </trkpt>
      <trkpt lat="42.88143" lon="0.12516">
        <ele>1917.49</ele>
        <time>2022-02-09T14:27:02Z</time>
      </trkpt>
      <trkpt lat="42.88141" lon="0.12477">
        <ele>1915.56</ele>
        <time>2022-02-09T14:27:17Z</time>
      </trkpt>
      <trkpt lat="42.88147" lon="0.12441">
        <ele>1913.64</ele>
        <time>2022-02-09T14:27:29Z</time>
      </trkpt>
      <trkpt lat="42.88156" lon="0.12392">
        <ele>1911.24</ele>
        <time>2022-02-09T14:27:39Z</time>
      </trkpt>
      <trkpt lat="42.88164" lon="0.12335">
        <ele>1908.83</ele>
        <time>2022-02-09T14:27:51Z</time>
      </trkpt>
      <trkpt lat="42.88167" lon="0.12321">
        <ele>1908.83</ele>
        <time>2022-02-09T14:28:02Z</time>
      </trkpt>
      <trkpt lat="42.88171" lon="0.12289">
        <ele>1906.91</ele>
        <time>2022-02-09T14:28:12Z</time>
      </trkpt>
      <trkpt lat="42.88186" lon="0.12243">
        <ele>1904.51</ele>
        <time>2022-02-09T14:28:24Z</time>
      </trkpt>
      <trkpt lat="42.88207" lon="0.1222">
        <ele>1903.07</ele>
        <time>2022-02-09T14:28:37Z</time>
      </trkpt>
      <trkpt lat="42.88227" lon="0.12196">
        <ele>1900.66</ele>
        <time>2022-02-09T14:28:48Z</time>
      </trkpt>
      <trkpt lat="42.88231" lon="0.12192">
        <ele>1900.18</ele>
        <time>2022-02-09T14:29:03Z</time>
      </trkpt>
      <trkpt lat="42.88233" lon="0.12185">
        <ele>1899.7</ele>
        <time>2022-02-09T14:29:07Z</time>
      </trkpt>
      <trkpt lat="42.88238" lon="0.12163">
        <ele>1897.3</ele>
        <time>2022-02-09T14:29:15Z</time>
      </trkpt>
      <trkpt lat="42.88248" lon="0.12155">
        <ele>1897.3</ele>
        <time>2022-02-09T14:29:26Z</time>
      </trkpt>
      <trkpt lat="42.88249" lon="0.12152">
        <ele>1897.3</ele>
        <time>2022-02-09T14:29:47Z</time>
      </trkpt>
      <trkpt lat="42.88261" lon="0.12143">
        <ele>1893.93</ele>
        <time>2022-02-09T14:30:00Z</time>
      </trkpt>
      <trkpt lat="42.88268" lon="0.12136">
        <ele>1892.49</ele>
        <time>2022-02-09T14:30:04Z</time>
      </trkpt>
      <trkpt lat="42.88276" lon="0.12127">
        <ele>1890.57</ele>
        <time>2022-02-09T14:30:08Z</time>
      </trkpt>
      <trkpt lat="42.88286" lon="0.12121">
        <ele>1888.17</ele>
        <time>2022-02-09T14:30:12Z</time>
      </trkpt>
      <trkpt lat="42.88298" lon="0.12113">
        <ele>1886.72</ele>
        <time>2022-02-09T14:30:15Z</time>
      </trkpt>
      <trkpt lat="42.88327" lon="0.12091">
        <ele>1883.36</ele>
        <time>2022-02-09T14:30:25Z</time>
      </trkpt>
      <trkpt lat="42.88328" lon="0.12089">
        <ele>1882.88</ele>
        <time>2022-02-09T14:30:26Z</time>
      </trkpt>
      <trkpt lat="42.88329" lon="0.12086">
        <ele>1880.96</ele>
        <time>2022-02-09T14:30:27Z</time>
      </trkpt>
      <trkpt lat="42.88343" lon="0.12052">
        <ele>1879.03</ele>
        <time>2022-02-09T14:30:37Z</time>
      </trkpt>
      <trkpt lat="42.88344" lon="0.12003">
        <ele>1877.11</ele>
        <time>2022-02-09T14:30:48Z</time>
      </trkpt>
      <trkpt lat="42.88348" lon="0.11986">
        <ele>1873.75</ele>
        <time>2022-02-09T14:30:52Z</time>
      </trkpt>
      <trkpt lat="42.88357" lon="0.11975">
        <ele>1872.3</ele>
        <time>2022-02-09T14:31:01Z</time>
      </trkpt>
      <trkpt lat="42.88361" lon="0.1197">
        <ele>1870.86</ele>
        <time>2022-02-09T14:31:03Z</time>
      </trkpt>
      <trkpt lat="42.88368" lon="0.11961">
        <ele>1869.9</ele>
        <time>2022-02-09T14:31:06Z</time>
      </trkpt>
      <trkpt lat="42.88401" lon="0.11909">
        <ele>1867.02</ele>
        <time>2022-02-09T14:31:20Z</time>
      </trkpt>
      <trkpt lat="42.88406" lon="0.11868">
        <ele>1865.58</ele>
        <time>2022-02-09T14:31:31Z</time>
      </trkpt>
      <trkpt lat="42.88404" lon="0.11862">
        <ele>1866.06</ele>
        <time>2022-02-09T14:31:43Z</time>
      </trkpt>
      <trkpt lat="42.88415" lon="0.11833">
        <ele>1865.09</ele>
        <time>2022-02-09T14:31:57Z</time>
      </trkpt>
      <trkpt lat="42.88424" lon="0.11811">
        <ele>1863.17</ele>
        <time>2022-02-09T14:32:05Z</time>
      </trkpt>
      <trkpt lat="42.88429" lon="0.11793">
        <ele>1860.77</ele>
        <time>2022-02-09T14:32:09Z</time>
      </trkpt>
      <trkpt lat="42.88426" lon="0.11764">
        <ele>1857.4</ele>
        <time>2022-02-09T14:32:15Z</time>
      </trkpt>
      <trkpt lat="42.88422" lon="0.11741">
        <ele>1855.96</ele>
        <time>2022-02-09T14:32:18Z</time>
      </trkpt>
      <trkpt lat="42.88418" lon="0.11709">
        <ele>1854.52</ele>
        <time>2022-02-09T14:32:26Z</time>
      </trkpt>
      <trkpt lat="42.88418" lon="0.11714">
        <ele>1855</ele>
        <time>2022-02-09T14:32:38Z</time>
      </trkpt>
      <trkpt lat="42.88417" lon="0.11718">
        <ele>1854.04</ele>
        <time>2022-02-09T14:32:56Z</time>
      </trkpt>
      <trkpt lat="42.8841" lon="0.11703">
        <ele>1850.68</ele>
        <time>2022-02-09T14:33:01Z</time>
      </trkpt>
      <trkpt lat="42.88407" lon="0.11699">
        <ele>1849.23</ele>
        <time>2022-02-09T14:33:02Z</time>
      </trkpt>
      <trkpt lat="42.88401" lon="0.11689">
        <ele>1846.35</ele>
        <time>2022-02-09T14:33:05Z</time>
      </trkpt>
      <trkpt lat="42.88398" lon="0.11678">
        <ele>1844.43</ele>
        <time>2022-02-09T14:33:08Z</time>
      </trkpt>
      <trkpt lat="42.88397" lon="0.1167">
        <ele>1842.02</ele>
        <time>2022-02-09T14:33:10Z</time>
      </trkpt>
      <trkpt lat="42.88396" lon="0.11659">
        <ele>1838.66</ele>
        <time>2022-02-09T14:33:13Z</time>
      </trkpt>
      <trkpt lat="42.88395" lon="0.11646">
        <ele>1837.22</ele>
        <time>2022-02-09T14:33:16Z</time>
      </trkpt>
      <trkpt lat="42.88393" lon="0.1164">
        <ele>1833.85</ele>
        <time>2022-02-09T14:33:18Z</time>
      </trkpt>
      <trkpt lat="42.88391" lon="0.11631">
        <ele>1832.41</ele>
        <time>2022-02-09T14:33:20Z</time>
      </trkpt>
      <trkpt lat="42.8839" lon="0.11621">
        <ele>1829.05</ele>
        <time>2022-02-09T14:33:22Z</time>
      </trkpt>
      <trkpt lat="42.88389" lon="0.11605">
        <ele>1827.12</ele>
        <time>2022-02-09T14:33:25Z</time>
      </trkpt>
      <trkpt lat="42.88388" lon="0.11594">
        <ele>1827.6</ele>
        <time>2022-02-09T14:33:32Z</time>
      </trkpt>
      <trkpt lat="42.88385" lon="0.11603">
        <ele>1827.6</ele>
        <time>2022-02-09T14:33:51Z</time>
      </trkpt>
      <trkpt lat="42.8839" lon="0.11588">
        <ele>1826.16</ele>
        <time>2022-02-09T14:33:57Z</time>
      </trkpt>
      <trkpt lat="42.88401" lon="0.11569">
        <ele>1823.76</ele>
        <time>2022-02-09T14:34:03Z</time>
      </trkpt>
      <trkpt lat="42.88408" lon="0.11538">
        <ele>1820.39</ele>
        <time>2022-02-09T14:34:12Z</time>
      </trkpt>
      <trkpt lat="42.88408" lon="0.11535">
        <ele>1820.39</ele>
        <time>2022-02-09T14:34:13Z</time>
      </trkpt>
      <trkpt lat="42.88408" lon="0.1153">
        <ele>1815.59</ele>
        <time>2022-02-09T14:34:16Z</time>
      </trkpt>
      <trkpt lat="42.88408" lon="0.1153">
        <ele>1815.11</ele>
        <time>2022-02-09T14:34:17Z</time>
      </trkpt>
      <trkpt lat="42.88406" lon="0.11528">
        <ele>1812.22</ele>
        <time>2022-02-09T14:34:20Z</time>
      </trkpt>
      <trkpt lat="42.88402" lon="0.11506">
        <ele>1809.34</ele>
        <time>2022-02-09T14:34:26Z</time>
      </trkpt>
      <trkpt lat="42.88402" lon="0.1149">
        <ele>1806.45</ele>
        <time>2022-02-09T14:34:29Z</time>
      </trkpt>
      <trkpt lat="42.88402" lon="0.11485">
        <ele>1806.45</ele>
        <time>2022-02-09T14:34:30Z</time>
      </trkpt>
      <trkpt lat="42.88404" lon="0.11472">
        <ele>1808.38</ele>
        <time>2022-02-09T14:34:33Z</time>
      </trkpt>
      <trkpt lat="42.88401" lon="0.11452">
        <ele>1806.45</ele>
        <time>2022-02-09T14:34:42Z</time>
      </trkpt>
      <trkpt lat="42.88401" lon="0.11413">
        <ele>1803.09</ele>
        <time>2022-02-09T14:34:55Z</time>
      </trkpt>
      <trkpt lat="42.88401" lon="0.11409">
        <ele>1803.09</ele>
        <time>2022-02-09T14:34:56Z</time>
      </trkpt>
      <trkpt lat="42.88398" lon="0.11399">
        <ele>1801.17</ele>
        <time>2022-02-09T14:34:58Z</time>
      </trkpt>
      <trkpt lat="42.88393" lon="0.11383">
        <ele>1799.24</ele>
        <time>2022-02-09T14:35:01Z</time>
      </trkpt>
      <trkpt lat="42.88394" lon="0.11359">
        <ele>1797.32</ele>
        <time>2022-02-09T14:35:05Z</time>
      </trkpt>
      <trkpt lat="42.884" lon="0.11345">
        <ele>1795.88</ele>
        <time>2022-02-09T14:35:08Z</time>
      </trkpt>
      <trkpt lat="42.88408" lon="0.11325">
        <ele>1791.55</ele>
        <time>2022-02-09T14:35:12Z</time>
      </trkpt>
      <trkpt lat="42.88409" lon="0.11319">
        <ele>1791.55</ele>
        <time>2022-02-09T14:35:13Z</time>
      </trkpt>
      <trkpt lat="42.88413" lon="0.11297">
        <ele>1787.71</ele>
        <time>2022-02-09T14:35:17Z</time>
      </trkpt>
      <trkpt lat="42.88414" lon="0.11293">
        <ele>1787.71</ele>
        <time>2022-02-09T14:35:18Z</time>
      </trkpt>
      <trkpt lat="42.88417" lon="0.11286">
        <ele>1788.19</ele>
        <time>2022-02-09T14:35:27Z</time>
      </trkpt>
      <trkpt lat="42.88419" lon="0.11288">
        <ele>1787.71</ele>
        <time>2022-02-09T14:35:43Z</time>
      </trkpt>
      <trkpt lat="42.88424" lon="0.11273">
        <ele>1784.34</ele>
        <time>2022-02-09T14:35:48Z</time>
      </trkpt>
      <trkpt lat="42.8846" lon="0.11235">
        <ele>1780.5</ele>
        <time>2022-02-09T14:35:57Z</time>
      </trkpt>
      <trkpt lat="42.88464" lon="0.1123">
        <ele>1780.5</ele>
        <time>2022-02-09T14:35:58Z</time>
      </trkpt>
      <trkpt lat="42.88498" lon="0.11185">
        <ele>1777.13</ele>
        <time>2022-02-09T14:36:10Z</time>
      </trkpt>
      <trkpt lat="42.88521" lon="0.11147">
        <ele>1774.73</ele>
        <time>2022-02-09T14:36:19Z</time>
      </trkpt>
      <trkpt lat="42.88524" lon="0.1114">
        <ele>1773.77</ele>
        <time>2022-02-09T14:36:20Z</time>
      </trkpt>
      <trkpt lat="42.88527" lon="0.11136">
        <ele>1771.85</ele>
        <time>2022-02-09T14:36:21Z</time>
      </trkpt>
      <trkpt lat="42.88527" lon="0.11129">
        <ele>1768.96</ele>
        <time>2022-02-09T14:36:23Z</time>
      </trkpt>
      <trkpt lat="42.88526" lon="0.11122">
        <ele>1766.56</ele>
        <time>2022-02-09T14:36:25Z</time>
      </trkpt>
      <trkpt lat="42.88521" lon="0.11112">
        <ele>1762.71</ele>
        <time>2022-02-09T14:36:27Z</time>
      </trkpt>
      <trkpt lat="42.88518" lon="0.11107">
        <ele>1762.71</ele>
        <time>2022-02-09T14:36:28Z</time>
      </trkpt>
      <trkpt lat="42.88515" lon="0.11089">
        <ele>1760.79</ele>
        <time>2022-02-09T14:36:31Z</time>
      </trkpt>
      <trkpt lat="42.88535" lon="0.11049">
        <ele>1756.95</ele>
        <time>2022-02-09T14:36:42Z</time>
      </trkpt>
      <trkpt lat="42.88537" lon="0.11046">
        <ele>1755.99</ele>
        <time>2022-02-09T14:36:43Z</time>
      </trkpt>
      <trkpt lat="42.88539" lon="0.11039">
        <ele>1754.54</ele>
        <time>2022-02-09T14:36:44Z</time>
      </trkpt>
      <trkpt lat="42.88542" lon="0.11027">
        <ele>1750.7</ele>
        <time>2022-02-09T14:36:46Z</time>
      </trkpt>
      <trkpt lat="42.88547" lon="0.11009">
        <ele>1748.78</ele>
        <time>2022-02-09T14:36:49Z</time>
      </trkpt>
      <trkpt lat="42.88561" lon="0.10985">
        <ele>1748.29</ele>
        <time>2022-02-09T14:36:57Z</time>
      </trkpt>
      <trkpt lat="42.88552" lon="0.11012">
        <ele>1748.29</ele>
        <time>2022-02-09T14:37:13Z</time>
      </trkpt>
      <trkpt lat="42.88552" lon="0.11011">
        <ele>1748.29</ele>
        <time>2022-02-09T14:37:15Z</time>
      </trkpt>
      <trkpt lat="42.8857" lon="0.10988">
        <ele>1743.49</ele>
        <time>2022-02-09T14:37:26Z</time>
      </trkpt>
      <trkpt lat="42.88581" lon="0.10979">
        <ele>1742.53</ele>
        <time>2022-02-09T14:37:29Z</time>
      </trkpt>
      <trkpt lat="42.88582" lon="0.1097">
        <ele>1738.68</ele>
        <time>2022-02-09T14:37:32Z</time>
      </trkpt>
      <trkpt lat="42.88582" lon="0.10953">
        <ele>1735.32</ele>
        <time>2022-02-09T14:37:36Z</time>
      </trkpt>
      <trkpt lat="42.88578" lon="0.10937">
        <ele>1731.47</ele>
        <time>2022-02-09T14:37:39Z</time>
      </trkpt>
      <trkpt lat="42.88575" lon="0.10922">
        <ele>1726.67</ele>
        <time>2022-02-09T14:37:42Z</time>
      </trkpt>
      <trkpt lat="42.88574" lon="0.10917">
        <ele>1726.67</ele>
        <time>2022-02-09T14:37:43Z</time>
      </trkpt>
      <trkpt lat="42.88579" lon="0.10896">
        <ele>1723.3</ele>
        <time>2022-02-09T14:37:49Z</time>
      </trkpt>
      <trkpt lat="42.88594" lon="0.10882">
        <ele>1719.94</ele>
        <time>2022-02-09T14:37:54Z</time>
      </trkpt>
      <trkpt lat="42.88598" lon="0.1088">
        <ele>1719.94</ele>
        <time>2022-02-09T14:37:55Z</time>
      </trkpt>
      <trkpt lat="42.88615" lon="0.1087">
        <ele>1716.57</ele>
        <time>2022-02-09T14:38:00Z</time>
      </trkpt>
      <trkpt lat="42.88638" lon="0.10869">
        <ele>1713.21</ele>
        <time>2022-02-09T14:38:08Z</time>
      </trkpt>
      <trkpt lat="42.88643" lon="0.10866">
        <ele>1712.25</ele>
        <time>2022-02-09T14:38:10Z</time>
      </trkpt>
      <trkpt lat="42.88663" lon="0.10861">
        <ele>1708.88</ele>
        <time>2022-02-09T14:38:18Z</time>
      </trkpt>
      <trkpt lat="42.88669" lon="0.10857">
        <ele>1707.44</ele>
        <time>2022-02-09T14:38:20Z</time>
      </trkpt>
      <trkpt lat="42.88685" lon="0.10847">
        <ele>1704.55</ele>
        <time>2022-02-09T14:38:29Z</time>
      </trkpt>
      <trkpt lat="42.88705" lon="0.10842">
        <ele>1700.71</ele>
        <time>2022-02-09T14:38:37Z</time>
      </trkpt>
      <trkpt lat="42.88731" lon="0.10832">
        <ele>1697.83</ele>
        <time>2022-02-09T14:38:50Z</time>
      </trkpt>
      <trkpt lat="42.88734" lon="0.10836">
        <ele>1696.86</ele>
        <time>2022-02-09T14:39:01Z</time>
      </trkpt>
      <trkpt lat="42.8874" lon="0.10833">
        <ele>1693.5</ele>
        <time>2022-02-09T14:39:05Z</time>
      </trkpt>
      <trkpt lat="42.88771" lon="0.10829">
        <ele>1690.14</ele>
        <time>2022-02-09T14:39:16Z</time>
      </trkpt>
      <trkpt lat="42.88798" lon="0.10821">
        <ele>1685.81</ele>
        <time>2022-02-09T14:39:25Z</time>
      </trkpt>
      <trkpt lat="42.88824" lon="0.10807">
        <ele>1682.44</ele>
        <time>2022-02-09T14:39:34Z</time>
      </trkpt>
      <trkpt lat="42.88828" lon="0.10805">
        <ele>1682.44</ele>
        <time>2022-02-09T14:39:35Z</time>
      </trkpt>
      <trkpt lat="42.88855" lon="0.10796">
        <ele>1679.08</ele>
        <time>2022-02-09T14:39:41Z</time>
      </trkpt>
      <trkpt lat="42.88863" lon="0.10796">
        <ele>1680.52</ele>
        <time>2022-02-09T14:39:44Z</time>
      </trkpt>
      <trkpt lat="42.88865" lon="0.10797">
        <ele>1680.04</ele>
        <time>2022-02-09T14:39:48Z</time>
      </trkpt>
      <trkpt lat="42.88861" lon="0.10803">
        <ele>1681.48</ele>
        <time>2022-02-09T14:39:54Z</time>
      </trkpt>
      <trkpt lat="42.88862" lon="0.10801">
        <ele>1681.48</ele>
        <time>2022-02-09T14:39:59Z</time>
      </trkpt>
      <trkpt lat="42.88869" lon="0.108">
        <ele>1680.04</ele>
        <time>2022-02-09T14:40:02Z</time>
      </trkpt>
      <trkpt lat="42.88872" lon="0.10799">
        <ele>1679.56</ele>
        <time>2022-02-09T14:40:03Z</time>
      </trkpt>
      <trkpt lat="42.88908" lon="0.10777">
        <ele>1676.2</ele>
        <time>2022-02-09T14:40:15Z</time>
      </trkpt>
      <trkpt lat="42.88943" lon="0.10748">
        <ele>1672.83</ele>
        <time>2022-02-09T14:40:26Z</time>
      </trkpt>
      <trkpt lat="42.88963" lon="0.10743">
        <ele>1669.95</ele>
        <time>2022-02-09T14:40:33Z</time>
      </trkpt>
      <trkpt lat="42.88979" lon="0.10743">
        <ele>1668.51</ele>
        <time>2022-02-09T14:40:37Z</time>
      </trkpt>
      <trkpt lat="42.88995" lon="0.10746">
        <ele>1667.06</ele>
        <time>2022-02-09T14:40:41Z</time>
      </trkpt>
      <trkpt lat="42.89021" lon="0.10747">
        <ele>1663.7</ele>
        <time>2022-02-09T14:40:47Z</time>
      </trkpt>
      <trkpt lat="42.89025" lon="0.10747">
        <ele>1663.7</ele>
        <time>2022-02-09T14:40:48Z</time>
      </trkpt>
      <trkpt lat="42.89062" lon="0.10737">
        <ele>1660.33</ele>
        <time>2022-02-09T14:40:56Z</time>
      </trkpt>
      <trkpt lat="42.89075" lon="0.10727">
        <ele>1658.89</ele>
        <time>2022-02-09T14:40:59Z</time>
      </trkpt>
      <trkpt lat="42.89094" lon="0.10721">
        <ele>1656.49</ele>
        <time>2022-02-09T14:41:04Z</time>
      </trkpt>
      <trkpt lat="42.89105" lon="0.10722">
        <ele>1654.57</ele>
        <time>2022-02-09T14:41:07Z</time>
      </trkpt>
      <trkpt lat="42.89114" lon="0.10723">
        <ele>1653.6</ele>
        <time>2022-02-09T14:41:09Z</time>
      </trkpt>
      <trkpt lat="42.89142" lon="0.10716">
        <ele>1650.24</ele>
        <time>2022-02-09T14:41:16Z</time>
      </trkpt>
      <trkpt lat="42.89146" lon="0.10714">
        <ele>1650.24</ele>
        <time>2022-02-09T14:41:17Z</time>
      </trkpt>
      <trkpt lat="42.89158" lon="0.10711">
        <ele>1648.32</ele>
        <time>2022-02-09T14:41:20Z</time>
      </trkpt>
      <trkpt lat="42.89186" lon="0.10715">
        <ele>1644.47</ele>
        <time>2022-02-09T14:41:30Z</time>
      </trkpt>
      <trkpt lat="42.89208" lon="0.10719">
        <ele>1641.11</ele>
        <time>2022-02-09T14:41:38Z</time>
      </trkpt>
      <trkpt lat="42.89231" lon="0.10724">
        <ele>1637.74</ele>
        <time>2022-02-09T14:41:44Z</time>
      </trkpt>
      <trkpt lat="42.89255" lon="0.10725">
        <ele>1634.86</ele>
        <time>2022-02-09T14:41:50Z</time>
      </trkpt>
      <trkpt lat="42.89286" lon="0.10733">
        <ele>1631.98</ele>
        <time>2022-02-09T14:42:03Z</time>
      </trkpt>
      <trkpt lat="42.89296" lon="0.10733">
        <ele>1629.57</ele>
        <time>2022-02-09T14:42:07Z</time>
      </trkpt>
      <trkpt lat="42.89301" lon="0.10733">
        <ele>1629.09</ele>
        <time>2022-02-09T14:42:09Z</time>
      </trkpt>
      <trkpt lat="42.89301" lon="0.10727">
        <ele>1625.73</ele>
        <time>2022-02-09T14:42:13Z</time>
      </trkpt>
      <trkpt lat="42.89297" lon="0.10709">
        <ele>1622.36</ele>
        <time>2022-02-09T14:42:19Z</time>
      </trkpt>
      <trkpt lat="42.89295" lon="0.10702">
        <ele>1620.92</ele>
        <time>2022-02-09T14:42:22Z</time>
      </trkpt>
      <trkpt lat="42.89293" lon="0.10693">
        <ele>1617.56</ele>
        <time>2022-02-09T14:42:26Z</time>
      </trkpt>
      <trkpt lat="42.89297" lon="0.10687">
        <ele>1616.11</ele>
        <time>2022-02-09T14:42:29Z</time>
      </trkpt>
      <trkpt lat="42.89308" lon="0.1068">
        <ele>1612.75</ele>
        <time>2022-02-09T14:42:34Z</time>
      </trkpt>
      <trkpt lat="42.89313" lon="0.10679">
        <ele>1611.31</ele>
        <time>2022-02-09T14:42:36Z</time>
      </trkpt>
      <trkpt lat="42.89316" lon="0.1068">
        <ele>1611.31</ele>
        <time>2022-02-09T14:42:37Z</time>
      </trkpt>
      <trkpt lat="42.89321" lon="0.10667">
        <ele>1606.02</ele>
        <time>2022-02-09T14:42:42Z</time>
      </trkpt>
      <trkpt lat="42.89323" lon="0.10664">
        <ele>1606.02</ele>
        <time>2022-02-09T14:42:43Z</time>
      </trkpt>
      <trkpt lat="42.89327" lon="0.10662">
        <ele>1605.06</ele>
        <time>2022-02-09T14:42:45Z</time>
      </trkpt>
      <trkpt lat="42.8933" lon="0.10662">
        <ele>1604.58</ele>
        <time>2022-02-09T14:42:46Z</time>
      </trkpt>
      <trkpt lat="42.89346" lon="0.10668">
        <ele>1601.21</ele>
        <time>2022-02-09T14:42:52Z</time>
      </trkpt>
      <trkpt lat="42.89349" lon="0.1067">
        <ele>1601.21</ele>
        <time>2022-02-09T14:42:53Z</time>
      </trkpt>
      <trkpt lat="42.89362" lon="0.1067">
        <ele>1596.89</ele>
        <time>2022-02-09T14:42:56Z</time>
      </trkpt>
      <trkpt lat="42.89368" lon="0.10668">
        <ele>1595.93</ele>
        <time>2022-02-09T14:42:58Z</time>
      </trkpt>
      <trkpt lat="42.89381" lon="0.10659">
        <ele>1591.12</ele>
        <time>2022-02-09T14:43:01Z</time>
      </trkpt>
      <trkpt lat="42.89391" lon="0.10648">
        <ele>1588.24</ele>
        <time>2022-02-09T14:43:04Z</time>
      </trkpt>
      <trkpt lat="42.89399" lon="0.10642">
        <ele>1585.35</ele>
        <time>2022-02-09T14:43:06Z</time>
      </trkpt>
      <trkpt lat="42.89401" lon="0.1064">
        <ele>1585.83</ele>
        <time>2022-02-09T14:43:07Z</time>
      </trkpt>
      <trkpt lat="42.89407" lon="0.10638">
        <ele>1584.87</ele>
        <time>2022-02-09T14:43:09Z</time>
      </trkpt>
      <trkpt lat="42.89415" lon="0.10642">
        <ele>1583.43</ele>
        <time>2022-02-09T14:43:11Z</time>
      </trkpt>
      <trkpt lat="42.89422" lon="0.10641">
        <ele>1579.58</ele>
        <time>2022-02-09T14:43:14Z</time>
      </trkpt>
      <trkpt lat="42.8943" lon="0.10632">
        <ele>1577.66</ele>
        <time>2022-02-09T14:43:16Z</time>
      </trkpt>
      <trkpt lat="42.89437" lon="0.10621">
        <ele>1576.7</ele>
        <time>2022-02-09T14:43:18Z</time>
      </trkpt>
      <trkpt lat="42.89452" lon="0.10606">
        <ele>1573.33</ele>
        <time>2022-02-09T14:43:22Z</time>
      </trkpt>
      <trkpt lat="42.8946" lon="0.10607">
        <ele>1571.41</ele>
        <time>2022-02-09T14:43:24Z</time>
      </trkpt>
      <trkpt lat="42.89465" lon="0.10607">
        <ele>1568.05</ele>
        <time>2022-02-09T14:43:25Z</time>
      </trkpt>
      <trkpt lat="42.8947" lon="0.10608">
        <ele>1569.49</ele>
        <time>2022-02-09T14:43:26Z</time>
      </trkpt>
      <trkpt lat="42.89492" lon="0.10606">
        <ele>1564.2</ele>
        <time>2022-02-09T14:43:30Z</time>
      </trkpt>
      <trkpt lat="42.89497" lon="0.10604">
        <ele>1564.2</ele>
        <time>2022-02-09T14:43:31Z</time>
      </trkpt>
      <trkpt lat="42.89501" lon="0.10602">
        <ele>1563.24</ele>
        <time>2022-02-09T14:43:32Z</time>
      </trkpt>
      <trkpt lat="42.89505" lon="0.10598">
        <ele>1562.28</ele>
        <time>2022-02-09T14:43:33Z</time>
      </trkpt>
      <trkpt lat="42.89516" lon="0.10589">
        <ele>1559.4</ele>
        <time>2022-02-09T14:43:36Z</time>
      </trkpt>
      <trkpt lat="42.89518" lon="0.10587">
        <ele>1558.43</ele>
        <time>2022-02-09T14:43:37Z</time>
      </trkpt>
      <trkpt lat="42.89531" lon="0.10563">
        <ele>1556.03</ele>
        <time>2022-02-09T14:43:40Z</time>
      </trkpt>
      <trkpt lat="42.89536" lon="0.10549">
        <ele>1555.55</ele>
        <time>2022-02-09T14:43:42Z</time>
      </trkpt>
      <trkpt lat="42.89546" lon="0.10501">
        <ele>1552.19</ele>
        <time>2022-02-09T14:43:50Z</time>
      </trkpt>
      <trkpt lat="42.89563" lon="0.10445">
        <ele>1551.22</ele>
        <time>2022-02-09T14:44:03Z</time>
      </trkpt>
      <trkpt lat="42.89584" lon="0.10461">
        <ele>1548.34</ele>
        <time>2022-02-09T14:44:13Z</time>
      </trkpt>
      <trkpt lat="42.89607" lon="0.10476">
        <ele>1546.42</ele>
        <time>2022-02-09T14:44:19Z</time>
      </trkpt>
      <trkpt lat="42.89644" lon="0.10489">
        <ele>1542.57</ele>
        <time>2022-02-09T14:44:26Z</time>
      </trkpt>
      <trkpt lat="42.89648" lon="0.10492">
        <ele>1542.57</ele>
        <time>2022-02-09T14:44:27Z</time>
      </trkpt>
      <trkpt lat="42.89658" lon="0.10495">
        <ele>1540.17</ele>
        <time>2022-02-09T14:44:29Z</time>
      </trkpt>
      <trkpt lat="42.89672" lon="0.105">
        <ele>1537.77</ele>
        <time>2022-02-09T14:44:32Z</time>
      </trkpt>
      <trkpt lat="42.89682" lon="0.10502">
        <ele>1537.29</ele>
        <time>2022-02-09T14:44:34Z</time>
      </trkpt>
      <trkpt lat="42.89692" lon="0.10506">
        <ele>1536.32</ele>
        <time>2022-02-09T14:44:36Z</time>
      </trkpt>
      <trkpt lat="42.89702" lon="0.10507">
        <ele>1534.4</ele>
        <time>2022-02-09T14:44:38Z</time>
      </trkpt>
      <trkpt lat="42.89723" lon="0.1051">
        <ele>1531.04</ele>
        <time>2022-02-09T14:44:42Z</time>
      </trkpt>
      <trkpt lat="42.89743" lon="0.10508">
        <ele>1530.08</ele>
        <time>2022-02-09T14:44:46Z</time>
      </trkpt>
      <trkpt lat="42.89765" lon="0.10514">
        <ele>1527.67</ele>
        <time>2022-02-09T14:44:51Z</time>
      </trkpt>
      <trkpt lat="42.89771" lon="0.10515">
        <ele>1527.19</ele>
        <time>2022-02-09T14:44:52Z</time>
      </trkpt>
      <trkpt lat="42.89779" lon="0.10517">
        <ele>1527.19</ele>
        <time>2022-02-09T14:44:54Z</time>
      </trkpt>
      <trkpt lat="42.89805" lon="0.10506">
        <ele>1523.83</ele>
        <time>2022-02-09T14:45:01Z</time>
      </trkpt>
      <trkpt lat="42.89841" lon="0.10468">
        <ele>1520.46</ele>
        <time>2022-02-09T14:45:11Z</time>
      </trkpt>
      <trkpt lat="42.8985" lon="0.10461">
        <ele>1519.98</ele>
        <time>2022-02-09T14:45:13Z</time>
      </trkpt>
      <trkpt lat="42.8987" lon="0.10451">
        <ele>1514.21</ele>
        <time>2022-02-09T14:45:17Z</time>
      </trkpt>
      <trkpt lat="42.89891" lon="0.10442">
        <ele>1510.37</ele>
        <time>2022-02-09T14:45:20Z</time>
      </trkpt>
      <trkpt lat="42.89916" lon="0.10433">
        <ele>1508.45</ele>
        <time>2022-02-09T14:45:23Z</time>
      </trkpt>
      <trkpt lat="42.90004" lon="0.10416">
        <ele>1506.04</ele>
        <time>2022-02-09T14:45:34Z</time>
      </trkpt>
      <trkpt lat="42.90034" lon="0.1041">
        <ele>1504.6</ele>
        <time>2022-02-09T14:45:40Z</time>
      </trkpt>
      <trkpt lat="42.90064" lon="0.10405">
        <ele>1499.79</ele>
        <time>2022-02-09T14:45:45Z</time>
      </trkpt>
      <trkpt lat="42.90071" lon="0.10403">
        <ele>1498.83</ele>
        <time>2022-02-09T14:45:46Z</time>
      </trkpt>
      <trkpt lat="42.90113" lon="0.10394">
        <ele>1494.99</ele>
        <time>2022-02-09T14:45:53Z</time>
      </trkpt>
      <trkpt lat="42.90119" lon="0.10393">
        <ele>1494.99</ele>
        <time>2022-02-09T14:45:54Z</time>
      </trkpt>
      <trkpt lat="42.90131" lon="0.10388">
        <ele>1493.55</ele>
        <time>2022-02-09T14:45:56Z</time>
      </trkpt>
      <trkpt lat="42.90154" lon="0.10382">
        <ele>1492.58</ele>
        <time>2022-02-09T14:46:00Z</time>
      </trkpt>
      <trkpt lat="42.90168" lon="0.10374">
        <ele>1491.14</ele>
        <time>2022-02-09T14:46:03Z</time>
      </trkpt>
      <trkpt lat="42.90182" lon="0.10365">
        <ele>1489.22</ele>
        <time>2022-02-09T14:46:06Z</time>
      </trkpt>
      <trkpt lat="42.90192" lon="0.10361">
        <ele>1488.74</ele>
        <time>2022-02-09T14:46:08Z</time>
      </trkpt>
      <trkpt lat="42.90202" lon="0.10358">
        <ele>1487.3</ele>
        <time>2022-02-09T14:46:10Z</time>
      </trkpt>
      <trkpt lat="42.90219" lon="0.10355">
        <ele>1485.85</ele>
        <time>2022-02-09T14:46:13Z</time>
      </trkpt>
      <trkpt lat="42.90231" lon="0.10354">
        <ele>1484.89</ele>
        <time>2022-02-09T14:46:15Z</time>
      </trkpt>
      <trkpt lat="42.90271" lon="0.10352">
        <ele>1482.97</ele>
        <time>2022-02-09T14:46:23Z</time>
      </trkpt>
      <trkpt lat="42.90302" lon="0.10329">
        <ele>1481.05</ele>
        <time>2022-02-09T14:46:35Z</time>
      </trkpt>
      <trkpt lat="42.90332" lon="0.10323">
        <ele>1479.13</ele>
        <time>2022-02-09T14:46:42Z</time>
      </trkpt>
      <trkpt lat="42.90339" lon="0.10316">
        <ele>1478.16</ele>
        <time>2022-02-09T14:46:44Z</time>
      </trkpt>
      <trkpt lat="42.90345" lon="0.10302">
        <ele>1476.72</ele>
        <time>2022-02-09T14:46:47Z</time>
      </trkpt>
      <trkpt lat="42.90356" lon="0.10289">
        <ele>1477.2</ele>
        <time>2022-02-09T14:46:55Z</time>
      </trkpt>
      <trkpt lat="42.90356" lon="0.10291">
        <ele>1477.2</ele>
        <time>2022-02-09T14:47:14Z</time>
      </trkpt>
      <trkpt lat="42.90347" lon="0.10295">
        <ele>1477.2</ele>
        <time>2022-02-09T14:47:35Z</time>
      </trkpt>
      <trkpt lat="42.90341" lon="0.10297">
        <ele>1476.72</ele>
        <time>2022-02-09T14:47:57Z</time>
      </trkpt>
      <trkpt lat="42.90343" lon="0.10296">
        <ele>1477.2</ele>
        <time>2022-02-09T14:48:02Z</time>
      </trkpt>
      <trkpt lat="42.90345" lon="0.10291">
        <ele>1476.24</ele>
        <time>2022-02-09T14:48:12Z</time>
      </trkpt>
      <trkpt lat="42.9033" lon="0.10302">
        <ele>1478.16</ele>
        <time>2022-02-09T14:48:23Z</time>
      </trkpt>
      <trkpt lat="42.9033" lon="0.10301">
        <ele>1476.24</ele>
        <time>2022-02-09T14:48:25Z</time>
      </trkpt>
      <trkpt lat="42.90332" lon="0.10302">
        <ele>1477.2</ele>
        <time>2022-02-09T14:48:33Z</time>
      </trkpt>
      <trkpt lat="42.90329" lon="0.10304">
        <ele>1475.76</ele>
        <time>2022-02-09T14:48:44Z</time>
      </trkpt>
      <trkpt lat="42.90328" lon="0.10304">
        <ele>1479.61</ele>
        <time>2022-02-09T14:48:51Z</time>
      </trkpt>
      <trkpt lat="42.90328" lon="0.10305">
        <ele>1476.72</ele>
        <time>2022-02-09T14:48:52Z</time>
      </trkpt>
      <trkpt lat="42.90338" lon="0.103">
        <ele>1477.2</ele>
        <time>2022-02-09T14:49:10Z</time>
      </trkpt>
      <trkpt lat="42.90333" lon="0.10298">
        <ele>1475.76</ele>
        <time>2022-02-09T14:49:36Z</time>
      </trkpt>
      <trkpt lat="42.9034" lon="0.10298">
        <ele>1475.76</ele>
        <time>2022-02-09T14:49:59Z</time>
      </trkpt>
      <trkpt lat="42.90343" lon="0.10299">
        <ele>1477.2</ele>
        <time>2022-02-09T14:50:07Z</time>
      </trkpt>
      <trkpt lat="42.90344" lon="0.10298">
        <ele>1475.76</ele>
        <time>2022-02-09T14:50:09Z</time>
      </trkpt>
      <trkpt lat="42.90344" lon="0.10296">
        <ele>1475.76</ele>
        <time>2022-02-09T14:50:32Z</time>
      </trkpt>
      <trkpt lat="42.90348" lon="0.10298">
        <ele>1473.84</ele>
        <time>2022-02-09T14:50:44Z</time>
      </trkpt>
      <trkpt lat="42.90355" lon="0.10287">
        <ele>1472.88</ele>
        <time>2022-02-09T14:51:04Z</time>
      </trkpt>
      <trkpt lat="42.90358" lon="0.1028">
        <ele>1471.92</ele>
        <time>2022-02-09T14:51:19Z</time>
      </trkpt>
      <trkpt lat="42.90351" lon="0.10276">
        <ele>1471.92</ele>
        <time>2022-02-09T14:51:34Z</time>
      </trkpt>
      <trkpt lat="42.90351" lon="0.10277">
        <ele>1472.4</ele>
        <time>2022-02-09T14:51:56Z</time>
      </trkpt>
      <trkpt lat="42.90353" lon="0.10272">
        <ele>1471.92</ele>
        <time>2022-02-09T14:52:16Z</time>
      </trkpt>
      <trkpt lat="42.90353" lon="0.10271">
        <ele>1469.99</ele>
        <time>2022-02-09T14:52:18Z</time>
      </trkpt>
      <trkpt lat="42.90354" lon="0.10271">
        <ele>1471.44</ele>
        <time>2022-02-09T14:52:20Z</time>
      </trkpt>
      <trkpt lat="42.90358" lon="0.10267">
        <ele>1471.44</ele>
        <time>2022-02-09T14:52:41Z</time>
      </trkpt>
      <trkpt lat="42.90354" lon="0.10268">
        <ele>1469.99</ele>
        <time>2022-02-09T14:52:50Z</time>
      </trkpt>
      <trkpt lat="42.90354" lon="0.10271">
        <ele>1470.47</ele>
        <time>2022-02-09T14:53:09Z</time>
      </trkpt>
      <trkpt lat="42.9035" lon="0.10275">
        <ele>1469.99</ele>
        <time>2022-02-09T14:53:30Z</time>
      </trkpt>
      <trkpt lat="42.90347" lon="0.10275">
        <ele>1469.51</ele>
        <time>2022-02-09T14:53:53Z</time>
      </trkpt>
      <trkpt lat="42.90348" lon="0.10276">
        <ele>1470.95</ele>
        <time>2022-02-09T14:54:13Z</time>
      </trkpt>
      <trkpt lat="42.9035" lon="0.10275">
        <ele>1469.03</ele>
        <time>2022-02-09T14:54:15Z</time>
      </trkpt>
      <trkpt lat="42.90352" lon="0.10273">
        <ele>1469.99</ele>
        <time>2022-02-09T14:54:40Z</time>
      </trkpt>
      <trkpt lat="42.90353" lon="0.10272">
        <ele>1469.99</ele>
        <time>2022-02-09T14:55:02Z</time>
      </trkpt>
      <trkpt lat="42.90356" lon="0.10273">
        <ele>1469.99</ele>
        <time>2022-02-09T14:55:20Z</time>
      </trkpt>
      <trkpt lat="42.90357" lon="0.10271">
        <ele>1469.99</ele>
        <time>2022-02-09T14:55:43Z</time>
      </trkpt>
      <trkpt lat="42.90356" lon="0.10274">
        <ele>1469.99</ele>
        <time>2022-02-09T14:56:03Z</time>
      </trkpt>
      <trkpt lat="42.90354" lon="0.10272">
        <ele>1469.51</ele>
        <time>2022-02-09T14:56:23Z</time>
      </trkpt>
    </trkseg>
  </trk>
</gpx>